Wetterdaten: Montag, 29.07.2019
Datum Zeit Temp. A. Feuchte A. Luftdruck Regen Wind Richtung Richtung Sonnenschein ET UV Solar Taupunkt Windchill Windböen
29.07.2019 00:00 14,3 °C 94 % 1005,8 hPa 0,0 mm 17,3 km/h (3 Bft) W 259 ° 0 min 0,000 mm 0,0 UV-I 0 W/m² 13,3 °C 14,3 °C 25,7 km/h (4 Bft)
29.07.2019 00:01 14,3 °C 94 % 1005,9 hPa 0,0 mm 12,3 km/h (3 Bft) W 262 ° 0 min 0,000 mm 0,0 UV-I 0 W/m² 13,3 °C 14,3 °C 19,3 km/h (3 Bft)
29.07.2019 00:02 14,3 °C 94 % 1005,9 hPa 0,2 mm 10,3 km/h (2 Bft) W-NW 292 ° 0 min 0,000 mm 0,0 UV-I 0 W/m² 13,3 °C 14,3 °C 14,5 km/h (3 Bft)
29.07.2019 00:03 14,3 °C 94 % 1005,9 hPa 0,2 mm 15,2 km/h (3 Bft) W-SW 253 ° 0 min 0,000 mm 0,0 UV-I 0 W/m² 13,3 °C 14,3 °C 24,1 km/h (4 Bft)
29.07.2019 00:04 14,3 °C 94 % 1005,9 hPa 0,0 mm 20,2 km/h (4 Bft) W-SW 254 ° 0 min 0,000 mm 0,0 UV-I 0 W/m² 13,3 °C 14,3 °C 24,1 km/h (4 Bft)
29.07.2019 00:05 14,3 °C 94 % 1006,0 hPa 0,2 mm 9,4 km/h (2 Bft) W-SW 256 ° 0 min 0,000 mm 0,0 UV-I 0 W/m² 13,3 °C 14,3 °C 14,5 km/h (3 Bft)
29.07.2019 00:06 14,3 °C 94 % 1006,0 hPa 0,0 mm 13,4 km/h (3 Bft) W-SW 245 ° 0 min 0,000 mm 0,0 UV-I 0 W/m² 13,3 °C 14,3 °C 16,1 km/h (3 Bft)
29.07.2019 00:07 14,3 °C 94 % 1006,0 hPa 0,2 mm 8,3 km/h (2 Bft) W-SW 254 ° 0 min 0,000 mm 0,0 UV-I 0 W/m² 13,3 °C 14,3 °C 16,1 km/h (3 Bft)
29.07.2019 00:08 14,3 °C 94 % 1006,0 hPa 0,0 mm 13,5 km/h (3 Bft) W-SW 253 ° 0 min 0,000 mm 0,0 UV-I 0 W/m² 13,3 °C 14,3 °C 19,3 km/h (3 Bft)
29.07.2019 00:09 14,3 °C 94 % 1006,0 hPa 0,2 mm 14,3 km/h (3 Bft) W-SW 256 ° 0 min 0,000 mm 0,0 UV-I 0 W/m² 13,3 °C 14,3 °C 20,9 km/h (4 Bft)
29.07.2019 00:10 14,3 °C 94 % 1006,0 hPa 0,0 mm 14,4 km/h (3 Bft) W 275 ° 0 min 0,000 mm 0,0 UV-I 0 W/m² 13,3 °C 14,3 °C 25,7 km/h (4 Bft)
29.07.2019 00:11 14,3 °C 94 % 1006,0 hPa 0,2 mm 12,8 km/h (3 Bft) SW 217 ° 0 min 0,000 mm 0,0 UV-I 0 W/m² 13,3 °C 14,3 °C 24,1 km/h (4 Bft)
29.07.2019 00:12 14,3 °C 94 % 1006,1 hPa 0,0 mm 10,5 km/h (2 Bft) W-SW 257 ° 0 min 0,000 mm 0,0 UV-I 0 W/m² 13,3 °C 14,3 °C 19,3 km/h (3 Bft)
29.07.2019 00:13 14,3 °C 94 % 1006,1 hPa 0,2 mm 17,2 km/h (3 Bft) W 268 ° 0 min 0,000 mm 0,0 UV-I 0 W/m² 13,3 °C 14,3 °C 27,4 km/h (4 Bft)
29.07.2019 00:14 14,3 °C 94 % 1006,1 hPa 0,0 mm 13,6 km/h (3 Bft) W 264 ° 0 min 0,000 mm 0,0 UV-I 0 W/m² 13,3 °C 14,3 °C 17,7 km/h (3 Bft)
29.07.2019 00:15 14,3 °C 94 % 1006,1 hPa 0,2 mm 14,3 km/h (3 Bft) W 278 ° 0 min 0,000 mm 0,0 UV-I 0 W/m² 13,3 °C 14,3 °C 19,3 km/h (3 Bft)
29.07.2019 00:16 14,3 °C 94 % 1006,1 hPa 0,0 mm 14,7 km/h (3 Bft) S-SW 213 ° 0 min 0,000 mm 0,0 UV-I 0 W/m² 13,3 °C 14,3 °C 20,9 km/h (4 Bft)
29.07.2019 00:17 14,3 °C 94 % 1006,1 hPa 0,2 mm 10,3 km/h (2 Bft) W-SW 251 ° 0 min 0,000 mm 0,0 UV-I 0 W/m² 13,3 °C 14,3 °C 19,3 km/h (3 Bft)
29.07.2019 00:18 14,3 °C 94 % 1006,1 hPa 0,0 mm 13,7 km/h (3 Bft) W 269 ° 0 min 0,000 mm 0,0 UV-I 0 W/m² 13,3 °C 14,3 °C 22,5 km/h (4 Bft)
29.07.2019 00:19 14,3 °C 94 % 1006,1 hPa 0,2 mm 19,2 km/h (3 Bft) W 259 ° 0 min 0,000 mm 0,0 UV-I 0 W/m² 13,3 °C 14,3 °C 30,6 km/h (5 Bft)
29.07.2019 00:20 14,3 °C 94 % 1006,1 hPa 0,0 mm 11,3 km/h (2 Bft) W 259 ° 0 min 0,000 mm 0,0 UV-I 0 W/m² 13,3 °C 14,3 °C 20,9 km/h (4 Bft)
29.07.2019 00:21 14,3 °C 94 % 1006,1 hPa 0,0 mm 11,3 km/h (2 Bft) W-SW 254 ° 0 min 0,000 mm 0,0 UV-I 0 W/m² 13,3 °C 14,3 °C 17,7 km/h (3 Bft)
29.07.2019 00:22 14,3 °C 94 % 1006,1 hPa 0,2 mm 20,5 km/h (4 Bft) W-SW 254 ° 0 min 0,000 mm 0,0 UV-I 0 W/m² 13,3 °C 14,3 °C 40,2 km/h (6 Bft)
29.07.2019 00:23 14,3 °C 94 % 1006,1 hPa 0,0 mm 16,4 km/h (3 Bft) SW 236 ° 0 min 0,000 mm 0,0 UV-I 0 W/m² 13,3 °C 14,3 °C 25,7 km/h (4 Bft)
29.07.2019 00:24 14,3 °C 94 % 1006,1 hPa 0,2 mm 11,8 km/h (2 Bft) W 261 ° 0 min 0,000 mm 0,0 UV-I 0 W/m² 13,3 °C 14,3 °C 22,5 km/h (4 Bft)
29.07.2019 00:25 14,2 °C 94 % 1006,1 hPa 0,0 mm 15,4 km/h (3 Bft) W 275 ° 0 min 0,000 mm 0,0 UV-I 0 W/m² 13,2 °C 14,2 °C 24,1 km/h (4 Bft)
29.07.2019 00:26 14,3 °C 94 % 1006,1 hPa 0,2 mm 14,6 km/h (3 Bft) SW 229 ° 0 min 0,000 mm 0,0 UV-I 0 W/m² 13,3 °C 14,3 °C 25,7 km/h (4 Bft)
29.07.2019 00:27 14,3 °C 94 % 1006,1 hPa 0,0 mm 17,9 km/h (3 Bft) W 274 ° 0 min 0,000 mm 0,0 UV-I 0 W/m² 13,3 °C 14,3 °C 30,6 km/h (5 Bft)
29.07.2019 00:28 14,2 °C 94 % 1006,2 hPa 0,0 mm 13,0 km/h (3 Bft) W 273 ° 0 min 0,000 mm 0,0 UV-I 0 W/m² 13,2 °C 14,2 °C 22,5 km/h (4 Bft)
29.07.2019 00:29 14,2 °C 94 % 1006,2 hPa 0,2 mm 13,3 km/h (3 Bft) W-NW 286 ° 0 min 0,000 mm 0,0 UV-I 0 W/m² 13,2 °C 14,2 °C 19,3 km/h (3 Bft)
29.07.2019 00:30 14,2 °C 94 % 1006,3 hPa 0,0 mm 8,9 km/h (2 Bft) W 279 ° 0 min 0,000 mm 0,0 UV-I 0 W/m² 13,2 °C 14,2 °C 12,9 km/h (3 Bft)
29.07.2019 00:31 14,2 °C 94 % 1006,3 hPa 0,0 mm 9,9 km/h (2 Bft) W-SW 241 ° 0 min 0,000 mm 0,0 UV-I 0 W/m² 13,2 °C 14,2 °C 16,1 km/h (3 Bft)
29.07.2019 00:32 14,2 °C 94 % 1006,2 hPa 0,2 mm 17,9 km/h (3 Bft) W 266 ° 0 min 0,000 mm 0,0 UV-I 0 W/m² 13,2 °C 14,2 °C 27,4 km/h (4 Bft)
29.07.2019 00:33 14,2 °C 94 % 1006,2 hPa 0,0 mm 13,1 km/h (3 Bft) W-SW 257 ° 0 min 0,000 mm 0,0 UV-I 0 W/m² 13,2 °C 14,2 °C 20,9 km/h (4 Bft)
29.07.2019 00:34 14,2 °C 94 % 1006,2 hPa 0,2 mm 15,4 km/h (3 Bft) NW 307 ° 0 min 0,000 mm 0,0 UV-I 0 W/m² 13,2 °C 14,2 °C 20,9 km/h (4 Bft)
29.07.2019 00:35 14,2 °C 94 % 1006,3 hPa 0,0 mm 10,1 km/h (2 Bft) W 281 ° 0 min 0,000 mm 0,0 UV-I 0 W/m² 13,2 °C 14,2 °C 16,1 km/h (3 Bft)
29.07.2019 00:36 14,2 °C 94 % 1006,3 hPa 0,0 mm 17,1 km/h (3 Bft) W 263 ° 0 min 0,000 mm 0,0 UV-I 0 W/m² 13,2 °C 14,2 °C 27,4 km/h (4 Bft)
29.07.2019 00:37 14,2 °C 94 % 1006,2 hPa 0,2 mm 8,9 km/h (2 Bft) W 279 ° 0 min 0,000 mm 0,0 UV-I 0 W/m² 13,2 °C 14,2 °C 19,3 km/h (3 Bft)
29.07.2019 00:38 14,2 °C 94 % 1006,2 hPa 0,0 mm 8,4 km/h (2 Bft) W 269 ° 0 min 0,000 mm 0,0 UV-I 0 W/m² 13,2 °C 14,2 °C 16,1 km/h (3 Bft)
29.07.2019 00:39 14,2 °C 94 % 1006,3 hPa 0,0 mm 10,8 km/h (2 Bft) W 281 ° 0 min 0,000 mm 0,0 UV-I 0 W/m² 13,2 °C 14,2 °C 16,1 km/h (3 Bft)
29.07.2019 00:40 14,2 °C 94 % 1006,4 hPa 0,0 mm 16,3 km/h (3 Bft) W 273 ° 0 min 0,000 mm 0,0 UV-I 0 W/m² 13,2 °C 14,2 °C 27,4 km/h (4 Bft)
29.07.2019 00:41 14,2 °C 94 % 1006,4 hPa 0,2 mm 14,1 km/h (3 Bft) W 264 ° 0 min 0,000 mm 0,0 UV-I 0 W/m² 13,2 °C 14,2 °C 22,5 km/h (4 Bft)
29.07.2019 00:42 14,2 °C 94 % 1006,4 hPa 0,0 mm 17,5 km/h (3 Bft) W 265 ° 0 min 0,000 mm 0,0 UV-I 0 W/m² 13,2 °C 14,2 °C 25,7 km/h (4 Bft)
29.07.2019 00:43 14,2 °C 94 % 1006,4 hPa 0,0 mm 12,1 km/h (2 Bft) W 271 ° 0 min 0,000 mm 0,0 UV-I 0 W/m² 13,2 °C 14,2 °C 17,7 km/h (3 Bft)
29.07.2019 00:44 14,2 °C 94 % 1006,4 hPa 0,2 mm 12,9 km/h (3 Bft) SW 231 ° 0 min 0,000 mm 0,0 UV-I 0 W/m² 13,2 °C 14,2 °C 19,3 km/h (3 Bft)
29.07.2019 00:45 14,2 °C 94 % 1006,4 hPa 0,0 mm 17,9 km/h (3 Bft) W-NW 298 ° 0 min 0,000 mm 0,0 UV-I 0 W/m² 13,2 °C 14,2 °C 25,7 km/h (4 Bft)
29.07.2019 00:46 14,2 °C 94 % 1006,3 hPa 0,0 mm 13,5 km/h (3 Bft) W-NW 284 ° 0 min 0,000 mm 0,0 UV-I 0 W/m² 13,2 °C 14,2 °C 17,7 km/h (3 Bft)
29.07.2019 00:47 14,2 °C 94 % 1006,3 hPa 0,0 mm 6,4 km/h (2 Bft) W 263 ° 0 min 0,000 mm 0,0 UV-I 0 W/m² 13,2 °C 14,2 °C 14,5 km/h (3 Bft)
29.07.2019 00:48 14,2 °C 94 % 1006,3 hPa 0,2 mm 11,1 km/h (2 Bft) W-SW 249 ° 0 min 0,000 mm 0,0 UV-I 0 W/m² 13,2 °C 14,2 °C 17,7 km/h (3 Bft)
29.07.2019 00:49 14,2 °C 94 % 1006,3 hPa 0,0 mm 16,4 km/h (3 Bft) W 271 ° 0 min 0,000 mm 0,0 UV-I 0 W/m² 13,2 °C 14,2 °C 29,0 km/h (5 Bft)
29.07.2019 00:50 14,2 °C 94 % 1006,3 hPa 0,0 mm 12,1 km/h (2 Bft) NW 305 ° 0 min 0,000 mm 0,0 UV-I 0 W/m² 13,2 °C 14,2 °C 17,7 km/h (3 Bft)
29.07.2019 00:51 14,2 °C 94 % 1006,4 hPa 0,2 mm 13,8 km/h (3 Bft) W-SW 257 ° 0 min 0,000 mm 0,0 UV-I 0 W/m² 13,2 °C 14,2 °C 32,2 km/h (5 Bft)
29.07.2019 00:52 14,2 °C 94 % 1006,4 hPa 0,0 mm 18,0 km/h (3 Bft) W-SW 246 ° 0 min 0,000 mm 0,0 UV-I 0 W/m² 13,2 °C 14,2 °C 30,6 km/h (5 Bft)
29.07.2019 00:53 14,2 °C 94 % 1006,4 hPa 0,0 mm 11,3 km/h (2 Bft) W-SW 256 ° 0 min 0,000 mm 0,0 UV-I 0 W/m² 13,2 °C 14,2 °C 24,1 km/h (4 Bft)
29.07.2019 00:54 14,2 °C 94 % 1006,3 hPa 0,0 mm 19,1 km/h (3 Bft) SW 223 ° 0 min 0,000 mm 0,0 UV-I 0 W/m² 13,2 °C 14,2 °C 30,6 km/h (5 Bft)
29.07.2019 00:55 14,2 °C 94 % 1006,4 hPa 0,2 mm 15,4 km/h (3 Bft) W-NW 286 ° 0 min 0,000 mm 0,0 UV-I 0 W/m² 13,2 °C 14,2 °C 20,9 km/h (4 Bft)
29.07.2019 00:56 14,2 °C 94 % 1006,4 hPa 0,0 mm 11,5 km/h (2 Bft) W-NW 298 ° 0 min 0,000 mm 0,0 UV-I 0 W/m² 13,2 °C 14,2 °C 17,7 km/h (3 Bft)
29.07.2019 00:57 14,2 °C 94 % 1006,4 hPa 0,0 mm 12,3 km/h (3 Bft) W-SW 256 ° 0 min 0,000 mm 0,0 UV-I 0 W/m² 13,2 °C 14,2 °C 24,1 km/h (4 Bft)
29.07.2019 00:58 14,2 °C 94 % 1006,5 hPa 0,0 mm 9,9 km/h (2 Bft) W 268 ° 0 min 0,000 mm 0,0 UV-I 0 W/m² 13,2 °C 14,2 °C 20,9 km/h (4 Bft)
29.07.2019 00:59 14,2 °C 94 % 1006,5 hPa 0,2 mm 12,2 km/h (2 Bft) W-NW 292 ° 0 min 0,000 mm 0,0 UV-I 0 W/m² 13,2 °C 14,2 °C 16,1 km/h (3 Bft)
29.07.2019 01:00 14,2 °C 94 % 1006,5 hPa 0,0 mm 11,3 km/h (2 Bft) W 268 ° 0 min 0,000 mm 0,0 UV-I 0 W/m² 13,2 °C 14,2 °C 20,9 km/h (4 Bft)
29.07.2019 01:01 14,2 °C 94 % 1006,6 hPa 0,0 mm 21,3 km/h (4 Bft) W-SW 252 ° 0 min 0,000 mm 0,0 UV-I 0 W/m² 13,2 °C 14,2 °C 30,6 km/h (5 Bft)
29.07.2019 01:02 14,2 °C 94 % 1006,6 hPa 0,0 mm 14,6 km/h (3 Bft) W-SW 248 ° 0 min 0,000 mm 0,0 UV-I 0 W/m² 13,2 °C 14,2 °C 20,9 km/h (4 Bft)
29.07.2019 01:03 14,2 °C 94 % 1006,5 hPa 0,0 mm 15,0 km/h (3 Bft) W 265 ° 0 min 0,000 mm 0,0 UV-I 0 W/m² 13,2 °C 14,2 °C 20,9 km/h (4 Bft)
29.07.2019 01:04 14,2 °C 94 % 1006,5 hPa 0,2 mm 15,1 km/h (3 Bft) W 275 ° 0 min 0,000 mm 0,0 UV-I 0 W/m² 13,2 °C 14,2 °C 22,5 km/h (4 Bft)
29.07.2019 01:05 14,1 °C 94 % 1006,6 hPa 0,0 mm 8,0 km/h (2 Bft) W-NW 300 ° 0 min 0,000 mm 0,0 UV-I 0 W/m² 13,1 °C 14,1 °C 12,9 km/h (3 Bft)
29.07.2019 01:06 14,2 °C 94 % 1006,6 hPa 0,0 mm 11,1 km/h (2 Bft) W 265 ° 0 min 0,000 mm 0,0 UV-I 0 W/m² 13,2 °C 14,2 °C 17,7 km/h (3 Bft)
29.07.2019 01:07 14,1 °C 94 % 1006,6 hPa 0,0 mm 12,1 km/h (2 Bft) W 267 ° 0 min 0,000 mm 0,0 UV-I 0 W/m² 13,1 °C 14,1 °C 22,5 km/h (4 Bft)
29.07.2019 01:08 14,1 °C 94 % 1006,6 hPa 0,2 mm 11,3 km/h (2 Bft) W 259 ° 0 min 0,000 mm 0,0 UV-I 0 W/m² 13,1 °C 14,1 °C 19,3 km/h (3 Bft)
29.07.2019 01:09 14,1 °C 94 % 1006,6 hPa 0,0 mm 11,7 km/h (2 Bft) SW 231 ° 0 min 0,000 mm 0,0 UV-I 0 W/m² 13,1 °C 14,1 °C 16,1 km/h (3 Bft)
29.07.2019 01:10 14,2 °C 94 % 1006,7 hPa 0,0 mm 8,6 km/h (2 Bft) W 276 ° 0 min 0,000 mm 0,0 UV-I 0 W/m² 13,2 °C 14,2 °C 16,1 km/h (3 Bft)
29.07.2019 01:11 14,1 °C 94 % 1006,7 hPa 0,0 mm 13,3 km/h (3 Bft) W 276 ° 0 min 0,000 mm 0,0 UV-I 0 W/m² 13,1 °C 14,1 °C 19,3 km/h (3 Bft)
29.07.2019 01:12 14,2 °C 94 % 1006,7 hPa 0,0 mm 9,3 km/h (2 Bft) W-SW 256 ° 0 min 0,000 mm 0,0 UV-I 0 W/m² 13,2 °C 14,2 °C 17,7 km/h (3 Bft)
29.07.2019 01:13 14,1 °C 94 % 1006,7 hPa 0,0 mm 11,5 km/h (2 Bft) W-SW 247 ° 0 min 0,000 mm 0,0 UV-I 0 W/m² 13,1 °C 14,1 °C 19,3 km/h (3 Bft)
29.07.2019 01:14 14,1 °C 94 % 1006,7 hPa 0,2 mm 9,4 km/h (2 Bft) NW 307 ° 0 min 0,000 mm 0,0 UV-I 0 W/m² 13,1 °C 14,1 °C 16,1 km/h (3 Bft)
29.07.2019 01:15 14,1 °C 94 % 1006,7 hPa 0,0 mm 11,0 km/h (2 Bft) W-NW 288 ° 0 min 0,000 mm 0,0 UV-I 0 W/m² 13,1 °C 14,1 °C 16,1 km/h (3 Bft)
29.07.2019 01:16 14,1 °C 94 % 1006,7 hPa 0,0 mm 9,3 km/h (2 Bft) W 266 ° 0 min 0,000 mm 0,0 UV-I 0 W/m² 13,1 °C 14,1 °C 14,5 km/h (3 Bft)
29.07.2019 01:17 14,1 °C 94 % 1006,7 hPa 0,0 mm 9,0 km/h (2 Bft) SW 233 ° 0 min 0,000 mm 0,0 UV-I 0 W/m² 13,1 °C 14,1 °C 20,9 km/h (4 Bft)
29.07.2019 01:18 14,1 °C 94 % 1006,7 hPa 0,0 mm 11,3 km/h (2 Bft) W 259 ° 0 min 0,000 mm 0,0 UV-I 0 W/m² 13,1 °C 14,1 °C 19,3 km/h (3 Bft)
29.07.2019 01:19 14,1 °C 94 % 1006,7 hPa 0,2 mm 13,2 km/h (3 Bft) W-SW 245 ° 0 min 0,000 mm 0,0 UV-I 0 W/m² 13,1 °C 14,1 °C 20,9 km/h (4 Bft)
29.07.2019 01:20 14,1 °C 94 % 1006,7 hPa 0,0 mm 14,1 km/h (3 Bft) W-SW 252 ° 0 min 0,000 mm 0,0 UV-I 0 W/m² 13,1 °C 14,1 °C 24,1 km/h (4 Bft)
29.07.2019 01:21 14,1 °C 94 % 1006,7 hPa 0,0 mm 11,3 km/h (2 Bft) W-NW 289 ° 0 min 0,000 mm 0,0 UV-I 0 W/m² 13,1 °C 14,1 °C 24,1 km/h (4 Bft)
29.07.2019 01:22 14,1 °C 94 % 1006,7 hPa 0,0 mm 8,7 km/h (2 Bft) W 276 ° 0 min 0,000 mm 0,0 UV-I 0 W/m² 13,1 °C 14,1 °C 12,9 km/h (3 Bft)
29.07.2019 01:23 14,1 °C 94 % 1006,7 hPa 0,0 mm 12,1 km/h (2 Bft) W 278 ° 0 min 0,000 mm 0,0 UV-I 0 W/m² 13,1 °C 14,1 °C 27,4 km/h (4 Bft)
29.07.2019 01:24 14,1 °C 94 % 1006,6 hPa 0,2 mm 17,8 km/h (3 Bft) W 263 ° 0 min 0,000 mm 0,0 UV-I 0 W/m² 13,1 °C 14,1 °C 29,0 km/h (5 Bft)
29.07.2019 01:25 14,1 °C 94 % 1006,7 hPa 0,0 mm 12,3 km/h (3 Bft) W 259 ° 0 min 0,000 mm 0,0 UV-I 0 W/m² 13,1 °C 14,1 °C 19,3 km/h (3 Bft)
29.07.2019 01:26 14,1 °C 94 % 1006,7 hPa 0,0 mm 15,7 km/h (3 Bft) W-SW 252 ° 0 min 0,000 mm 0,0 UV-I 0 W/m² 13,1 °C 14,1 °C 25,7 km/h (4 Bft)
29.07.2019 01:27 14,1 °C 94 % 1006,7 hPa 0,0 mm 14,8 km/h (3 Bft) W-NW 296 ° 0 min 0,000 mm 0,0 UV-I 0 W/m² 13,1 °C 14,1 °C 29,0 km/h (5 Bft)
29.07.2019 01:28 14,1 °C 94 % 1006,6 hPa 0,2 mm 16,7 km/h (3 Bft) NW 308 ° 0 min 0,000 mm 0,0 UV-I 0 W/m² 13,1 °C 14,1 °C 22,5 km/h (4 Bft)
29.07.2019 01:29 14,1 °C 94 % 1006,7 hPa 0,0 mm 11,7 km/h (2 Bft) SW 223 ° 0 min 0,000 mm 0,0 UV-I 0 W/m² 13,1 °C 14,1 °C 14,5 km/h (3 Bft)
29.07.2019 01:30 14,1 °C 94 % 1006,7 hPa 0,0 mm 13,1 km/h (3 Bft) W 265 ° 0 min 0,000 mm 0,0 UV-I 0 W/m² 13,1 °C 14,1 °C 25,7 km/h (4 Bft)
29.07.2019 01:31 14,1 °C 94 % 1006,7 hPa 0,0 mm 14,9 km/h (3 Bft) W 265 ° 0 min 0,000 mm 0,0 UV-I 0 W/m² 13,1 °C 14,1 °C 22,5 km/h (4 Bft)
29.07.2019 01:32 14,1 °C 94 % 1006,7 hPa 0,0 mm 11,5 km/h (2 Bft) W 275 ° 0 min 0,000 mm 0,0 UV-I 0 W/m² 13,1 °C 14,1 °C 17,7 km/h (3 Bft)
29.07.2019 01:33 14,1 °C 94 % 1006,6 hPa 0,2 mm 9,5 km/h (2 Bft) W-SW 254 ° 0 min 0,000 mm 0,0 UV-I 0 W/m² 13,1 °C 14,1 °C 25,7 km/h (4 Bft)
29.07.2019 01:34 14,1 °C 94 % 1006,6 hPa 0,0 mm 15,8 km/h (3 Bft) W-SW 255 ° 0 min 0,000 mm 0,0 UV-I 0 W/m² 13,1 °C 14,1 °C 29,0 km/h (5 Bft)
29.07.2019 01:35 14,1 °C 94 % 1006,6 hPa 0,0 mm 19,0 km/h (3 Bft) W 265 ° 0 min 0,000 mm 0,0 UV-I 0 W/m² 13,1 °C 14,1 °C 24,1 km/h (4 Bft)
29.07.2019 01:36 14,1 °C 94 % 1006,7 hPa 0,0 mm 13,7 km/h (3 Bft) W 263 ° 0 min 0,000 mm 0,0 UV-I 0 W/m² 13,1 °C 14,1 °C 22,5 km/h (4 Bft)
29.07.2019 01:37 14,1 °C 94 % 1006,7 hPa 0,0 mm 10,1 km/h (2 Bft) W-NW 286 ° 0 min 0,000 mm 0,0 UV-I 0 W/m² 13,1 °C 14,1 °C 17,7 km/h (3 Bft)
29.07.2019 01:38 14,1 °C 94 % 1006,7 hPa 0,2 mm 10,7 km/h (2 Bft) W 275 ° 0 min 0,000 mm 0,0 UV-I 0 W/m² 13,1 °C 14,1 °C 14,5 km/h (3 Bft)
29.07.2019 01:39 14,1 °C 94 % 1006,7 hPa 0,0 mm 10,4 km/h (2 Bft) W 260 ° 0 min 0,000 mm 0,0 UV-I 0 W/m² 13,1 °C 14,1 °C 20,9 km/h (4 Bft)
29.07.2019 01:40 14,0 °C 94 % 1006,7 hPa 0,0 mm 13,6 km/h (3 Bft) W-NW 300 ° 0 min 0,000 mm 0,0 UV-I 0 W/m² 13,0 °C 14,0 °C 20,9 km/h (4 Bft)
29.07.2019 01:41 14,0 °C 94 % 1006,7 hPa 0,0 mm 14,1 km/h (3 Bft) W-SW 255 ° 0 min 0,000 mm 0,0 UV-I 0 W/m² 13,0 °C 14,0 °C 20,9 km/h (4 Bft)
29.07.2019 01:42 14,0 °C 94 % 1006,7 hPa 0,0 mm 13,7 km/h (3 Bft) W-SW 258 ° 0 min 0,000 mm 0,0 UV-I 0 W/m² 13,0 °C 14,0 °C 20,9 km/h (4 Bft)
29.07.2019 01:43 14,0 °C 94 % 1006,7 hPa 0,0 mm 12,3 km/h (3 Bft) S-SW 206 ° 0 min 0,000 mm 0,0 UV-I 0 W/m² 13,0 °C 14,0 °C 25,7 km/h (4 Bft)
29.07.2019 01:44 14,0 °C 94 % 1006,7 hPa 0,2 mm 14,3 km/h (3 Bft) W 263 ° 0 min 0,000 mm 0,0 UV-I 0 W/m² 13,0 °C 14,0 °C 25,7 km/h (4 Bft)
29.07.2019 01:45 14,0 °C 94 % 1006,7 hPa 0,0 mm 13,2 km/h (3 Bft) W 262 ° 0 min 0,000 mm 0,0 UV-I 0 W/m² 13,0 °C 14,0 °C 22,5 km/h (4 Bft)
29.07.2019 01:46 14,0 °C 94 % 1006,8 hPa 0,0 mm 10,4 km/h (2 Bft) W-SW 253 ° 0 min 0,000 mm 0,0 UV-I 0 W/m² 13,0 °C 14,0 °C 17,7 km/h (3 Bft)
29.07.2019 01:47 14,0 °C 94 % 1006,8 hPa 0,0 mm 11,1 km/h (2 Bft) W 267 ° 0 min 0,000 mm 0,0 UV-I 0 W/m² 13,0 °C 14,0 °C 16,1 km/h (3 Bft)
29.07.2019 01:48 14,0 °C 94 % 1006,8 hPa 0,0 mm 14,2 km/h (3 Bft) W 275 ° 0 min 0,000 mm 0,0 UV-I 0 W/m² 13,0 °C 14,0 °C 24,1 km/h (4 Bft)
29.07.2019 01:49 14,0 °C 94 % 1006,8 hPa 0,2 mm 16,1 km/h (3 Bft) W-SW 252 ° 0 min 0,000 mm 0,0 UV-I 0 W/m² 13,0 °C 14,0 °C 20,9 km/h (4 Bft)
29.07.2019 01:50 13,9 °C 94 % 1006,8 hPa 0,0 mm 10,1 km/h (2 Bft) W 267 ° 0 min 0,000 mm 0,0 UV-I 0 W/m² 12,9 °C 13,9 °C 17,7 km/h (3 Bft)
29.07.2019 01:51 13,9 °C 94 % 1006,8 hPa 0,0 mm 7,3 km/h (2 Bft) W 278 ° 0 min 0,000 mm 0,0 UV-I 0 W/m² 12,9 °C 13,9 °C 12,9 km/h (3 Bft)
29.07.2019 01:52 13,9 °C 94 % 1006,8 hPa 0,0 mm 17,6 km/h (3 Bft) W 272 ° 0 min 0,000 mm 0,0 UV-I 0 W/m² 12,9 °C 13,9 °C 24,1 km/h (4 Bft)
29.07.2019 01:53 13,9 °C 94 % 1006,8 hPa 0,0 mm 15,9 km/h (3 Bft) NW 309 ° 0 min 0,000 mm 0,0 UV-I 0 W/m² 12,9 °C 13,9 °C 19,3 km/h (3 Bft)
29.07.2019 01:54 14,0 °C 94 % 1006,9 hPa 0,0 mm 8,7 km/h (2 Bft) W 259 ° 0 min 0,000 mm 0,0 UV-I 0 W/m² 13,0 °C 14,0 °C 14,5 km/h (3 Bft)
29.07.2019 01:55 13,9 °C 94 % 1006,9 hPa 0,0 mm 12,7 km/h (3 Bft) W 267 ° 0 min 0,000 mm 0,0 UV-I 0 W/m² 12,9 °C 13,9 °C 19,3 km/h (3 Bft)
29.07.2019 01:56 13,9 °C 94 % 1006,9 hPa 0,0 mm 17,9 km/h (3 Bft) W 266 ° 0 min 0,000 mm 0,0 UV-I 0 W/m² 12,9 °C 13,9 °C 27,4 km/h (4 Bft)
29.07.2019 01:57 13,9 °C 94 % 1006,9 hPa 0,2 mm 14,9 km/h (3 Bft) SW 225 ° 0 min 0,000 mm 0,0 UV-I 0 W/m² 12,9 °C 13,9 °C 24,1 km/h (4 Bft)
29.07.2019 01:58 13,9 °C 94 % 1006,9 hPa 0,0 mm 15,8 km/h (3 Bft) W-SW 248 ° 0 min 0,000 mm 0,0 UV-I 0 W/m² 12,9 °C 13,9 °C 22,5 km/h (4 Bft)
29.07.2019 01:59 13,9 °C 94 % 1006,9 hPa 0,0 mm 8,6 km/h (2 Bft) W 274 ° 0 min 0,000 mm 0,0 UV-I 0 W/m² 12,9 °C 13,9 °C 14,5 km/h (3 Bft)
29.07.2019 02:00 13,9 °C 94 % 1006,9 hPa 0,0 mm 5,2 km/h (1 Bft) W-NW 290 ° 0 min 0,000 mm 0,0 UV-I 0 W/m² 12,9 °C 13,9 °C 8,0 km/h (2 Bft)
29.07.2019 02:01 13,9 °C 94 % 1006,9 hPa 0,0 mm 6,2 km/h (2 Bft) W-NW 292 ° 0 min 0,000 mm 0,0 UV-I 0 W/m² 12,9 °C 13,9 °C 12,9 km/h (3 Bft)
29.07.2019 02:02 13,9 °C 94 % 1006,9 hPa 0,0 mm 14,3 km/h (3 Bft) W 264 ° 0 min 0,000 mm 0,0 UV-I 0 W/m² 12,9 °C 13,9 °C 25,7 km/h (4 Bft)
29.07.2019 02:03 13,9 °C 94 % 1006,9 hPa 0,0 mm 7,5 km/h (2 Bft) W 267 ° 0 min 0,000 mm 0,0 UV-I 0 W/m² 12,9 °C 13,9 °C 14,5 km/h (3 Bft)
29.07.2019 02:04 13,9 °C 94 % 1006,9 hPa 0,0 mm 9,6 km/h (2 Bft) W 273 ° 0 min 0,000 mm 0,0 UV-I 0 W/m² 12,9 °C 13,9 °C 14,5 km/h (3 Bft)
29.07.2019 02:05 13,9 °C 94 % 1006,9 hPa 0,0 mm 12,4 km/h (3 Bft) W 274 ° 0 min 0,000 mm 0,0 UV-I 0 W/m² 12,9 °C 13,9 °C 22,5 km/h (4 Bft)
29.07.2019 02:06 13,9 °C 94 % 1006,9 hPa 0,0 mm 15,3 km/h (3 Bft) S-SW 213 ° 0 min 0,000 mm 0,0 UV-I 0 W/m² 12,9 °C 13,9 °C 22,5 km/h (4 Bft)
29.07.2019 02:07 13,9 °C 94 % 1006,9 hPa 0,0 mm 12,3 km/h (3 Bft) W 263 ° 0 min 0,000 mm 0,0 UV-I 0 W/m² 12,9 °C 13,9 °C 17,7 km/h (3 Bft)
29.07.2019 02:08 13,8 °C 94 % 1006,9 hPa 0,0 mm 9,2 km/h (2 Bft) W-NW 296 ° 0 min 0,000 mm 0,0 UV-I 0 W/m² 12,9 °C 13,8 °C 12,9 km/h (3 Bft)
29.07.2019 02:09 13,9 °C 94 % 1006,9 hPa 0,0 mm 5,4 km/h (1 Bft) W-SW 254 ° 0 min 0,000 mm 0,0 UV-I 0 W/m² 12,9 °C 13,9 °C 11,3 km/h (2 Bft)
29.07.2019 02:10 13,8 °C 94 % 1006,9 hPa 0,0 mm 11,9 km/h (2 Bft) W-NW 284 ° 0 min 0,000 mm 0,0 UV-I 0 W/m² 12,9 °C 13,8 °C 20,9 km/h (4 Bft)
29.07.2019 02:11 13,8 °C 94 % 1006,9 hPa 0,0 mm 16,9 km/h (3 Bft) NW 306 ° 0 min 0,000 mm 0,0 UV-I 0 W/m² 12,9 °C 13,8 °C 24,1 km/h (4 Bft)
29.07.2019 02:12 13,8 °C 94 % 1006,9 hPa 0,0 mm 15,2 km/h (3 Bft) W 264 ° 0 min 0,000 mm 0,0 UV-I 0 W/m² 12,9 °C 13,8 °C 20,9 km/h (4 Bft)
29.07.2019 02:13 13,8 °C 94 % 1006,9 hPa 0,0 mm 13,9 km/h (3 Bft) W 273 ° 0 min 0,000 mm 0,0 UV-I 0 W/m² 12,9 °C 13,8 °C 20,9 km/h (4 Bft)
29.07.2019 02:14 13,8 °C 94 % 1006,9 hPa 0,0 mm 16,1 km/h (3 Bft) W-SW 254 ° 0 min 0,000 mm 0,0 UV-I 0 W/m² 12,9 °C 13,8 °C 19,3 km/h (3 Bft)
29.07.2019 02:15 13,8 °C 94 % 1006,9 hPa 0,0 mm 13,3 km/h (3 Bft) W-SW 244 ° 0 min 0,000 mm 0,0 UV-I 0 W/m² 12,9 °C 13,8 °C 19,3 km/h (3 Bft)
29.07.2019 02:16 13,8 °C 94 % 1006,9 hPa 0,0 mm 15,4 km/h (3 Bft) W-NW 302 ° 0 min 0,000 mm 0,0 UV-I 0 W/m² 12,9 °C 13,8 °C 25,7 km/h (4 Bft)
29.07.2019 02:17 13,8 °C 94 % 1006,9 hPa 0,0 mm 12,3 km/h (3 Bft) W 265 ° 0 min 0,000 mm 0,0 UV-I 0 W/m² 12,9 °C 13,8 °C 20,9 km/h (4 Bft)
29.07.2019 02:18 13,8 °C 94 % 1006,9 hPa 0,0 mm 16,6 km/h (3 Bft) W 274 ° 0 min 0,000 mm 0,0 UV-I 0 W/m² 12,9 °C 13,8 °C 29,0 km/h (5 Bft)
29.07.2019 02:19 13,8 °C 94 % 1006,9 hPa 0,2 mm 18,4 km/h (3 Bft) W-SW 242 ° 0 min 0,000 mm 0,0 UV-I 0 W/m² 12,9 °C 13,8 °C 25,7 km/h (4 Bft)
29.07.2019 02:20 13,8 °C 94 % 1006,9 hPa 0,0 mm 16,0 km/h (3 Bft) W-NW 294 ° 0 min 0,000 mm 0,0 UV-I 0 W/m² 12,9 °C 13,8 °C 22,5 km/h (4 Bft)
29.07.2019 02:21 13,8 °C 94 % 1006,9 hPa 0,0 mm 11,4 km/h (2 Bft) W-NW 296 ° 0 min 0,000 mm 0,0 UV-I 0 W/m² 12,9 °C 13,8 °C 19,3 km/h (3 Bft)
29.07.2019 02:22 13,8 °C 94 % 1006,9 hPa 0,0 mm 13,8 km/h (3 Bft) W-SW 245 ° 0 min 0,000 mm 0,0 UV-I 0 W/m² 12,9 °C 13,8 °C 19,3 km/h (3 Bft)
29.07.2019 02:23 13,8 °C 94 % 1006,9 hPa 0,0 mm 15,9 km/h (3 Bft) W-SW 258 ° 0 min 0,000 mm 0,0 UV-I 0 W/m² 12,9 °C 13,8 °C 22,5 km/h (4 Bft)
29.07.2019 02:24 13,8 °C 94 % 1006,9 hPa 0,0 mm 14,3 km/h (3 Bft) W-SW 248 ° 0 min 0,000 mm 0,0 UV-I 0 W/m² 12,9 °C 13,8 °C 17,7 km/h (3 Bft)
29.07.2019 02:25 13,8 °C 94 % 1006,9 hPa 0,0 mm 12,5 km/h (3 Bft) W 270 ° 0 min 0,000 mm 0,0 UV-I 0 W/m² 12,9 °C 13,8 °C 24,1 km/h (4 Bft)
29.07.2019 02:26 13,8 °C 94 % 1007,0 hPa 0,0 mm 11,5 km/h (2 Bft) W-NW 293 ° 0 min 0,000 mm 0,0 UV-I 0 W/m² 12,9 °C 13,8 °C 24,1 km/h (4 Bft)
29.07.2019 02:27 13,8 °C 94 % 1007,0 hPa 0,0 mm 16,2 km/h (3 Bft) W 271 ° 0 min 0,000 mm 0,0 UV-I 0 W/m² 12,9 °C 13,8 °C 22,5 km/h (4 Bft)
29.07.2019 02:28 13,8 °C 94 % 1007,0 hPa 0,0 mm 14,8 km/h (3 Bft) W 274 ° 0 min 0,000 mm 0,0 UV-I 0 W/m² 12,9 °C 13,8 °C 25,7 km/h (4 Bft)
29.07.2019 02:29 13,8 °C 94 % 1007,0 hPa 0,0 mm 12,5 km/h (3 Bft) W-SW 247 ° 0 min 0,000 mm 0,0 UV-I 0 W/m² 12,9 °C 13,8 °C 20,9 km/h (4 Bft)
29.07.2019 02:30 13,8 °C 94 % 1007,0 hPa 0,0 mm 14,6 km/h (3 Bft) W-SW 246 ° 0 min 0,000 mm 0,0 UV-I 0 W/m² 12,9 °C 13,8 °C 24,1 km/h (4 Bft)
29.07.2019 02:31 13,8 °C 94 % 1007,0 hPa 0,0 mm 17,0 km/h (3 Bft) W 265 ° 0 min 0,000 mm 0,0 UV-I 0 W/m² 12,9 °C 13,8 °C 27,4 km/h (4 Bft)
29.07.2019 02:32 13,8 °C 94 % 1007,0 hPa 0,0 mm 9,9 km/h (2 Bft) W 274 ° 0 min 0,000 mm 0,0 UV-I 0 W/m² 12,9 °C 13,8 °C 16,1 km/h (3 Bft)
29.07.2019 02:33 13,8 °C 94 % 1007,0 hPa 0,2 mm 15,1 km/h (3 Bft) W 265 ° 0 min 0,000 mm 0,0 UV-I 0 W/m² 12,9 °C 13,8 °C 19,3 km/h (3 Bft)
29.07.2019 02:34 13,8 °C 94 % 1007,0 hPa 0,0 mm 15,7 km/h (3 Bft) W-NW 286 ° 0 min 0,000 mm 0,0 UV-I 0 W/m² 12,9 °C 13,8 °C 22,5 km/h (4 Bft)
29.07.2019 02:35 13,8 °C 94 % 1006,9 hPa 0,0 mm 8,0 km/h (2 Bft) W-NW 300 ° 0 min 0,000 mm 0,0 UV-I 0 W/m² 12,9 °C 13,8 °C 12,9 km/h (3 Bft)
29.07.2019 02:36 13,8 °C 94 % 1007,0 hPa 0,0 mm 10,1 km/h (2 Bft) W 267 ° 0 min 0,000 mm 0,0 UV-I 0 W/m² 12,9 °C 13,8 °C 16,1 km/h (3 Bft)
29.07.2019 02:37 13,8 °C 94 % 1007,0 hPa 0,0 mm 10,6 km/h (2 Bft) W-SW 247 ° 0 min 0,000 mm 0,0 UV-I 0 W/m² 12,9 °C 13,8 °C 19,3 km/h (3 Bft)
29.07.2019 02:38 13,8 °C 94 % 1007,0 hPa 0,0 mm 13,7 km/h (3 Bft) W-SW 250 ° 0 min 0,000 mm 0,0 UV-I 0 W/m² 12,9 °C 13,8 °C 20,9 km/h (4 Bft)
29.07.2019 02:39 13,8 °C 94 % 1007,0 hPa 0,0 mm 8,7 km/h (2 Bft) W 273 ° 0 min 0,000 mm 0,0 UV-I 0 W/m² 12,9 °C 13,8 °C 14,5 km/h (3 Bft)
29.07.2019 02:40 13,8 °C 94 % 1007,0 hPa 0,0 mm 9,3 km/h (2 Bft) NW 314 ° 0 min 0,000 mm 0,0 UV-I 0 W/m² 12,9 °C 13,8 °C 14,5 km/h (3 Bft)
29.07.2019 02:41 13,8 °C 94 % 1007,0 hPa 0,0 mm 12,1 km/h (2 Bft) W-SW 254 ° 0 min 0,000 mm 0,0 UV-I 0 W/m² 12,9 °C 13,8 °C 14,5 km/h (3 Bft)
29.07.2019 02:42 13,8 °C 94 % 1007,0 hPa 0,0 mm 11,9 km/h (2 Bft) W 259 ° 0 min 0,000 mm 0,0 UV-I 0 W/m² 12,9 °C 13,8 °C 17,7 km/h (3 Bft)
29.07.2019 02:43 13,8 °C 94 % 1007,0 hPa 0,0 mm 11,5 km/h (2 Bft) NW 304 ° 0 min 0,000 mm 0,0 UV-I 0 W/m² 12,9 °C 13,8 °C 17,7 km/h (3 Bft)
29.07.2019 02:44 13,8 °C 94 % 1007,0 hPa 0,0 mm 9,4 km/h (2 Bft) W-SW 253 ° 0 min 0,000 mm 0,0 UV-I 0 W/m² 12,9 °C 13,8 °C 19,3 km/h (3 Bft)
29.07.2019 02:45 13,8 °C 94 % 1007,0 hPa 0,0 mm 12,1 km/h (2 Bft) W-SW 251 ° 0 min 0,000 mm 0,0 UV-I 0 W/m² 12,9 °C 13,8 °C 14,5 km/h (3 Bft)
29.07.2019 02:46 13,8 °C 94 % 1007,0 hPa 0,2 mm 11,0 km/h (2 Bft) W-NW 283 ° 0 min 0,000 mm 0,0 UV-I 0 W/m² 12,9 °C 13,8 °C 24,1 km/h (4 Bft)
29.07.2019 02:47 13,8 °C 94 % 1007,0 hPa 0,0 mm 10,4 km/h (2 Bft) W 271 ° 0 min 0,000 mm 0,0 UV-I 0 W/m² 12,9 °C 13,8 °C 22,5 km/h (4 Bft)
29.07.2019 02:48 13,8 °C 94 % 1007,0 hPa 0,0 mm 12,1 km/h (2 Bft) W-SW 257 ° 0 min 0,000 mm 0,0 UV-I 0 W/m² 12,9 °C 13,8 °C 17,7 km/h (3 Bft)
29.07.2019 02:49 13,8 °C 94 % 1007,0 hPa 0,0 mm 6,4 km/h (2 Bft) W-NW 289 ° 0 min 0,000 mm 0,0 UV-I 0 W/m² 12,9 °C 13,8 °C 11,3 km/h (2 Bft)
29.07.2019 02:50 13,8 °C 94 % 1007,1 hPa 0,0 mm 13,7 km/h (3 Bft) W-SW 257 ° 0 min 0,000 mm 0,0 UV-I 0 W/m² 12,9 °C 13,8 °C 25,7 km/h (4 Bft)
29.07.2019 02:51 13,8 °C 94 % 1007,1 hPa 0,0 mm 11,9 km/h (2 Bft) W 281 ° 0 min 0,000 mm 0,0 UV-I 0 W/m² 12,9 °C 13,8 °C 29,0 km/h (5 Bft)
29.07.2019 02:52 13,8 °C 94 % 1007,1 hPa 0,0 mm 18,5 km/h (3 Bft) W 263 ° 0 min 0,000 mm 0,0 UV-I 0 W/m² 12,9 °C 13,8 °C 29,0 km/h (5 Bft)
29.07.2019 02:53 13,8 °C 94 % 1007,1 hPa 0,0 mm 12,9 km/h (3 Bft) W 265 ° 0 min 0,000 mm 0,0 UV-I 0 W/m² 12,9 °C 13,8 °C 17,7 km/h (3 Bft)
29.07.2019 02:54 13,8 °C 94 % 1007,1 hPa 0,0 mm 14,3 km/h (3 Bft) W-SW 244 ° 0 min 0,000 mm 0,0 UV-I 0 W/m² 12,9 °C 13,8 °C 20,9 km/h (4 Bft)
29.07.2019 02:55 13,8 °C 94 % 1007,1 hPa 0,0 mm 7,5 km/h (2 Bft) W 265 ° 0 min 0,000 mm 0,0 UV-I 0 W/m² 12,9 °C 13,8 °C 11,3 km/h (2 Bft)
29.07.2019 02:56 13,8 °C 94 % 1007,2 hPa 0,0 mm 15,6 km/h (3 Bft) W-NW 292 ° 0 min 0,000 mm 0,0 UV-I 0 W/m² 12,9 °C 13,8 °C 22,5 km/h (4 Bft)
29.07.2019 02:57 13,8 °C 94 % 1007,2 hPa 0,0 mm 13,6 km/h (3 Bft) W-SW 240 ° 0 min 0,000 mm 0,0 UV-I 0 W/m² 12,9 °C 13,8 °C 20,9 km/h (4 Bft)
29.07.2019 02:58 13,8 °C 94 % 1007,1 hPa 0,0 mm 12,8 km/h (3 Bft) W-NW 299 ° 0 min 0,000 mm 0,0 UV-I 0 W/m² 12,9 °C 13,8 °C 20,9 km/h (4 Bft)
29.07.2019 02:59 13,8 °C 94 % 1007,2 hPa 0,0 mm 9,5 km/h (2 Bft) N-NW 348 ° 0 min 0,000 mm 0,0 UV-I 0 W/m² 12,9 °C 13,8 °C 16,1 km/h (3 Bft)
29.07.2019 03:00 13,8 °C 94 % 1007,2 hPa 0,0 mm 4,5 km/h (1 Bft) W 280 ° 0 min 0,000 mm 0,0 UV-I 0 W/m² 12,9 °C 13,8 °C 9,7 km/h (2 Bft)
29.07.2019 03:01 13,8 °C 94 % 1007,2 hPa 0,0 mm 11,7 km/h (2 Bft) W 269 ° 0 min 0,000 mm 0,0 UV-I 0 W/m² 12,9 °C 13,8 °C 22,5 km/h (4 Bft)
29.07.2019 03:02 13,8 °C 94 % 1007,2 hPa 0,2 mm 9,0 km/h (2 Bft) W 268 ° 0 min 0,000 mm 0,0 UV-I 0 W/m² 12,9 °C 13,8 °C 20,9 km/h (4 Bft)
29.07.2019 03:03 13,8 °C 94 % 1007,2 hPa 0,0 mm 16,4 km/h (3 Bft) W-SW 257 ° 0 min 0,000 mm 0,0 UV-I 0 W/m² 12,9 °C 13,8 °C 20,9 km/h (4 Bft)
29.07.2019 03:04 13,8 °C 94 % 1007,2 hPa 0,0 mm 13,6 km/h (3 Bft) S-SW 212 ° 0 min 0,000 mm 0,0 UV-I 0 W/m² 12,9 °C 13,8 °C 17,7 km/h (3 Bft)
29.07.2019 03:05 13,7 °C 94 % 1007,1 hPa 0,0 mm 14,6 km/h (3 Bft) W-NW 298 ° 0 min 0,000 mm 0,0 UV-I 0 W/m² 12,8 °C 13,7 °C 22,5 km/h (4 Bft)
29.07.2019 03:06 13,7 °C 94 % 1007,2 hPa 0,0 mm 13,1 km/h (3 Bft) W-SW 240 ° 0 min 0,000 mm 0,0 UV-I 0 W/m² 12,8 °C 13,7 °C 22,5 km/h (4 Bft)
29.07.2019 03:07 13,8 °C 94 % 1007,1 hPa 0,0 mm 12,8 km/h (3 Bft) W-NW 292 ° 0 min 0,000 mm 0,0 UV-I 0 W/m² 12,9 °C 13,8 °C 24,1 km/h (4 Bft)
29.07.2019 03:08 13,8 °C 94 % 1007,2 hPa 0,0 mm 11,5 km/h (2 Bft) W-SW 251 ° 0 min 0,000 mm 0,0 UV-I 0 W/m² 12,9 °C 13,8 °C 22,5 km/h (4 Bft)
29.07.2019 03:09 13,8 °C 94 % 1007,1 hPa 0,0 mm 19,4 km/h (3 Bft) W-SW 243 ° 0 min 0,000 mm 0,0 UV-I 0 W/m² 12,9 °C 13,8 °C 30,6 km/h (5 Bft)
29.07.2019 03:10 13,7 °C 94 % 1007,2 hPa 0,0 mm 13,4 km/h (3 Bft) W-NW 284 ° 0 min 0,000 mm 0,0 UV-I 0 W/m² 12,8 °C 13,7 °C 19,3 km/h (3 Bft)
29.07.2019 03:11 13,7 °C 94 % 1007,2 hPa 0,0 mm 10,4 km/h (2 Bft) NW 304 ° 0 min 0,000 mm 0,0 UV-I 0 W/m² 12,8 °C 13,7 °C 20,9 km/h (4 Bft)
29.07.2019 03:12 13,7 °C 94 % 1007,2 hPa 0,0 mm 13,7 km/h (3 Bft) W-SW 237 ° 0 min 0,000 mm 0,0 UV-I 0 W/m² 12,8 °C 13,7 °C 17,7 km/h (3 Bft)
29.07.2019 03:13 13,7 °C 94 % 1007,2 hPa 0,0 mm 11,1 km/h (2 Bft) SW 231 ° 0 min 0,000 mm 0,0 UV-I 0 W/m² 12,8 °C 13,7 °C 16,1 km/h (3 Bft)
29.07.2019 03:14 13,7 °C 94 % 1007,2 hPa 0,0 mm 15,5 km/h (3 Bft) W 277 ° 0 min 0,000 mm 0,0 UV-I 0 W/m² 12,8 °C 13,7 °C 25,7 km/h (4 Bft)
29.07.2019 03:15 13,7 °C 94 % 1007,1 hPa 0,0 mm 13,9 km/h (3 Bft) W 274 ° 0 min 0,000 mm 0,0 UV-I 0 W/m² 12,8 °C 13,7 °C 17,7 km/h (3 Bft)
29.07.2019 03:16 13,7 °C 94 % 1007,2 hPa 0,0 mm 11,9 km/h (2 Bft) W-SW 256 ° 0 min 0,000 mm 0,0 UV-I 0 W/m² 12,8 °C 13,7 °C 16,1 km/h (3 Bft)
29.07.2019 03:17 13,7 °C 94 % 1007,2 hPa 0,0 mm 9,8 km/h (2 Bft) W 275 ° 0 min 0,000 mm 0,0 UV-I 0 W/m² 12,8 °C 13,7 °C 20,9 km/h (4 Bft)
29.07.2019 03:18 13,7 °C 94 % 1007,2 hPa 0,0 mm 14,6 km/h (3 Bft) W 277 ° 0 min 0,000 mm 0,0 UV-I 0 W/m² 12,8 °C 13,7 °C 24,1 km/h (4 Bft)
29.07.2019 03:19 13,7 °C 94 % 1007,1 hPa 0,0 mm 11,8 km/h (2 Bft) W 259 ° 0 min 0,000 mm 0,0 UV-I 0 W/m² 12,8 °C 13,7 °C 17,7 km/h (3 Bft)
29.07.2019 03:20 13,7 °C 94 % 1007,1 hPa 0,0 mm 9,2 km/h (2 Bft) W-SW 242 ° 0 min 0,000 mm 0,0 UV-I 0 W/m² 12,8 °C 13,7 °C 12,9 km/h (3 Bft)
29.07.2019 03:21 13,7 °C 94 % 1007,2 hPa 0,0 mm 7,1 km/h (2 Bft) W-NW 288 ° 0 min 0,000 mm 0,0 UV-I 0 W/m² 12,8 °C 13,7 °C 11,3 km/h (2 Bft)
29.07.2019 03:22 13,7 °C 94 % 1007,2 hPa 0,0 mm 9,3 km/h (2 Bft) W 281 ° 0 min 0,000 mm 0,0 UV-I 0 W/m² 12,8 °C 13,7 °C 16,1 km/h (3 Bft)
29.07.2019 03:23 13,7 °C 94 % 1007,2 hPa 0,0 mm 9,8 km/h (2 Bft) W 266 ° 0 min 0,000 mm 0,0 UV-I 0 W/m² 12,8 °C 13,7 °C 19,3 km/h (3 Bft)
29.07.2019 03:24 13,7 °C 94 % 1007,1 hPa 0,0 mm 13,5 km/h (3 Bft) W 275 ° 0 min 0,000 mm 0,0 UV-I 0 W/m² 12,8 °C 13,7 °C 19,3 km/h (3 Bft)
29.07.2019 03:25 13,7 °C 94 % 1007,1 hPa 0,0 mm 9,4 km/h (2 Bft) W-NW 286 ° 0 min 0,000 mm 0,0 UV-I 0 W/m² 12,8 °C 13,7 °C 20,9 km/h (4 Bft)
29.07.2019 03:26 13,7 °C 94 % 1007,1 hPa 0,0 mm 12,1 km/h (2 Bft) W-NW 290 ° 0 min 0,000 mm 0,0 UV-I 0 W/m² 12,8 °C 13,7 °C 17,7 km/h (3 Bft)
29.07.2019 03:27 13,7 °C 94 % 1007,1 hPa 0,0 mm 16,6 km/h (3 Bft) W 280 ° 0 min 0,000 mm 0,0 UV-I 0 W/m² 12,8 °C 13,7 °C 22,5 km/h (4 Bft)
29.07.2019 03:28 13,7 °C 94 % 1007,1 hPa 0,2 mm 16,0 km/h (3 Bft) W-NW 290 ° 0 min 0,000 mm 0,0 UV-I 0 W/m² 12,8 °C 13,7 °C 22,5 km/h (4 Bft)
29.07.2019 03:29 13,7 °C 94 % 1007,1 hPa 0,0 mm 12,7 km/h (3 Bft) SW 233 ° 0 min 0,000 mm 0,0 UV-I 0 W/m² 12,8 °C 13,7 °C 17,7 km/h (3 Bft)
29.07.2019 03:30 13,7 °C 94 % 1007,0 hPa 0,0 mm 8,9 km/h (2 Bft) SW 232 ° 0 min 0,000 mm 0,0 UV-I 0 W/m² 12,8 °C 13,7 °C 17,7 km/h (3 Bft)
29.07.2019 03:31 13,7 °C 94 % 1007,0 hPa 0,0 mm 13,1 km/h (3 Bft) W-SW 248 ° 0 min 0,000 mm 0,0 UV-I 0 W/m² 12,8 °C 13,7 °C 19,3 km/h (3 Bft)
29.07.2019 03:32 13,7 °C 94 % 1007,1 hPa 0,0 mm 10,5 km/h (2 Bft) W 277 ° 0 min 0,000 mm 0,0 UV-I 0 W/m² 12,8 °C 13,7 °C 24,1 km/h (4 Bft)
29.07.2019 03:33 13,7 °C 94 % 1007,1 hPa 0,0 mm 18,1 km/h (3 Bft) W-SW 243 ° 0 min 0,000 mm 0,0 UV-I 0 W/m² 12,8 °C 13,7 °C 24,1 km/h (4 Bft)
29.07.2019 03:34 13,7 °C 94 % 1007,1 hPa 0,0 mm 9,2 km/h (2 Bft) W 272 ° 0 min 0,000 mm 0,0 UV-I 0 W/m² 12,8 °C 13,7 °C 12,9 km/h (3 Bft)
29.07.2019 03:35 13,7 °C 94 % 1007,1 hPa 0,0 mm 7,0 km/h (2 Bft) W-SW 250 ° 0 min 0,000 mm 0,0 UV-I 0 W/m² 12,8 °C 13,7 °C 11,3 km/h (2 Bft)
29.07.2019 03:36 13,7 °C 94 % 1007,0 hPa 0,0 mm 7,2 km/h (2 Bft) W-SW 247 ° 0 min 0,000 mm 0,0 UV-I 0 W/m² 12,8 °C 13,7 °C 11,3 km/h (2 Bft)
29.07.2019 03:37 13,7 °C 94 % 1007,0 hPa 0,0 mm 10,7 km/h (2 Bft) W-SW 237 ° 0 min 0,000 mm 0,0 UV-I 0 W/m² 12,8 °C 13,7 °C 17,7 km/h (3 Bft)
29.07.2019 03:38 13,7 °C 94 % 1007,1 hPa 0,0 mm 16,9 km/h (3 Bft) W-SW 237 ° 0 min 0,000 mm 0,0 UV-I 0 W/m² 12,8 °C 13,7 °C 24,1 km/h (4 Bft)
29.07.2019 03:39 13,7 °C 94 % 1007,1 hPa 0,0 mm 12,8 km/h (3 Bft) W 261 ° 0 min 0,000 mm 0,0 UV-I 0 W/m² 12,8 °C 13,7 °C 20,9 km/h (4 Bft)
29.07.2019 03:40 13,7 °C 94 % 1007,1 hPa 0,0 mm 10,5 km/h (2 Bft) W-SW 251 ° 0 min 0,000 mm 0,0 UV-I 0 W/m² 12,8 °C 13,7 °C 14,5 km/h (3 Bft)
29.07.2019 03:41 13,7 °C 94 % 1007,1 hPa 0,0 mm 7,3 km/h (2 Bft) W-SW 256 ° 0 min 0,000 mm 0,0 UV-I 0 W/m² 12,8 °C 13,7 °C 12,9 km/h (3 Bft)
29.07.2019 03:42 13,7 °C 94 % 1007,1 hPa 0,0 mm 17,7 km/h (3 Bft) W 271 ° 0 min 0,000 mm 0,0 UV-I 0 W/m² 12,8 °C 13,7 °C 29,0 km/h (5 Bft)
29.07.2019 03:43 13,7 °C 94 % 1007,1 hPa 0,0 mm 18,9 km/h (3 Bft) W-SW 251 ° 0 min 0,000 mm 0,0 UV-I 0 W/m² 12,8 °C 13,7 °C 25,7 km/h (4 Bft)
29.07.2019 03:44 13,6 °C 94 % 1007,1 hPa 0,0 mm 11,3 km/h (2 Bft) W-SW 258 ° 0 min 0,000 mm 0,0 UV-I 0 W/m² 12,7 °C 13,6 °C 17,7 km/h (3 Bft)
29.07.2019 03:45 13,6 °C 94 % 1007,0 hPa 0,0 mm 16,4 km/h (3 Bft) W 260 ° 0 min 0,000 mm 0,0 UV-I 0 W/m² 12,7 °C 13,6 °C 20,9 km/h (4 Bft)
29.07.2019 03:46 13,6 °C 94 % 1007,0 hPa 0,0 mm 10,2 km/h (2 Bft) SW 224 ° 0 min 0,000 mm 0,0 UV-I 0 W/m² 12,7 °C 13,6 °C 17,7 km/h (3 Bft)
29.07.2019 03:47 13,7 °C 94 % 1007,1 hPa 0,0 mm 6,3 km/h (2 Bft) W 271 ° 0 min 0,000 mm 0,0 UV-I 0 W/m² 12,8 °C 13,7 °C 11,3 km/h (2 Bft)
29.07.2019 03:48 13,7 °C 94 % 1007,0 hPa 0,0 mm 13,1 km/h (3 Bft) W-SW 247 ° 0 min 0,000 mm 0,0 UV-I 0 W/m² 12,8 °C 13,7 °C 24,1 km/h (4 Bft)
29.07.2019 03:49 13,7 °C 94 % 1007,1 hPa 0,0 mm 11,5 km/h (2 Bft) W-NW 288 ° 0 min 0,000 mm 0,0 UV-I 0 W/m² 12,8 °C 13,7 °C 17,7 km/h (3 Bft)
29.07.2019 03:50 13,7 °C 94 % 1007,1 hPa 0,2 mm 12,2 km/h (2 Bft) W 273 ° 0 min 0,000 mm 0,0 UV-I 0 W/m² 12,8 °C 13,7 °C 20,9 km/h (4 Bft)
29.07.2019 03:51 13,7 °C 94 % 1007,1 hPa 0,0 mm 9,1 km/h (2 Bft) NW 313 ° 0 min 0,000 mm 0,0 UV-I 0 W/m² 12,8 °C 13,7 °C 17,7 km/h (3 Bft)
29.07.2019 03:52 13,6 °C 94 % 1007,1 hPa 0,0 mm 7,7 km/h (2 Bft) W 259 ° 0 min 0,000 mm 0,0 UV-I 0 W/m² 12,7 °C 13,6 °C 16,1 km/h (3 Bft)
29.07.2019 03:53 13,6 °C 94 % 1007,1 hPa 0,0 mm 9,4 km/h (2 Bft) W 259 ° 0 min 0,000 mm 0,0 UV-I 0 W/m² 12,7 °C 13,6 °C 12,9 km/h (3 Bft)
29.07.2019 03:54 13,6 °C 94 % 1007,1 hPa 0,0 mm 9,9 km/h (2 Bft) SW 234 ° 0 min 0,000 mm 0,0 UV-I 0 W/m² 12,7 °C 13,6 °C 16,1 km/h (3 Bft)
29.07.2019 03:55 13,6 °C 94 % 1007,1 hPa 0,0 mm 7,6 km/h (2 Bft) W 262 ° 0 min 0,000 mm 0,0 UV-I 0 W/m² 12,7 °C 13,6 °C 14,5 km/h (3 Bft)
29.07.2019 03:56 13,6 °C 94 % 1007,1 hPa 0,0 mm 8,6 km/h (2 Bft) W 277 ° 0 min 0,000 mm 0,0 UV-I 0 W/m² 12,7 °C 13,6 °C 17,7 km/h (3 Bft)
29.07.2019 03:57 13,6 °C 94 % 1007,0 hPa 0,0 mm 9,1 km/h (2 Bft) W 259 ° 0 min 0,000 mm 0,0 UV-I 0 W/m² 12,7 °C 13,6 °C 16,1 km/h (3 Bft)
29.07.2019 03:58 13,6 °C 94 % 1007,0 hPa 0,0 mm 8,9 km/h (2 Bft) W 280 ° 0 min 0,000 mm 0,0 UV-I 0 W/m² 12,7 °C 13,6 °C 17,7 km/h (3 Bft)
29.07.2019 03:59 13,6 °C 94 % 1007,1 hPa 0,0 mm 12,9 km/h (3 Bft) W 279 ° 0 min 0,000 mm 0,0 UV-I 0 W/m² 12,7 °C 13,6 °C 19,3 km/h (3 Bft)
29.07.2019 04:00 13,6 °C 94 % 1007,1 hPa 0,0 mm 13,5 km/h (3 Bft) W 281 ° 0 min 0,000 mm 0,0 UV-I 0 W/m² 12,7 °C 13,6 °C 17,7 km/h (3 Bft)
29.07.2019 04:01 13,6 °C 94 % 1007,1 hPa 0,0 mm 15,1 km/h (3 Bft) W 269 ° 0 min 0,000 mm 0,0 UV-I 0 W/m² 12,7 °C 13,6 °C 19,3 km/h (3 Bft)
29.07.2019 04:02 13,6 °C 94 % 1007,1 hPa 0,0 mm 10,7 km/h (2 Bft) W 272 ° 0 min 0,000 mm 0,0 UV-I 0 W/m² 12,7 °C 13,6 °C 19,3 km/h (3 Bft)
29.07.2019 04:03 13,6 °C 94 % 1007,1 hPa 0,0 mm 10,3 km/h (2 Bft) W 263 ° 0 min 0,000 mm 0,0 UV-I 0 W/m² 12,7 °C 13,6 °C 12,9 km/h (3 Bft)
29.07.2019 04:04 13,6 °C 94 % 1007,1 hPa 0,0 mm 8,6 km/h (2 Bft) S-SW 210 ° 0 min 0,000 mm 0,0 UV-I 0 W/m² 12,7 °C 13,6 °C 12,9 km/h (3 Bft)
29.07.2019 04:05 13,6 °C 94 % 1007,0 hPa 0,0 mm 7,8 km/h (2 Bft) W-NW 285 ° 0 min 0,000 mm 0,0 UV-I 0 W/m² 12,7 °C 13,6 °C 12,9 km/h (3 Bft)
29.07.2019 04:06 13,6 °C 94 % 1007,1 hPa 0,2 mm 11,0 km/h (2 Bft) NW 306 ° 0 min 0,000 mm 0,0 UV-I 0 W/m² 12,7 °C 13,6 °C 16,1 km/h (3 Bft)
29.07.2019 04:07 13,6 °C 94 % 1007,1 hPa 0,0 mm 14,7 km/h (3 Bft) W-SW 257 ° 0 min 0,000 mm 0,0 UV-I 0 W/m² 12,7 °C 13,6 °C 17,7 km/h (3 Bft)
29.07.2019 04:08 13,6 °C 94 % 1007,1 hPa 0,0 mm 8,6 km/h (2 Bft) W 267 ° 0 min 0,000 mm 0,0 UV-I 0 W/m² 12,7 °C 13,6 °C 17,7 km/h (3 Bft)
29.07.2019 04:09 13,6 °C 94 % 1007,1 hPa 0,0 mm 10,3 km/h (2 Bft) W-NW 286 ° 0 min 0,000 mm 0,0 UV-I 0 W/m² 12,7 °C 13,6 °C 16,1 km/h (3 Bft)
29.07.2019 04:10 13,6 °C 94 % 1007,1 hPa 0,0 mm 7,8 km/h (2 Bft) NW 310 ° 0 min 0,000 mm 0,0 UV-I 0 W/m² 12,7 °C 13,6 °C 16,1 km/h (3 Bft)
29.07.2019 04:11 13,6 °C 94 % 1007,1 hPa 0,0 mm 19,0 km/h (3 Bft) W 276 ° 0 min 0,000 mm 0,0 UV-I 0 W/m² 12,7 °C 13,6 °C 29,0 km/h (5 Bft)
29.07.2019 04:12 13,6 °C 94 % 1007,1 hPa 0,0 mm 14,6 km/h (3 Bft) W 266 ° 0 min 0,000 mm 0,0 UV-I 0 W/m² 12,7 °C 13,6 °C 17,7 km/h (3 Bft)
29.07.2019 04:13 13,6 °C 94 % 1007,1 hPa 0,0 mm 10,8 km/h (2 Bft) W-NW 287 ° 0 min 0,000 mm 0,0 UV-I 0 W/m² 12,7 °C 13,6 °C 17,7 km/h (3 Bft)
29.07.2019 04:14 13,6 °C 94 % 1007,1 hPa 0,0 mm 13,3 km/h (3 Bft) W 267 ° 0 min 0,000 mm 0,0 UV-I 0 W/m² 12,7 °C 13,6 °C 19,3 km/h (3 Bft)
29.07.2019 04:15 13,6 °C 94 % 1007,0 hPa 0,0 mm 13,5 km/h (3 Bft) SW 225 ° 0 min 0,000 mm 0,0 UV-I 0 W/m² 12,7 °C 13,6 °C 22,5 km/h (4 Bft)
29.07.2019 04:16 13,6 °C 94 % 1007,0 hPa 0,0 mm 11,3 km/h (2 Bft) W 279 ° 0 min 0,000 mm 0,0 UV-I 0 W/m² 12,7 °C 13,6 °C 17,7 km/h (3 Bft)
29.07.2019 04:17 13,6 °C 94 % 1007,0 hPa 0,0 mm 13,8 km/h (3 Bft) W 270 ° 0 min 0,000 mm 0,0 UV-I 0 W/m² 12,7 °C 13,6 °C 19,3 km/h (3 Bft)
29.07.2019 04:18 13,6 °C 94 % 1007,0 hPa 0,0 mm 9,6 km/h (2 Bft) W-SW 252 ° 0 min 0,000 mm 0,0 UV-I 0 W/m² 12,7 °C 13,6 °C 19,3 km/h (3 Bft)
29.07.2019 04:19 13,6 °C 94 % 1007,1 hPa 0,0 mm 7,7 km/h (2 Bft) W 277 ° 0 min 0,000 mm 0,0 UV-I 0 W/m² 12,7 °C 13,6 °C 12,9 km/h (3 Bft)
29.07.2019 04:20 13,6 °C 94 % 1007,0 hPa 0,0 mm 9,3 km/h (2 Bft) SW 227 ° 0 min 0,000 mm 0,0 UV-I 0 W/m² 12,7 °C 13,6 °C 14,5 km/h (3 Bft)
29.07.2019 04:21 13,6 °C 94 % 1007,1 hPa 0,0 mm 10,8 km/h (2 Bft) W-NW 302 ° 0 min 0,000 mm 0,0 UV-I 0 W/m² 12,7 °C 13,6 °C 16,1 km/h (3 Bft)
29.07.2019 04:22 13,6 °C 94 % 1007,1 hPa 0,0 mm 18,3 km/h (3 Bft) W-NW 283 ° 0 min 0,000 mm 0,0 UV-I 0 W/m² 12,7 °C 13,6 °C 29,0 km/h (5 Bft)
29.07.2019 04:23 13,6 °C 94 % 1007,0 hPa 0,0 mm 14,8 km/h (3 Bft) W 268 ° 0 min 0,000 mm 0,0 UV-I 0 W/m² 12,7 °C 13,6 °C 24,1 km/h (4 Bft)
29.07.2019 04:24 13,6 °C 94 % 1007,1 hPa 0,0 mm 9,9 km/h (2 Bft) W-SW 248 ° 0 min 0,000 mm 0,0 UV-I 0 W/m² 12,7 °C 13,6 °C 16,1 km/h (3 Bft)
29.07.2019 04:25 13,6 °C 94 % 1007,1 hPa 0,0 mm 3,5 km/h (1 Bft) W-SW 257 ° 0 min 0,000 mm 0,0 UV-I 0 W/m² 12,7 °C 13,6 °C 6,4 km/h (2 Bft)
29.07.2019 04:26 13,6 °C 94 % 1007,1 hPa 0,0 mm 5,2 km/h (1 Bft) W 271 ° 0 min 0,000 mm 0,0 UV-I 0 W/m² 12,7 °C 13,6 °C 9,7 km/h (2 Bft)
29.07.2019 04:27 13,6 °C 94 % 1007,1 hPa 0,0 mm 7,0 km/h (2 Bft) W 259 ° 0 min 0,000 mm 0,0 UV-I 0 W/m² 12,7 °C 13,6 °C 12,9 km/h (3 Bft)
29.07.2019 04:28 13,6 °C 94 % 1007,1 hPa 0,0 mm 10,9 km/h (2 Bft) SW 215 ° 0 min 0,000 mm 0,0 UV-I 0 W/m² 12,7 °C 13,6 °C 17,7 km/h (3 Bft)
29.07.2019 04:29 13,6 °C 94 % 1007,1 hPa 0,0 mm 11,5 km/h (2 Bft) SW 215 ° 0 min 0,000 mm 0,0 UV-I 0 W/m² 12,7 °C 13,6 °C 19,3 km/h (3 Bft)
29.07.2019 04:30 13,6 °C 94 % 1007,1 hPa 0,0 mm 14,8 km/h (3 Bft) SW 232 ° 0 min 0,000 mm 0,0 UV-I 0 W/m² 12,7 °C 13,6 °C 20,9 km/h (4 Bft)
29.07.2019 04:31 13,6 °C 94 % 1007,1 hPa 0,0 mm 9,7 km/h (2 Bft) W-SW 248 ° 0 min 0,000 mm 0,0 UV-I 0 W/m² 12,7 °C 13,6 °C 16,1 km/h (3 Bft)
29.07.2019 04:32 13,6 °C 94 % 1007,1 hPa 0,0 mm 11,9 km/h (2 Bft) W-NW 284 ° 0 min 0,000 mm 0,0 UV-I 0 W/m² 12,7 °C 13,6 °C 14,5 km/h (3 Bft)
29.07.2019 04:33 13,6 °C 94 % 1007,1 hPa 0,0 mm 14,8 km/h (3 Bft) W-SW 258 ° 0 min 0,000 mm 0,0 UV-I 0 W/m² 12,7 °C 13,6 °C 19,3 km/h (3 Bft)
29.07.2019 04:34 13,6 °C 94 % 1007,1 hPa 0,0 mm 10,9 km/h (2 Bft) SW 218 ° 0 min 0,000 mm 0,0 UV-I 0 W/m² 12,7 °C 13,6 °C 19,3 km/h (3 Bft)
29.07.2019 04:35 13,6 °C 94 % 1007,1 hPa 0,0 mm 7,6 km/h (2 Bft) W 277 ° 0 min 0,000 mm 0,0 UV-I 0 W/m² 12,7 °C 13,6 °C 16,1 km/h (3 Bft)
29.07.2019 04:36 13,6 °C 94 % 1007,1 hPa 0,0 mm 9,7 km/h (2 Bft) SW 225 ° 0 min 0,000 mm 0,0 UV-I 0 W/m² 12,7 °C 13,6 °C 12,9 km/h (3 Bft)
29.07.2019 04:37 13,6 °C 94 % 1007,1 hPa 0,0 mm 13,8 km/h (3 Bft) W-SW 254 ° 0 min 0,000 mm 0,0 UV-I 0 W/m² 12,7 °C 13,6 °C 19,3 km/h (3 Bft)
29.07.2019 04:38 13,6 °C 94 % 1007,2 hPa 0,0 mm 8,3 km/h (2 Bft) W-SW 248 ° 0 min 0,000 mm 0,0 UV-I 0 W/m² 12,7 °C 13,6 °C 17,7 km/h (3 Bft)
29.07.2019 04:39 13,6 °C 94 % 1007,2 hPa 0,0 mm 6,8 km/h (2 Bft) W 268 ° 0 min 0,000 mm 0,0 UV-I 0 W/m² 12,7 °C 13,6 °C 11,3 km/h (2 Bft)
29.07.2019 04:40 13,6 °C 94 % 1007,1 hPa 0,0 mm 14,1 km/h (3 Bft) W 271 ° 0 min 0,000 mm 0,0 UV-I 0 W/m² 12,7 °C 13,6 °C 27,4 km/h (4 Bft)
29.07.2019 04:41 13,6 °C 94 % 1007,2 hPa 0,0 mm 14,5 km/h (3 Bft) W 261 ° 0 min 0,000 mm 0,0 UV-I 0 W/m² 12,7 °C 13,6 °C 17,7 km/h (3 Bft)
29.07.2019 04:42 13,6 °C 94 % 1007,1 hPa 0,0 mm 11,2 km/h (2 Bft) W 277 ° 0 min 0,000 mm 0,0 UV-I 0 W/m² 12,7 °C 13,6 °C 16,1 km/h (3 Bft)
29.07.2019 04:43 13,6 °C 94 % 1007,1 hPa 0,0 mm 10,5 km/h (2 Bft) W 263 ° 0 min 0,000 mm 0,0 UV-I 0 W/m² 12,7 °C 13,6 °C 12,9 km/h (3 Bft)
29.07.2019 04:44 13,6 °C 94 % 1007,2 hPa 0,0 mm 6,0 km/h (2 Bft) N-NW 340 ° 0 min 0,000 mm 0,0 UV-I 0 W/m² 12,7 °C 13,6 °C 11,3 km/h (2 Bft)
29.07.2019 04:45 13,6 °C 94 % 1007,2 hPa 0,0 mm 11,3 km/h (2 Bft) W 281 ° 0 min 0,000 mm 0,0 UV-I 0 W/m² 12,7 °C 13,6 °C 16,1 km/h (3 Bft)
29.07.2019 04:46 13,6 °C 94 % 1007,2 hPa 0,0 mm 7,4 km/h (2 Bft) W 271 ° 0 min 0,000 mm 0,0 UV-I 0 W/m² 12,7 °C 13,6 °C 11,3 km/h (2 Bft)
29.07.2019 04:47 13,6 °C 94 % 1007,2 hPa 0,0 mm 10,7 km/h (2 Bft) W-SW 254 ° 0 min 0,000 mm 0,0 UV-I 0 W/m² 12,7 °C 13,6 °C 19,3 km/h (3 Bft)
29.07.2019 04:48 13,6 °C 94 % 1007,2 hPa 0,0 mm 15,2 km/h (3 Bft) S-SW 205 ° 0 min 0,000 mm 0,0 UV-I 0 W/m² 12,7 °C 13,6 °C 20,9 km/h (4 Bft)
29.07.2019 04:49 13,6 °C 94 % 1007,2 hPa 0,0 mm 12,1 km/h (2 Bft) W 276 ° 0 min 0,000 mm 0,0 UV-I 0 W/m² 12,7 °C 13,6 °C 16,1 km/h (3 Bft)
29.07.2019 04:50 13,6 °C 94 % 1007,2 hPa 0,0 mm 9,0 km/h (2 Bft) W-SW 258 ° 0 min 0,000 mm 0,0 UV-I 0 W/m² 12,7 °C 13,6 °C 17,7 km/h (3 Bft)
29.07.2019 04:51 13,6 °C 94 % 1007,2 hPa 0,0 mm 6,3 km/h (2 Bft) W-SW 239 ° 0 min 0,000 mm 0,0 UV-I 0 W/m² 12,7 °C 13,6 °C 9,7 km/h (2 Bft)
29.07.2019 04:52 13,6 °C 94 % 1007,2 hPa 0,0 mm 10,5 km/h (2 Bft) W 260 ° 0 min 0,000 mm 0,0 UV-I 0 W/m² 12,7 °C 13,6 °C 19,3 km/h (3 Bft)
29.07.2019 04:53 13,6 °C 94 % 1007,2 hPa 0,0 mm 6,3 km/h (2 Bft) W 263 ° 0 min 0,000 mm 0,0 UV-I 0 W/m² 12,7 °C 13,6 °C 11,3 km/h (2 Bft)
29.07.2019 04:54 13,6 °C 94 % 1007,2 hPa 0,0 mm 3,3 km/h (1 Bft) W 263 ° 0 min 0,000 mm 0,0 UV-I 0 W/m² 12,7 °C 13,6 °C 6,4 km/h (2 Bft)
29.07.2019 04:55 13,6 °C 94 % 1007,2 hPa 0,0 mm 9,1 km/h (2 Bft) W 270 ° 0 min 0,000 mm 0,0 UV-I 0 W/m² 12,7 °C 13,6 °C 14,5 km/h (3 Bft)
29.07.2019 04:56 13,6 °C 94 % 1007,2 hPa 0,0 mm 10,8 km/h (2 Bft) W 281 ° 0 min 0,000 mm 0,0 UV-I 0 W/m² 12,7 °C 13,6 °C 17,7 km/h (3 Bft)
29.07.2019 04:57 13,6 °C 94 % 1007,2 hPa 0,0 mm 6,7 km/h (2 Bft) W-NW 299 ° 0 min 0,000 mm 0,0 UV-I 0 W/m² 12,7 °C 13,6 °C 11,3 km/h (2 Bft)
29.07.2019 04:58 13,6 °C 94 % 1007,2 hPa 0,0 mm 5,3 km/h (1 Bft) W-SW 255 ° 0 min 0,000 mm 0,0 UV-I 0 W/m² 12,7 °C 13,6 °C 11,3 km/h (2 Bft)
29.07.2019 04:59 13,6 °C 94 % 1007,2 hPa 0,0 mm 4,1 km/h (1 Bft) W 259 ° 0 min 0,000 mm 0,0 UV-I 0 W/m² 12,7 °C 13,6 °C 9,7 km/h (2 Bft)
29.07.2019 05:00 13,6 °C 94 % 1007,2 hPa 0,0 mm 11,3 km/h (2 Bft) W 267 ° 0 min 0,000 mm 0,0 UV-I 0 W/m² 12,7 °C 13,6 °C 16,1 km/h (3 Bft)
29.07.2019 05:01 13,6 °C 94 % 1007,2 hPa 0,0 mm 6,0 km/h (2 Bft) W-NW 297 ° 0 min 0,000 mm 0,0 UV-I 0 W/m² 12,7 °C 13,6 °C 12,9 km/h (3 Bft)
29.07.2019 05:02 13,6 °C 94 % 1007,2 hPa 0,0 mm 7,7 km/h (2 Bft) NW 311 ° 0 min 0,000 mm 0,0 UV-I 0 W/m² 12,7 °C 13,6 °C 12,9 km/h (3 Bft)
29.07.2019 05:03 13,6 °C 94 % 1007,2 hPa 0,0 mm 8,2 km/h (2 Bft) W-SW 238 ° 0 min 0,000 mm 0,0 UV-I 0 W/m² 12,7 °C 13,6 °C 16,1 km/h (3 Bft)
29.07.2019 05:04 13,6 °C 94 % 1007,2 hPa 0,0 mm 6,4 km/h (2 Bft) W-SW 252 ° 0 min 0,000 mm 0,0 UV-I 0 W/m² 12,7 °C 13,6 °C 12,9 km/h (3 Bft)
29.07.2019 05:05 13,6 °C 94 % 1007,3 hPa 0,0 mm 9,4 km/h (2 Bft) W 271 ° 0 min 0,000 mm 0,0 UV-I 0 W/m² 12,7 °C 13,6 °C 14,5 km/h (3 Bft)
29.07.2019 05:06 13,6 °C 94 % 1007,3 hPa 0,0 mm 8,8 km/h (2 Bft) W-NW 292 ° 0 min 0,000 mm 0,0 UV-I 0 W/m² 12,7 °C 13,6 °C 12,9 km/h (3 Bft)
29.07.2019 05:07 13,6 °C 94 % 1007,3 hPa 0,0 mm 13,1 km/h (3 Bft) W-SW 256 ° 0 min 0,000 mm 0,0 UV-I 0 W/m² 12,7 °C 13,6 °C 19,3 km/h (3 Bft)
29.07.2019 05:08 13,6 °C 94 % 1007,3 hPa 0,0 mm 13,2 km/h (3 Bft) W-SW 250 ° 0 min 0,000 mm 0,0 UV-I 0 W/m² 12,7 °C 13,6 °C 20,9 km/h (4 Bft)
29.07.2019 05:09 13,6 °C 94 % 1007,4 hPa 0,2 mm 11,8 km/h (2 Bft) W 280 ° 0 min 0,000 mm 0,0 UV-I 0 W/m² 12,7 °C 13,6 °C 17,7 km/h (3 Bft)
29.07.2019 05:10 13,6 °C 94 % 1007,3 hPa 0,0 mm 4,2 km/h (1 Bft) W 267 ° 0 min 0,000 mm 0,0 UV-I 0 W/m² 12,7 °C 13,6 °C 9,7 km/h (2 Bft)
29.07.2019 05:11 13,6 °C 94 % 1007,3 hPa 0,0 mm 13,0 km/h (3 Bft) W-SW 254 ° 0 min 0,000 mm 0,0 UV-I 0 W/m² 12,7 °C 13,6 °C 22,5 km/h (4 Bft)
29.07.2019 05:12 13,6 °C 94 % 1007,4 hPa 0,0 mm 13,1 km/h (3 Bft) NW 306 ° 0 min 0,000 mm 0,0 UV-I 0 W/m² 12,7 °C 13,6 °C 20,9 km/h (4 Bft)
29.07.2019 05:13 13,6 °C 94 % 1007,4 hPa 0,0 mm 14,2 km/h (3 Bft) W 265 ° 0 min 0,000 mm 0,0 UV-I 0 W/m² 12,7 °C 13,6 °C 22,5 km/h (4 Bft)
29.07.2019 05:14 13,5 °C 94 % 1007,3 hPa 0,0 mm 17,1 km/h (3 Bft) W 264 ° 0 min 0,000 mm 0,0 UV-I 0 W/m² 12,6 °C 13,5 °C 20,9 km/h (4 Bft)
29.07.2019 05:15 13,6 °C 94 % 1007,3 hPa 0,0 mm 13,6 km/h (3 Bft) NW 311 ° 0 min 0,000 mm 0,0 UV-I 0 W/m² 12,7 °C 13,6 °C 20,9 km/h (4 Bft)
29.07.2019 05:16 13,5 °C 94 % 1007,3 hPa 0,0 mm 15,9 km/h (3 Bft) W 274 ° 0 min 0,000 mm 0,0 UV-I 0 W/m² 12,6 °C 13,5 °C 24,1 km/h (4 Bft)
29.07.2019 05:17 13,5 °C 94 % 1007,4 hPa 0,0 mm 10,0 km/h (2 Bft) W-NW 283 ° 0 min 0,000 mm 0,0 UV-I 0 W/m² 12,6 °C 13,5 °C 20,9 km/h (4 Bft)
29.07.2019 05:18 13,5 °C 94 % 1007,4 hPa 0,0 mm 12,5 km/h (3 Bft) W-SW 258 ° 0 min 0,000 mm 0,0 UV-I 0 W/m² 12,6 °C 13,5 °C 16,1 km/h (3 Bft)
29.07.2019 05:19 13,5 °C 94 % 1007,4 hPa 0,0 mm 10,0 km/h (2 Bft) W-NW 288 ° 0 min 0,000 mm 0,0 UV-I 0 W/m² 12,6 °C 13,5 °C 14,5 km/h (3 Bft)
29.07.2019 05:20 13,5 °C 94 % 1007,4 hPa 0,0 mm 8,1 km/h (2 Bft) W-NW 299 ° 0 min 0,000 mm 0,0 UV-I 0 W/m² 12,6 °C 13,5 °C 12,9 km/h (3 Bft)
29.07.2019 05:21 13,5 °C 94 % 1007,4 hPa 0,0 mm 11,9 km/h (2 Bft) W 262 ° 0 min 0,000 mm 0,0 UV-I 0 W/m² 12,6 °C 13,5 °C 17,7 km/h (3 Bft)
29.07.2019 05:22 13,5 °C 94 % 1007,4 hPa 0,0 mm 7,0 km/h (2 Bft) NW 304 ° 0 min 0,000 mm 0,0 UV-I 0 W/m² 12,6 °C 13,5 °C 12,9 km/h (3 Bft)
29.07.2019 05:23 13,5 °C 94 % 1007,4 hPa 0,0 mm 9,4 km/h (2 Bft) W 267 ° 0 min 0,000 mm 0,0 UV-I 0 W/m² 12,6 °C 13,5 °C 14,5 km/h (3 Bft)
29.07.2019 05:24 13,5 °C 94 % 1007,4 hPa 0,0 mm 10,1 km/h (2 Bft) W-SW 257 ° 0 min 0,000 mm 0,0 UV-I 0 W/m² 12,6 °C 13,5 °C 16,1 km/h (3 Bft)
29.07.2019 05:25 13,5 °C 94 % 1007,4 hPa 0,0 mm 9,0 km/h (2 Bft) W 271 ° 0 min 0,000 mm 0,0 UV-I 0 W/m² 12,6 °C 13,5 °C 16,1 km/h (3 Bft)
29.07.2019 05:26 13,5 °C 94 % 1007,4 hPa 0,0 mm 9,9 km/h (2 Bft) W 261 ° 0 min 0,000 mm 0,0 UV-I 0 W/m² 12,6 °C 13,5 °C 16,1 km/h (3 Bft)
29.07.2019 05:27 13,5 °C 94 % 1007,4 hPa 0,0 mm 10,2 km/h (2 Bft) W 265 ° 0 min 0,000 mm 0,0 UV-I 0 W/m² 12,6 °C 13,5 °C 14,5 km/h (3 Bft)
29.07.2019 05:28 13,5 °C 94 % 1007,4 hPa 0,0 mm 11,8 km/h (2 Bft) W 275 ° 0 min 0,000 mm 0,0 UV-I 0 W/m² 12,6 °C 13,5 °C 19,3 km/h (3 Bft)
29.07.2019 05:29 13,5 °C 94 % 1007,4 hPa 0,0 mm 9,5 km/h (2 Bft) W 278 ° 0 min 0,000 mm 0,0 UV-I 0 W/m² 12,6 °C 13,5 °C 14,5 km/h (3 Bft)
29.07.2019 05:30 13,5 °C 94 % 1007,4 hPa 0,0 mm 12,7 km/h (3 Bft) W 267 ° 0 min 0,000 mm 0,0 UV-I 0 W/m² 12,6 °C 13,5 °C 19,3 km/h (3 Bft)
29.07.2019 05:31 13,5 °C 94 % 1007,5 hPa 0,0 mm 14,4 km/h (3 Bft) W 261 ° 0 min 0,000 mm 0,0 UV-I 0 W/m² 12,6 °C 13,5 °C 22,5 km/h (4 Bft)
29.07.2019 05:32 13,5 °C 94 % 1007,5 hPa 0,0 mm 17,9 km/h (3 Bft) W 265 ° 0 min 0,000 mm 0,0 UV-I 0 W/m² 12,6 °C 13,5 °C 22,5 km/h (4 Bft)
29.07.2019 05:33 13,5 °C 94 % 1007,5 hPa 0,0 mm 13,5 km/h (3 Bft) W 270 ° 0 min 0,000 mm 0,0 UV-I 0 W/m² 12,6 °C 13,5 °C 22,5 km/h (4 Bft)
29.07.2019 05:34 13,5 °C 94 % 1007,5 hPa 0,0 mm 12,3 km/h (3 Bft) W-SW 244 ° 0 min 0,000 mm 0,0 UV-I 0 W/m² 12,6 °C 13,5 °C 16,1 km/h (3 Bft)
29.07.2019 05:35 13,5 °C 94 % 1007,5 hPa 0,0 mm 5,5 km/h (1 Bft) W-NW 290 ° 0 min 0,000 mm 0,0 UV-I 0 W/m² 12,6 °C 13,5 °C 11,3 km/h (2 Bft)
29.07.2019 05:36 13,5 °C 94 % 1007,5 hPa 0,0 mm 4,6 km/h (1 Bft) NW 311 ° 0 min 0,000 mm 0,0 UV-I 0 W/m² 12,6 °C 13,5 °C 6,4 km/h (2 Bft)
29.07.2019 05:37 13,5 °C 94 % 1007,5 hPa 0,0 mm 6,7 km/h (2 Bft) W-SW 253 ° 0 min 0,000 mm 0,0 UV-I 0 W/m² 12,6 °C 13,5 °C 12,9 km/h (3 Bft)
29.07.2019 05:38 13,5 °C 94 % 1007,6 hPa 0,0 mm 9,8 km/h (2 Bft) W 263 ° 0 min 0,000 mm 0,0 UV-I 0 W/m² 12,6 °C 13,5 °C 12,9 km/h (3 Bft)
29.07.2019 05:39 13,5 °C 94 % 1007,6 hPa 0,2 mm 13,1 km/h (3 Bft) W 261 ° 0 min 0,000 mm 0,0 UV-I 0 W/m² 12,6 °C 13,5 °C 20,9 km/h (4 Bft)
29.07.2019 05:40 13,5 °C 94 % 1007,6 hPa 0,0 mm 17,7 km/h (3 Bft) W 276 ° 0 min 0,000 mm 0,0 UV-I 0 W/m² 12,6 °C 13,5 °C 22,5 km/h (4 Bft)
29.07.2019 05:41 13,5 °C 94 % 1007,5 hPa 0,0 mm 11,4 km/h (2 Bft) W-SW 250 ° 0 min 0,000 mm 0,0 UV-I 0 W/m² 12,6 °C 13,5 °C 20,9 km/h (4 Bft)
29.07.2019 05:42 13,4 °C 94 % 1007,5 hPa 0,0 mm 6,9 km/h (2 Bft) W-SW 244 ° 0 min 0,000 mm 0,0 UV-I 0 W/m² 12,5 °C 13,4 °C 14,5 km/h (3 Bft)
29.07.2019 05:43 13,4 °C 94 % 1007,5 hPa 0,0 mm 12,7 km/h (3 Bft) W-NW 286 ° 0 min 0,000 mm 0,0 UV-I 0 W/m² 12,5 °C 13,4 °C 17,7 km/h (3 Bft)
29.07.2019 05:44 13,5 °C 94 % 1007,6 hPa 0,0 mm 7,6 km/h (2 Bft) W 280 ° 0 min 0,000 mm 0,0 UV-I 0 W/m² 12,6 °C 13,5 °C 12,9 km/h (3 Bft)
29.07.2019 05:45 13,4 °C 94 % 1007,6 hPa 0,0 mm 3,8 km/h (1 Bft) W-SW 238 ° 0 min 0,000 mm 0,0 UV-I 0 W/m² 12,5 °C 13,4 °C 6,4 km/h (2 Bft)
29.07.2019 05:46 13,5 °C 94 % 1007,6 hPa 0,0 mm 7,6 km/h (2 Bft) W-SW 247 ° 0 min 0,000 mm 0,0 UV-I 0 W/m² 12,6 °C 13,5 °C 12,9 km/h (3 Bft)
29.07.2019 05:47 13,4 °C 94 % 1007,5 hPa 0,0 mm 6,2 km/h (2 Bft) W 262 ° 0 min 0,000 mm 0,0 UV-I 0 W/m² 12,5 °C 13,4 °C 11,3 km/h (2 Bft)
29.07.2019 05:48 13,4 °C 94 % 1007,5 hPa 0,0 mm 6,4 km/h (2 Bft) W 261 ° 0 min 0,000 mm 0,0 UV-I 0 W/m² 12,5 °C 13,4 °C 12,9 km/h (3 Bft)
29.07.2019 05:49 13,4 °C 94 % 1007,6 hPa 0,0 mm 5,4 km/h (1 Bft) W 263 ° 0 min 0,000 mm 0,0 UV-I 0 W/m² 12,5 °C 13,4 °C 11,3 km/h (2 Bft)
29.07.2019 05:50 13,4 °C 94 % 1007,6 hPa 0,0 mm 8,9 km/h (2 Bft) W 281 ° 0 min 0,000 mm 0,0 UV-I 0 W/m² 12,5 °C 13,4 °C 14,5 km/h (3 Bft)
29.07.2019 05:51 13,4 °C 94 % 1007,6 hPa 0,0 mm 9,4 km/h (2 Bft) W-SW 249 ° 0 min 0,000 mm 0,0 UV-I 0 W/m² 12,5 °C 13,4 °C 12,9 km/h (3 Bft)
29.07.2019 05:52 13,4 °C 94 % 1007,6 hPa 0,0 mm 8,0 km/h (2 Bft) NW 306 ° 0 min 0,000 mm 0,0 UV-I 0 W/m² 12,5 °C 13,4 °C 14,5 km/h (3 Bft)
29.07.2019 05:53 13,4 °C 94 % 1007,6 hPa 0,0 mm 6,4 km/h (2 Bft) W-SW 238 ° 0 min 0,000 mm 0,0 UV-I 0 W/m² 12,5 °C 13,4 °C 11,3 km/h (2 Bft)
29.07.2019 05:54 13,4 °C 94 % 1007,7 hPa 0,0 mm 7,2 km/h (2 Bft) W 265 ° 0 min 0,000 mm 0,0 UV-I 0 W/m² 12,5 °C 13,4 °C 12,9 km/h (3 Bft)
29.07.2019 05:55 13,4 °C 94 % 1007,7 hPa 0,0 mm 11,7 km/h (2 Bft) W 267 ° 0 min 0,000 mm 0,0 UV-I 0 W/m² 12,5 °C 13,4 °C 17,7 km/h (3 Bft)
29.07.2019 05:56 13,4 °C 94 % 1007,7 hPa 0,0 mm 10,9 km/h (2 Bft) W-SW 250 ° 0 min 0,000 mm 0,0 UV-I 0 W/m² 12,5 °C 13,4 °C 16,1 km/h (3 Bft)
29.07.2019 05:57 13,4 °C 94 % 1007,7 hPa 0,0 mm 6,2 km/h (2 Bft) S-SO 159 ° 0 min 0,000 mm 0,0 UV-I 0 W/m² 12,5 °C 13,4 °C 9,7 km/h (2 Bft)
29.07.2019 05:58 13,4 °C 94 % 1007,7 hPa 0,0 mm 2,3 km/h (1 Bft) W 268 ° 0 min 0,000 mm 0,0 UV-I 0 W/m² 12,5 °C 13,4 °C 4,8 km/h (1 Bft)
29.07.2019 05:59 13,4 °C 94 % 1007,7 hPa 0,0 mm 8,4 km/h (2 Bft) S 184 ° 0 min 0,000 mm 0,0 UV-I 0 W/m² 12,5 °C 13,4 °C 16,1 km/h (3 Bft)
29.07.2019 06:00 13,4 °C 94 % 1007,8 hPa 0,0 mm 6,3 km/h (2 Bft) SW 236 ° 0 min 0,000 mm 0,0 UV-I 0 W/m² 12,5 °C 13,4 °C 11,3 km/h (2 Bft)
29.07.2019 06:01 13,4 °C 94 % 1007,8 hPa 0,0 mm 4,5 km/h (1 Bft) W 279 ° 0 min 0,000 mm 0,0 UV-I 0 W/m² 12,5 °C 13,4 °C 8,0 km/h (2 Bft)
29.07.2019 06:02 13,4 °C 94 % 1007,8 hPa 0,0 mm 12,5 km/h (3 Bft) W 267 ° 0 min 0,000 mm 0,0 UV-I 0 W/m² 12,5 °C 13,4 °C 17,7 km/h (3 Bft)
29.07.2019 06:03 13,4 °C 94 % 1007,8 hPa 0,0 mm 9,0 km/h (2 Bft) W 269 ° 0 min 0,000 mm 0,0 UV-I 0 W/m² 12,5 °C 13,4 °C 12,9 km/h (3 Bft)
29.07.2019 06:04 13,4 °C 94 % 1007,8 hPa 0,0 mm 6,4 km/h (2 Bft) SW 232 ° 0 min 0,000 mm 0,0 UV-I 0 W/m² 12,5 °C 13,4 °C 12,9 km/h (3 Bft)
29.07.2019 06:05 13,4 °C 94 % 1007,8 hPa 0,0 mm 9,2 km/h (2 Bft) W-SW 248 ° 0 min 0,000 mm 0,0 UV-I 0 W/m² 12,5 °C 13,4 °C 14,5 km/h (3 Bft)
29.07.2019 06:06 13,4 °C 94 % 1007,7 hPa 0,0 mm 8,3 km/h (2 Bft) W 277 ° 0 min 0,000 mm 0,0 UV-I 0 W/m² 12,5 °C 13,4 °C 12,9 km/h (3 Bft)
29.07.2019 06:07 13,4 °C 94 % 1007,7 hPa 0,0 mm 4,5 km/h (1 Bft) W-SW 248 ° 0 min 0,000 mm 0,0 UV-I 0 W/m² 12,5 °C 13,4 °C 9,7 km/h (2 Bft)
29.07.2019 06:08 13,4 °C 94 % 1007,7 hPa 0,0 mm 5,6 km/h (1 Bft) S-SW 203 ° 0 min 0,000 mm 0,0 UV-I 0 W/m² 12,5 °C 13,4 °C 11,3 km/h (2 Bft)
29.07.2019 06:09 13,4 °C 94 % 1007,7 hPa 0,0 mm 4,9 km/h (1 Bft) W-NW 288 ° 0 min 0,000 mm 0,0 UV-I 0 W/m² 12,5 °C 13,4 °C 16,1 km/h (3 Bft)
29.07.2019 06:10 13,4 °C 94 % 1007,7 hPa 0,0 mm 8,1 km/h (2 Bft) SW 225 ° 0 min 0,000 mm 0,0 UV-I 0 W/m² 12,5 °C 13,4 °C 16,1 km/h (3 Bft)
29.07.2019 06:11 13,4 °C 94 % 1007,8 hPa 0,0 mm 7,5 km/h (2 Bft) W 277 ° 0 min 0,000 mm 0,0 UV-I 0 W/m² 12,5 °C 13,4 °C 12,9 km/h (3 Bft)
29.07.2019 06:12 13,4 °C 94 % 1007,8 hPa 0,0 mm 6,6 km/h (2 Bft) W 275 ° 0 min 0,000 mm 0,0 UV-I 0 W/m² 12,5 °C 13,4 °C 9,7 km/h (2 Bft)
29.07.2019 06:13 13,4 °C 94 % 1007,8 hPa 0,0 mm 8,1 km/h (2 Bft) W 275 ° 0 min 0,000 mm 0,0 UV-I 0 W/m² 12,5 °C 13,4 °C 14,5 km/h (3 Bft)
29.07.2019 06:14 13,4 °C 94 % 1007,8 hPa 0,0 mm 4,9 km/h (1 Bft) W 265 ° 0 min 0,000 mm 0,0 UV-I 0 W/m² 12,5 °C 13,4 °C 9,7 km/h (2 Bft)
29.07.2019 06:15 13,4 °C 94 % 1007,9 hPa 0,0 mm 12,3 km/h (3 Bft) NW 307 ° 0 min 0,000 mm 0,0 UV-I 0 W/m² 12,5 °C 13,4 °C 19,3 km/h (3 Bft)
29.07.2019 06:16 13,4 °C 94 % 1007,8 hPa 0,0 mm 5,1 km/h (1 Bft) W-SW 249 ° 0 min 0,000 mm 0,0 UV-I 0 W/m² 12,5 °C 13,4 °C 8,0 km/h (2 Bft)
29.07.2019 06:17 13,4 °C 94 % 1007,9 hPa 0,0 mm 11,7 km/h (2 Bft) W-NW 283 ° 0 min 0,000 mm 0,0 UV-I 0 W/m² 12,5 °C 13,4 °C 17,7 km/h (3 Bft)
29.07.2019 06:18 13,4 °C 94 % 1007,9 hPa 0,0 mm 8,2 km/h (2 Bft) W 264 ° 0 min 0,000 mm 0,0 UV-I 0 W/m² 12,5 °C 13,4 °C 9,7 km/h (2 Bft)
29.07.2019 06:19 13,4 °C 94 % 1007,9 hPa 0,0 mm 6,7 km/h (2 Bft) W-NW 286 ° 0 min 0,000 mm 0,0 UV-I 0 W/m² 12,5 °C 13,4 °C 11,3 km/h (2 Bft)
29.07.2019 06:20 13,4 °C 94 % 1007,9 hPa 0,0 mm 7,0 km/h (2 Bft) W 259 ° 0 min 0,000 mm 0,0 UV-I 0 W/m² 12,5 °C 13,4 °C 16,1 km/h (3 Bft)
29.07.2019 06:21 13,4 °C 94 % 1007,9 hPa 0,0 mm 9,5 km/h (2 Bft) W 275 ° 0 min 0,000 mm 0,0 UV-I 0 W/m² 12,5 °C 13,4 °C 16,1 km/h (3 Bft)
29.07.2019 06:22 13,4 °C 94 % 1008,0 hPa 0,0 mm 8,9 km/h (2 Bft) W 279 ° 0 min 0,000 mm 0,0 UV-I 0 W/m² 12,5 °C 13,4 °C 12,9 km/h (3 Bft)
29.07.2019 06:23 13,4 °C 94 % 1008,0 hPa 0,0 mm 4,0 km/h (1 Bft) W 259 ° 0 min 0,000 mm 0,0 UV-I 0 W/m² 12,5 °C 13,4 °C 8,0 km/h (2 Bft)
29.07.2019 06:24 13,4 °C 94 % 1008,0 hPa 0,0 mm 9,1 km/h (2 Bft) W-SW 244 ° 0 min 0,000 mm 0,0 UV-I 0 W/m² 12,5 °C 13,4 °C 16,1 km/h (3 Bft)
29.07.2019 06:25 13,4 °C 94 % 1008,0 hPa 0,0 mm 9,9 km/h (2 Bft) NW 316 ° 0 min 0,000 mm 0,0 UV-I 0 W/m² 12,5 °C 13,4 °C 17,7 km/h (3 Bft)
29.07.2019 06:26 13,4 °C 94 % 1008,0 hPa 0,0 mm 7,5 km/h (2 Bft) W-NW 296 ° 0 min 0,000 mm 0,0 UV-I 0 W/m² 12,5 °C 13,4 °C 12,9 km/h (3 Bft)
29.07.2019 06:27 13,4 °C 94 % 1008,0 hPa 0,0 mm 1,6 km/h (1 Bft) W-NW 296 ° 0 min 0,000 mm 0,0 UV-I 0 W/m² 12,5 °C 13,4 °C 4,8 km/h (1 Bft)
29.07.2019 06:28 13,4 °C 94 % 1008,0 hPa 0,0 mm 2,9 km/h (1 Bft) W-SW 255 ° 0 min 0,000 mm 0,0 UV-I 0 W/m² 12,5 °C 13,4 °C 4,8 km/h (1 Bft)
29.07.2019 06:29 13,4 °C 94 % 1008,0 hPa 0,0 mm 5,0 km/h (1 Bft) W 261 ° 0 min 0,000 mm 0,0 UV-I 0 W/m² 12,5 °C 13,4 °C 9,7 km/h (2 Bft)
29.07.2019 06:30 13,4 °C 94 % 1008,0 hPa 0,0 mm 4,8 km/h (1 Bft) NW 311 ° 0 min 0,000 mm 0,0 UV-I 0 W/m² 12,5 °C 13,4 °C 9,7 km/h (2 Bft)
29.07.2019 06:31 13,4 °C 94 % 1008,0 hPa 0,2 mm 8,1 km/h (2 Bft) W 273 ° 0 min 0,000 mm 0,0 UV-I 0 W/m² 12,5 °C 13,4 °C 12,9 km/h (3 Bft)
29.07.2019 06:32 13,4 °C 94 % 1008,0 hPa 0,0 mm 6,8 km/h (2 Bft) W-NW 286 ° 0 min 0,000 mm 0,0 UV-I 0 W/m² 12,5 °C 13,4 °C 12,9 km/h (3 Bft)
29.07.2019 06:33 13,4 °C 94 % 1008,0 hPa 0,0 mm 8,6 km/h (2 Bft) W-SW 251 ° 0 min 0,000 mm 0,0 UV-I 0 W/m² 12,5 °C 13,4 °C 12,9 km/h (3 Bft)
29.07.2019 06:34 13,4 °C 94 % 1008,0 hPa 0,0 mm 2,4 km/h (1 Bft) W-SW 244 ° 0 min 0,000 mm 0,0 UV-I 0 W/m² 12,5 °C 13,4 °C 8,0 km/h (2 Bft)
29.07.2019 06:35 13,4 °C 94 % 1008,0 hPa 0,0 mm 4,0 km/h (1 Bft) W-NW 284 ° 0 min 0,000 mm 0,0 UV-I 0 W/m² 12,5 °C 13,4 °C 6,4 km/h (2 Bft)
29.07.2019 06:36 13,4 °C 94 % 1008,0 hPa 0,0 mm 8,2 km/h (2 Bft) W 270 ° 0 min 0,000 mm 0,0 UV-I 5 W/m² 12,5 °C 13,4 °C 14,5 km/h (3 Bft)
29.07.2019 06:37 13,4 °C 94 % 1008,0 hPa 0,0 mm 7,2 km/h (2 Bft) W 263 ° 0 min 0,000 mm 0,0 UV-I 5 W/m² 12,5 °C 13,4 °C 12,9 km/h (3 Bft)
29.07.2019 06:38 13,4 °C 94 % 1008,1 hPa 0,0 mm 7,4 km/h (2 Bft) W 269 ° 0 min 0,000 mm 0,0 UV-I 5 W/m² 12,5 °C 13,4 °C 11,3 km/h (2 Bft)
29.07.2019 06:39 13,4 °C 94 % 1008,1 hPa 0,0 mm 11,5 km/h (2 Bft) W-SW 253 ° 0 min 0,000 mm 0,0 UV-I 5 W/m² 12,5 °C 13,4 °C 19,3 km/h (3 Bft)
29.07.2019 06:40 13,4 °C 94 % 1008,0 hPa 0,0 mm 8,9 km/h (2 Bft) W 267 ° 0 min 0,000 mm 0,0 UV-I 5 W/m² 12,5 °C 13,4 °C 16,1 km/h (3 Bft)
29.07.2019 06:41 13,4 °C 94 % 1008,1 hPa 0,0 mm 12,2 km/h (2 Bft) W 259 ° 0 min 0,000 mm 0,0 UV-I 5 W/m² 12,5 °C 13,4 °C 20,9 km/h (4 Bft)
29.07.2019 06:42 13,4 °C 94 % 1008,1 hPa 0,0 mm 5,9 km/h (2 Bft) W-SW 250 ° 0 min 0,000 mm 0,0 UV-I 5 W/m² 12,5 °C 13,4 °C 17,7 km/h (3 Bft)
29.07.2019 06:43 13,4 °C 94 % 1008,1 hPa 0,0 mm 10,3 km/h (2 Bft) W-NW 287 ° 0 min 0,000 mm 0,0 UV-I 7 W/m² 12,5 °C 13,4 °C 14,5 km/h (3 Bft)
29.07.2019 06:44 13,4 °C 94 % 1008,1 hPa 0,0 mm 6,5 km/h (2 Bft) W-SW 246 ° 0 min 0,000 mm 0,0 UV-I 7 W/m² 12,5 °C 13,4 °C 11,3 km/h (2 Bft)
29.07.2019 06:45 13,4 °C 94 % 1008,1 hPa 0,0 mm 4,8 km/h (1 Bft) S 186 ° 0 min 0,000 mm 0,0 UV-I 7 W/m² 12,5 °C 13,4 °C 8,0 km/h (2 Bft)
29.07.2019 06:46 13,4 °C 94 % 1008,1 hPa 0,0 mm 2,8 km/h (1 Bft) W 275 ° 0 min 0,000 mm 0,0 UV-I 7 W/m² 12,5 °C 13,4 °C 9,7 km/h (2 Bft)
29.07.2019 06:47 13,4 °C 94 % 1008,1 hPa 0,0 mm 7,7 km/h (2 Bft) SW 233 ° 0 min 0,000 mm 0,0 UV-I 7 W/m² 12,5 °C 13,4 °C 12,9 km/h (3 Bft)
29.07.2019 06:48 13,4 °C 94 % 1008,1 hPa 0,0 mm 12,5 km/h (3 Bft) W 263 ° 0 min 0,000 mm 0,0 UV-I 7 W/m² 12,5 °C 13,4 °C 25,7 km/h (4 Bft)
29.07.2019 06:49 13,4 °C 94 % 1008,0 hPa 0,0 mm 8,2 km/h (2 Bft) S 181 ° 0 min 0,000 mm 0,0 UV-I 7 W/m² 12,5 °C 13,4 °C 14,5 km/h (3 Bft)
29.07.2019 06:50 13,4 °C 94 % 1008,1 hPa 0,0 mm 10,7 km/h (2 Bft) W 265 ° 0 min 0,000 mm 0,0 UV-I 7 W/m² 12,5 °C 13,4 °C 16,1 km/h (3 Bft)
29.07.2019 06:51 13,4 °C 94 % 1008,0 hPa 0,0 mm 8,6 km/h (2 Bft) W-NW 294 ° 0 min 0,000 mm 0,0 UV-I 9 W/m² 12,5 °C 13,4 °C 12,9 km/h (3 Bft)
29.07.2019 06:52 13,4 °C 94 % 1008,1 hPa 0,0 mm 10,1 km/h (2 Bft) W 277 ° 0 min 0,000 mm 0,0 UV-I 9 W/m² 12,5 °C 13,4 °C 14,5 km/h (3 Bft)
29.07.2019 06:53 13,5 °C 94 % 1008,0 hPa 0,0 mm 9,8 km/h (2 Bft) W-SW 244 ° 0 min 0,000 mm 0,0 UV-I 9 W/m² 12,6 °C 13,5 °C 14,5 km/h (3 Bft)
29.07.2019 06:54 13,5 °C 94 % 1008,0 hPa 0,0 mm 11,4 km/h (2 Bft) W 277 ° 0 min 0,000 mm 0,0 UV-I 9 W/m² 12,6 °C 13,5 °C 17,7 km/h (3 Bft)
29.07.2019 06:55 13,4 °C 94 % 1008,1 hPa 0,0 mm 11,1 km/h (2 Bft) W-NW 286 ° 0 min 0,000 mm 0,0 UV-I 9 W/m² 12,5 °C 13,4 °C 16,1 km/h (3 Bft)
29.07.2019 06:56 13,4 °C 94 % 1008,1 hPa 0,0 mm 11,5 km/h (2 Bft) W 275 ° 0 min 0,000 mm 0,0 UV-I 9 W/m² 12,5 °C 13,4 °C 14,5 km/h (3 Bft)
29.07.2019 06:57 13,4 °C 94 % 1008,1 hPa 0,0 mm 3,1 km/h (1 Bft) NW 325 ° 0 min 0,000 mm 0,0 UV-I 9 W/m² 12,5 °C 13,4 °C 6,4 km/h (2 Bft)
29.07.2019 06:58 13,4 °C 94 % 1008,1 hPa 0,0 mm 6,5 km/h (2 Bft) W 264 ° 0 min 0,000 mm 0,0 UV-I 9 W/m² 12,5 °C 13,4 °C 12,9 km/h (3 Bft)
29.07.2019 06:59 13,5 °C 94 % 1008,1 hPa 0,0 mm 6,5 km/h (2 Bft) W-SW 258 ° 0 min 0,000 mm 0,0 UV-I 9 W/m² 12,6 °C 13,5 °C 11,3 km/h (2 Bft)
29.07.2019 07:00 13,4 °C 94 % 1008,1 hPa 0,0 mm 8,0 km/h (2 Bft) W-NW 289 ° 0 min 0,000 mm 0,0 UV-I 9 W/m² 12,5 °C 13,4 °C 12,9 km/h (3 Bft)
29.07.2019 07:01 13,5 °C 94 % 1008,1 hPa 0,0 mm 5,2 km/h (1 Bft) W 268 ° 0 min 0,000 mm 0,0 UV-I 9 W/m² 12,6 °C 13,5 °C 9,7 km/h (2 Bft)
29.07.2019 07:02 13,5 °C 94 % 1008,1 hPa 0,0 mm 4,7 km/h (1 Bft) NW 306 ° 0 min 0,000 mm 0,0 UV-I 9 W/m² 12,6 °C 13,5 °C 11,3 km/h (2 Bft)
29.07.2019 07:03 13,5 °C 94 % 1008,1 hPa 0,0 mm 10,5 km/h (2 Bft) W 264 ° 0 min 0,000 mm 0,0 UV-I 9 W/m² 12,6 °C 13,5 °C 14,5 km/h (3 Bft)
29.07.2019 07:04 13,4 °C 94 % 1008,1 hPa 0,0 mm 8,9 km/h (2 Bft) SW 236 ° 0 min 0,000 mm 0,0 UV-I 9 W/m² 12,5 °C 13,4 °C 14,5 km/h (3 Bft)
29.07.2019 07:05 13,4 °C 94 % 1008,2 hPa 0,0 mm 4,4 km/h (1 Bft) SW 224 ° 0 min 0,000 mm 0,0 UV-I 9 W/m² 12,5 °C 13,4 °C 6,4 km/h (2 Bft)
29.07.2019 07:06 13,4 °C 94 % 1008,1 hPa 0,0 mm 7,0 km/h (2 Bft) W 265 ° 0 min 0,000 mm 0,0 UV-I 11 W/m² 12,5 °C 13,4 °C 11,3 km/h (2 Bft)
29.07.2019 07:07 13,4 °C 94 % 1008,2 hPa 0,0 mm 11,8 km/h (2 Bft) W-SW 249 ° 0 min 0,000 mm 0,0 UV-I 12 W/m² 12,5 °C 13,4 °C 17,7 km/h (3 Bft)
29.07.2019 07:08 13,4 °C 94 % 1008,2 hPa 0,0 mm 11,8 km/h (2 Bft) W-NW 295 ° 0 min 0,000 mm 0,0 UV-I 12 W/m² 12,5 °C 13,4 °C 16,1 km/h (3 Bft)
29.07.2019 07:09 13,4 °C 94 % 1008,2 hPa 0,0 mm 7,8 km/h (2 Bft) SW 218 ° 0 min 0,000 mm 0,0 UV-I 12 W/m² 12,5 °C 13,4 °C 14,5 km/h (3 Bft)
29.07.2019 07:10 13,4 °C 94 % 1008,2 hPa 0,0 mm 8,1 km/h (2 Bft) W-SW 252 ° 0 min 0,000 mm 0,0 UV-I 12 W/m² 12,5 °C 13,4 °C 17,7 km/h (3 Bft)
29.07.2019 07:11 13,4 °C 94 % 1008,2 hPa 0,0 mm 7,8 km/h (2 Bft) SW 233 ° 0 min 0,000 mm 0,0 UV-I 12 W/m² 12,5 °C 13,4 °C 16,1 km/h (3 Bft)
29.07.2019 07:12 13,4 °C 94 % 1008,2 hPa 0,0 mm 10,7 km/h (2 Bft) W 261 ° 0 min 0,000 mm 0,0 UV-I 12 W/m² 12,5 °C 13,4 °C 16,1 km/h (3 Bft)
29.07.2019 07:13 13,5 °C 94 % 1008,2 hPa 0,0 mm 6,0 km/h (2 Bft) S-SW 200 ° 0 min 0,000 mm 0,0 UV-I 12 W/m² 12,6 °C 13,5 °C 12,9 km/h (3 Bft)
29.07.2019 07:14 13,5 °C 94 % 1008,2 hPa 0,0 mm 4,3 km/h (1 Bft) W-NW 297 ° 0 min 0,000 mm 0,0 UV-I 12 W/m² 12,6 °C 13,5 °C 9,7 km/h (2 Bft)
29.07.2019 07:15 13,4 °C 94 % 1008,3 hPa 0,0 mm 2,6 km/h (1 Bft) W-SW 237 ° 0 min 0,000 mm 0,0 UV-I 12 W/m² 12,5 °C 13,4 °C 4,8 km/h (1 Bft)
29.07.2019 07:16 13,5 °C 94 % 1008,2 hPa 0,0 mm 9,0 km/h (2 Bft) W-SW 253 ° 0 min 0,000 mm 0,0 UV-I 12 W/m² 12,6 °C 13,5 °C 14,5 km/h (3 Bft)
29.07.2019 07:17 13,5 °C 94 % 1008,2 hPa 0,0 mm 7,4 km/h (2 Bft) W 281 ° 0 min 0,000 mm 0,0 UV-I 12 W/m² 12,6 °C 13,5 °C 11,3 km/h (2 Bft)
29.07.2019 07:18 13,5 °C 94 % 1008,3 hPa 0,0 mm 10,2 km/h (2 Bft) S-SW 196 ° 0 min 0,000 mm 0,0 UV-I 12 W/m² 12,6 °C 13,5 °C 14,5 km/h (3 Bft)
29.07.2019 07:19 13,4 °C 94 % 1008,3 hPa 0,0 mm 5,6 km/h (1 Bft) W-SW 256 ° 0 min 0,000 mm 0,0 UV-I 12 W/m² 12,5 °C 13,4 °C 12,9 km/h (3 Bft)
29.07.2019 07:20 13,4 °C 94 % 1008,3 hPa 0,0 mm 8,3 km/h (2 Bft) W-SW 240 ° 0 min 0,000 mm 0,0 UV-I 12 W/m² 12,5 °C 13,4 °C 14,5 km/h (3 Bft)
29.07.2019 07:21 13,4 °C 94 % 1008,2 hPa 0,0 mm 8,9 km/h (2 Bft) W 265 ° 0 min 0,000 mm 0,0 UV-I 12 W/m² 12,5 °C 13,4 °C 12,9 km/h (3 Bft)
29.07.2019 07:22 13,5 °C 94 % 1008,2 hPa 0,0 mm 5,4 km/h (1 Bft) SW 222 ° 0 min 0,000 mm 0,0 UV-I 12 W/m² 12,6 °C 13,5 °C 9,7 km/h (2 Bft)
29.07.2019 07:23 13,5 °C 94 % 1008,3 hPa 0,0 mm 4,5 km/h (1 Bft) SW 223 ° 0 min 0,000 mm 0,0 UV-I 12 W/m² 12,6 °C 13,5 °C 6,4 km/h (2 Bft)
29.07.2019 07:24 13,5 °C 94 % 1008,3 hPa 0,0 mm 3,8 km/h (1 Bft) W 273 ° 0 min 0,000 mm 0,0 UV-I 14 W/m² 12,6 °C 13,5 °C 6,4 km/h (2 Bft)
29.07.2019 07:25 13,5 °C 94 % 1008,3 hPa 0,0 mm 7,0 km/h (2 Bft) W-SW 242 ° 0 min 0,000 mm 0,0 UV-I 14 W/m² 12,6 °C 13,5 °C 11,3 km/h (2 Bft)
29.07.2019 07:26 13,5 °C 94 % 1008,3 hPa 0,0 mm 3,3 km/h (1 Bft) W 261 ° 0 min 0,000 mm 0,0 UV-I 16 W/m² 12,6 °C 13,5 °C 8,0 km/h (2 Bft)
29.07.2019 07:27 13,5 °C 94 % 1008,2 hPa 0,0 mm 9,4 km/h (2 Bft) W 263 ° 0 min 0,000 mm 0,0 UV-I 16 W/m² 12,6 °C 13,5 °C 14,5 km/h (3 Bft)
29.07.2019 07:28 13,5 °C 94 % 1008,2 hPa 0,0 mm 9,5 km/h (2 Bft) W-SW 255 ° 0 min 0,000 mm 0,0 UV-I 16 W/m² 12,6 °C 13,5 °C 16,1 km/h (3 Bft)
29.07.2019 07:29 13,5 °C 94 % 1008,3 hPa 0,0 mm 8,6 km/h (2 Bft) W 266 ° 0 min 0,000 mm 0,0 UV-I 18 W/m² 12,6 °C 13,5 °C 14,5 km/h (3 Bft)
29.07.2019 07:30 13,5 °C 94 % 1008,3 hPa 0,0 mm 10,7 km/h (2 Bft) W 259 ° 0 min 0,000 mm 0,0 UV-I 18 W/m² 12,6 °C 13,5 °C 14,5 km/h (3 Bft)
29.07.2019 07:31 13,5 °C 94 % 1008,3 hPa 0,0 mm 13,5 km/h (3 Bft) W 277 ° 0 min 0,000 mm 0,0 UV-I 18 W/m² 12,6 °C 13,5 °C 20,9 km/h (4 Bft)
29.07.2019 07:32 13,5 °C 94 % 1008,3 hPa 0,0 mm 6,4 km/h (2 Bft) W-NW 290 ° 0 min 0,000 mm 0,0 UV-I 19 W/m² 12,6 °C 13,5 °C 11,3 km/h (2 Bft)
29.07.2019 07:33 13,5 °C 94 % 1008,3 hPa 0,0 mm 9,1 km/h (2 Bft) W-SW 244 ° 0 min 0,000 mm 0,0 UV-I 19 W/m² 12,6 °C 13,5 °C 16,1 km/h (3 Bft)
29.07.2019 07:34 13,5 °C 94 % 1008,3 hPa 0,0 mm 7,2 km/h (2 Bft) W 265 ° 0 min 0,000 mm 0,0 UV-I 19 W/m² 12,6 °C 13,5 °C 12,9 km/h (3 Bft)
29.07.2019 07:35 13,5 °C 94 % 1008,3 hPa 0,0 mm 5,4 km/h (1 Bft) W-NW 284 ° 0 min 0,000 mm 0,0 UV-I 19 W/m² 12,6 °C 13,5 °C 12,9 km/h (3 Bft)
29.07.2019 07:36 13,5 °C 94 % 1008,3 hPa 0,0 mm 6,6 km/h (2 Bft) SW 234 ° 0 min 0,000 mm 0,0 UV-I 19 W/m² 12,6 °C 13,5 °C 14,5 km/h (3 Bft)
29.07.2019 07:37 13,5 °C 94 % 1008,3 hPa 0,0 mm 13,9 km/h (3 Bft) W 279 ° 0 min 0,000 mm 0,0 UV-I 19 W/m² 12,6 °C 13,5 °C 20,9 km/h (4 Bft)
29.07.2019 07:38 13,5 °C 94 % 1008,4 hPa 0,0 mm 10,5 km/h (2 Bft) W-SW 257 ° 0 min 0,000 mm 0,0 UV-I 19 W/m² 12,6 °C 13,5 °C 14,5 km/h (3 Bft)
29.07.2019 07:39 13,5 °C 94 % 1008,4 hPa 0,0 mm 9,7 km/h (2 Bft) W-SW 256 ° 0 min 0,000 mm 0,0 UV-I 19 W/m² 12,6 °C 13,5 °C 14,5 km/h (3 Bft)
29.07.2019 07:40 13,5 °C 94 % 1008,4 hPa 0,0 mm 8,0 km/h (2 Bft) S-SW 197 ° 0 min 0,000 mm 0,0 UV-I 19 W/m² 12,6 °C 13,5 °C 14,5 km/h (3 Bft)
29.07.2019 07:41 13,5 °C 94 % 1008,5 hPa 0,0 mm 10,2 km/h (2 Bft) SW 236 ° 0 min 0,000 mm 0,0 UV-I 19 W/m² 12,6 °C 13,5 °C 19,3 km/h (3 Bft)
29.07.2019 07:42 13,5 °C 94 % 1008,5 hPa 0,0 mm 12,5 km/h (3 Bft) W 279 ° 0 min 0,000 mm 0,0 UV-I 19 W/m² 12,6 °C 13,5 °C 17,7 km/h (3 Bft)
29.07.2019 07:43 13,6 °C 94 % 1008,4 hPa 0,0 mm 10,0 km/h (2 Bft) W 274 ° 0 min 0,000 mm 0,0 UV-I 21 W/m² 12,7 °C 13,6 °C 14,5 km/h (3 Bft)
29.07.2019 07:44 13,5 °C 94 % 1008,5 hPa 0,0 mm 10,5 km/h (2 Bft) SW 235 ° 0 min 0,000 mm 0,0 UV-I 21 W/m² 12,6 °C 13,5 °C 17,7 km/h (3 Bft)
29.07.2019 07:45 13,6 °C 94 % 1008,5 hPa 0,0 mm 10,3 km/h (2 Bft) W 260 ° 0 min 0,000 mm 0,0 UV-I 21 W/m² 12,7 °C 13,6 °C 12,9 km/h (3 Bft)
29.07.2019 07:46 13,5 °C 94 % 1008,5 hPa 0,0 mm 9,2 km/h (2 Bft) W 280 ° 0 min 0,000 mm 0,0 UV-I 21 W/m² 12,6 °C 13,5 °C 14,5 km/h (3 Bft)
29.07.2019 07:47 13,6 °C 94 % 1008,5 hPa 0,0 mm 11,7 km/h (2 Bft) W 279 ° 0 min 0,000 mm 0,0 UV-I 23 W/m² 12,7 °C 13,6 °C 17,7 km/h (3 Bft)
29.07.2019 07:48 13,5 °C 94 % 1008,5 hPa 0,0 mm 5,4 km/h (1 Bft) W-SW 254 ° 0 min 0,000 mm 0,0 UV-I 23 W/m² 12,6 °C 13,5 °C 9,7 km/h (2 Bft)
29.07.2019 07:49 13,5 °C 94 % 1008,5 hPa 0,0 mm 2,5 km/h (1 Bft) W-NW 299 ° 0 min 0,000 mm 0,0 UV-I 23 W/m² 12,6 °C 13,5 °C 6,4 km/h (2 Bft)
29.07.2019 07:50 13,5 °C 94 % 1008,5 hPa 0,0 mm 8,0 km/h (2 Bft) S 169 ° 0 min 0,000 mm 0,0 UV-I 25 W/m² 12,6 °C 13,5 °C 20,9 km/h (4 Bft)
29.07.2019 07:51 13,5 °C 94 % 1008,5 hPa 0,0 mm 8,9 km/h (2 Bft) W-SW 252 ° 0 min 0,000 mm 0,0 UV-I 25 W/m² 12,6 °C 13,5 °C 14,5 km/h (3 Bft)
29.07.2019 07:52 13,6 °C 94 % 1008,5 hPa 0,0 mm 3,1 km/h (1 Bft) W-SW 252 ° 0 min 0,000 mm 0,0 UV-I 25 W/m² 12,7 °C 13,6 °C 6,4 km/h (2 Bft)
29.07.2019 07:53 13,6 °C 94 % 1008,5 hPa 0,0 mm 5,5 km/h (1 Bft) W 277 ° 0 min 0,000 mm 0,0 UV-I 26 W/m² 12,7 °C 13,6 °C 9,7 km/h (2 Bft)
29.07.2019 07:54 13,6 °C 94 % 1008,5 hPa 0,0 mm 5,8 km/h (2 Bft) W-NW 286 ° 0 min 0,000 mm 0,0 UV-I 26 W/m² 12,7 °C 13,6 °C 9,7 km/h (2 Bft)
29.07.2019 07:55 13,6 °C 94 % 1008,5 hPa 0,0 mm 4,7 km/h (1 Bft) S-SW 197 ° 0 min 0,000 mm 0,0 UV-I 26 W/m² 12,7 °C 13,6 °C 6,4 km/h (2 Bft)
29.07.2019 07:56 13,6 °C 94 % 1008,5 hPa 0,0 mm 6,5 km/h (2 Bft) W-NW 290 ° 0 min 0,000 mm 0,0 UV-I 26 W/m² 12,7 °C 13,6 °C 11,3 km/h (2 Bft)
29.07.2019 07:57 13,6 °C 94 % 1008,5 hPa 0,0 mm 15,7 km/h (3 Bft) W-NW 302 ° 0 min 0,000 mm 0,0 UV-I 26 W/m² 12,7 °C 13,6 °C 22,5 km/h (4 Bft)
29.07.2019 07:58 13,6 °C 94 % 1008,5 hPa 0,0 mm 9,3 km/h (2 Bft) W 259 ° 0 min 0,000 mm 0,0 UV-I 26 W/m² 12,7 °C 13,6 °C 14,5 km/h (3 Bft)
29.07.2019 07:59 13,6 °C 94 % 1008,5 hPa 0,0 mm 7,0 km/h (2 Bft) W-NW 293 ° 0 min 0,000 mm 0,0 UV-I 26 W/m² 12,7 °C 13,6 °C 11,3 km/h (2 Bft)
29.07.2019 08:00 13,6 °C 94 % 1008,4 hPa 0,0 mm 5,9 km/h (2 Bft) W 264 ° 0 min 0,025 mm 0,0 UV-I 26 W/m² 12,7 °C 13,6 °C 12,9 km/h (3 Bft)
29.07.2019 08:01 13,6 °C 94 % 1008,4 hPa 0,0 mm 5,9 km/h (2 Bft) S 169 ° 0 min 0,000 mm 0,0 UV-I 26 W/m² 12,7 °C 13,6 °C 11,3 km/h (2 Bft)
29.07.2019 08:02 13,6 °C 94 % 1008,5 hPa 0,0 mm 5,5 km/h (1 Bft) W 267 ° 0 min 0,000 mm 0,0 UV-I 26 W/m² 12,7 °C 13,6 °C 12,9 km/h (3 Bft)
29.07.2019 08:03 13,6 °C 94 % 1008,5 hPa 0,0 mm 12,8 km/h (3 Bft) W-SW 258 ° 0 min 0,000 mm 0,0 UV-I 25 W/m² 12,7 °C 13,6 °C 17,7 km/h (3 Bft)
29.07.2019 08:04 13,6 °C 94 % 1008,5 hPa 0,0 mm 8,3 km/h (2 Bft) W-SW 257 ° 0 min 0,000 mm 0,0 UV-I 25 W/m² 12,7 °C 13,6 °C 11,3 km/h (2 Bft)
29.07.2019 08:05 13,6 °C 94 % 1008,5 hPa 0,0 mm 7,5 km/h (2 Bft) W 271 ° 0 min 0,000 mm 0,0 UV-I 25 W/m² 12,7 °C 13,6 °C 14,5 km/h (3 Bft)
29.07.2019 08:06 13,6 °C 94 % 1008,5 hPa 0,0 mm 10,0 km/h (2 Bft) W-SW 248 ° 0 min 0,000 mm 0,0 UV-I 26 W/m² 12,7 °C 13,6 °C 17,7 km/h (3 Bft)
29.07.2019 08:07 13,6 °C 94 % 1008,6 hPa 0,0 mm 4,6 km/h (1 Bft) SW 229 ° 0 min 0,000 mm 0,0 UV-I 26 W/m² 12,7 °C 13,6 °C 4,8 km/h (1 Bft)
29.07.2019 08:08 13,6 °C 94 % 1008,5 hPa 0,0 mm 3,8 km/h (1 Bft) W 275 ° 0 min 0,000 mm 0,0 UV-I 26 W/m² 12,7 °C 13,6 °C 6,4 km/h (2 Bft)
29.07.2019 08:09 13,6 °C 94 % 1008,5 hPa 0,0 mm 12,1 km/h (2 Bft) W 264 ° 0 min 0,000 mm 0,0 UV-I 28 W/m² 12,7 °C 13,6 °C 19,3 km/h (3 Bft)
29.07.2019 08:10 13,6 °C 94 % 1008,6 hPa 0,0 mm 7,6 km/h (2 Bft) W-NW 296 ° 0 min 0,000 mm 0,0 UV-I 28 W/m² 12,7 °C 13,6 °C 14,5 km/h (3 Bft)
29.07.2019 08:11 13,6 °C 94 % 1008,6 hPa 0,0 mm 0,3 km/h (0 Bft) W-NW 295 ° 0 min 0,000 mm 0,0 UV-I 28 W/m² 12,7 °C 13,6 °C 1,6 km/h (1 Bft)
29.07.2019 08:12 13,6 °C 94 % 1008,6 hPa 0,0 mm 0,0 km/h (0 Bft) W-NW 295 ° 0 min 0,000 mm 0,0 UV-I 30 W/m² 12,7 °C 13,6 °C 0,0 km/h (0 Bft)
29.07.2019 08:13 13,6 °C 94 % 1008,6 hPa 0,0 mm 7,6 km/h (2 Bft) NW 313 ° 0 min 0,000 mm 0,0 UV-I 30 W/m² 12,7 °C 13,6 °C 12,9 km/h (3 Bft)
29.07.2019 08:14 13,6 °C 94 % 1008,6 hPa 0,0 mm 12,7 km/h (3 Bft) W-SW 247 ° 0 min 0,000 mm 0,0 UV-I 30 W/m² 12,7 °C 13,6 °C 20,9 km/h (4 Bft)
29.07.2019 08:15 13,6 °C 94 % 1008,6 hPa 0,0 mm 10,5 km/h (2 Bft) W 263 ° 0 min 0,000 mm 0,0 UV-I 32 W/m² 12,7 °C 13,6 °C 19,3 km/h (3 Bft)
29.07.2019 08:16 13,6 °C 94 % 1008,6 hPa 0,0 mm 5,8 km/h (2 Bft) W-SW 244 ° 0 min 0,000 mm 0,0 UV-I 32 W/m² 12,7 °C 13,6 °C 12,9 km/h (3 Bft)
29.07.2019 08:17 13,7 °C 94 % 1008,6 hPa 0,0 mm 7,1 km/h (2 Bft) W 274 ° 0 min 0,000 mm 0,0 UV-I 33 W/m² 12,8 °C 13,7 °C 11,3 km/h (2 Bft)
29.07.2019 08:18 13,7 °C 94 % 1008,6 hPa 0,0 mm 7,6 km/h (2 Bft) W 262 ° 0 min 0,000 mm 0,0 UV-I 33 W/m² 12,8 °C 13,7 °C 12,9 km/h (3 Bft)
29.07.2019 08:19 13,7 °C 94 % 1008,6 hPa 0,0 mm 9,3 km/h (2 Bft) NW 308 ° 0 min 0,000 mm 0,0 UV-I 33 W/m² 12,8 °C 13,7 °C 17,7 km/h (3 Bft)
29.07.2019 08:20 13,7 °C 94 % 1008,7 hPa 0,0 mm 10,2 km/h (2 Bft) W-NW 291 ° 0 min 0,000 mm 0,0 UV-I 33 W/m² 12,8 °C 13,7 °C 16,1 km/h (3 Bft)
29.07.2019 08:21 13,7 °C 94 % 1008,7 hPa 0,0 mm 11,5 km/h (2 Bft) SW 235 ° 0 min 0,000 mm 0,0 UV-I 33 W/m² 12,8 °C 13,7 °C 14,5 km/h (3 Bft)
29.07.2019 08:22 13,7 °C 94 % 1008,7 hPa 0,0 mm 9,1 km/h (2 Bft) W-SW 258 ° 0 min 0,000 mm 0,0 UV-I 33 W/m² 12,8 °C 13,7 °C 14,5 km/h (3 Bft)
29.07.2019 08:23 13,7 °C 94 % 1008,7 hPa 0,0 mm 12,3 km/h (3 Bft) W-SW 248 ° 0 min 0,000 mm 0,0 UV-I 35 W/m² 12,8 °C 13,7 °C 19,3 km/h (3 Bft)
29.07.2019 08:24 13,7 °C 94 % 1008,7 hPa 0,0 mm 7,7 km/h (2 Bft) W 262 ° 0 min 0,000 mm 0,0 UV-I 37 W/m² 12,8 °C 13,7 °C 12,9 km/h (3 Bft)
29.07.2019 08:25 13,7 °C 94 % 1008,7 hPa 0,0 mm 7,4 km/h (2 Bft) W-SW 248 ° 0 min 0,000 mm 0,0 UV-I 37 W/m² 12,8 °C 13,7 °C 14,5 km/h (3 Bft)
29.07.2019 08:26 13,7 °C 94 % 1008,7 hPa 0,0 mm 4,9 km/h (1 Bft) W-SW 254 ° 0 min 0,000 mm 0,0 UV-I 39 W/m² 12,8 °C 13,7 °C 9,7 km/h (2 Bft)
29.07.2019 08:27 13,7 °C 94 % 1008,7 hPa 0,0 mm 8,6 km/h (2 Bft) W 275 ° 0 min 0,000 mm 0,0 UV-I 39 W/m² 12,8 °C 13,7 °C 12,9 km/h (3 Bft)
29.07.2019 08:28 13,7 °C 94 % 1008,7 hPa 0,0 mm 5,7 km/h (1 Bft) W 273 ° 0 min 0,000 mm 0,0 UV-I 40 W/m² 12,8 °C 13,7 °C 9,7 km/h (2 Bft)
29.07.2019 08:29 13,7 °C 94 % 1008,7 hPa 0,0 mm 9,0 km/h (2 Bft) W-NW 288 ° 0 min 0,000 mm 0,0 UV-I 42 W/m² 12,8 °C 13,7 °C 17,7 km/h (3 Bft)
29.07.2019 08:30 13,7 °C 94 % 1008,7 hPa 0,0 mm 8,0 km/h (2 Bft) W-SW 249 ° 0 min 0,000 mm 0,0 UV-I 42 W/m² 12,8 °C 13,7 °C 17,7 km/h (3 Bft)
29.07.2019 08:31 13,7 °C 94 % 1008,7 hPa 0,0 mm 10,5 km/h (2 Bft) W-SW 248 ° 0 min 0,000 mm 0,0 UV-I 42 W/m² 12,8 °C 13,7 °C 16,1 km/h (3 Bft)
29.07.2019 08:32 13,7 °C 94 % 1008,7 hPa 0,0 mm 11,2 km/h (2 Bft) W-NW 290 ° 0 min 0,000 mm 0,0 UV-I 42 W/m² 12,8 °C 13,7 °C 17,7 km/h (3 Bft)
29.07.2019 08:33 13,7 °C 94 % 1008,7 hPa 0,0 mm 5,4 km/h (1 Bft) W 270 ° 0 min 0,000 mm 0,0 UV-I 42 W/m² 12,8 °C 13,7 °C 11,3 km/h (2 Bft)
29.07.2019 08:34 13,7 °C 94 % 1008,7 hPa 0,0 mm 8,4 km/h (2 Bft) W 281 ° 0 min 0,000 mm 0,0 UV-I 40 W/m² 12,8 °C 13,7 °C 14,5 km/h (3 Bft)
29.07.2019 08:35 13,7 °C 94 % 1008,8 hPa 0,0 mm 6,1 km/h (2 Bft) SW 214 ° 0 min 0,000 mm 0,0 UV-I 42 W/m² 12,8 °C 13,7 °C 9,7 km/h (2 Bft)
29.07.2019 08:36 13,7 °C 94 % 1008,8 hPa 0,0 mm 7,2 km/h (2 Bft) W-NW 292 ° 0 min 0,000 mm 0,0 UV-I 42 W/m² 12,8 °C 13,7 °C 14,5 km/h (3 Bft)
29.07.2019 08:37 13,7 °C 94 % 1008,8 hPa 0,0 mm 8,2 km/h (2 Bft) W 267 ° 0 min 0,000 mm 0,0 UV-I 42 W/m² 12,8 °C 13,7 °C 14,5 km/h (3 Bft)
29.07.2019 08:38 13,8 °C 94 % 1008,9 hPa 0,0 mm 5,5 km/h (1 Bft) W 281 ° 0 min 0,000 mm 0,0 UV-I 40 W/m² 12,9 °C 13,8 °C 12,9 km/h (3 Bft)
29.07.2019 08:39 13,8 °C 94 % 1008,9 hPa 0,0 mm 8,8 km/h (2 Bft) W 262 ° 0 min 0,000 mm 0,0 UV-I 40 W/m² 12,9 °C 13,8 °C 17,7 km/h (3 Bft)
29.07.2019 08:40 13,7 °C 94 % 1008,9 hPa 0,0 mm 9,3 km/h (2 Bft) W-NW 296 ° 0 min 0,000 mm 0,0 UV-I 39 W/m² 12,8 °C 13,7 °C 16,1 km/h (3 Bft)
29.07.2019 08:41 13,8 °C 94 % 1008,9 hPa 0,0 mm 6,5 km/h (2 Bft) W 259 ° 0 min 0,000 mm 0,0 UV-I 39 W/m² 12,9 °C 13,8 °C 14,5 km/h (3 Bft)
29.07.2019 08:42 13,8 °C 94 % 1009,0 hPa 0,0 mm 11,7 km/h (2 Bft) W 267 ° 0 min 0,000 mm 0,0 UV-I 39 W/m² 12,9 °C 13,8 °C 14,5 km/h (3 Bft)
29.07.2019 08:43 13,8 °C 94 % 1009,0 hPa 0,0 mm 8,0 km/h (2 Bft) W 261 ° 0 min 0,000 mm 0,0 UV-I 39 W/m² 12,9 °C 13,8 °C 14,5 km/h (3 Bft)
29.07.2019 08:44 13,7 °C 94 % 1008,9 hPa 0,0 mm 9,0 km/h (2 Bft) W 261 ° 0 min 0,000 mm 0,0 UV-I 37 W/m² 12,8 °C 13,7 °C 17,7 km/h (3 Bft)
29.07.2019 08:45 13,8 °C 94 % 1008,9 hPa 0,0 mm 13,3 km/h (3 Bft) W 266 ° 0 min 0,000 mm 0,0 UV-I 37 W/m² 12,9 °C 13,8 °C 22,5 km/h (4 Bft)
29.07.2019 08:46 13,8 °C 94 % 1009,0 hPa 0,0 mm 8,0 km/h (2 Bft) W 267 ° 0 min 0,000 mm 0,0 UV-I 35 W/m² 12,9 °C 13,8 °C 14,5 km/h (3 Bft)
29.07.2019 08:47 13,7 °C 94 % 1009,0 hPa 0,0 mm 7,2 km/h (2 Bft) W-NW 285 ° 0 min 0,000 mm 0,0 UV-I 35 W/m² 12,8 °C 13,7 °C 9,7 km/h (2 Bft)
29.07.2019 08:48 13,8 °C 94 % 1009,0 hPa 0,0 mm 1,3 km/h (1 Bft) W-SW 254 ° 0 min 0,000 mm 0,0 UV-I 37 W/m² 12,9 °C 13,8 °C 4,8 km/h (1 Bft)
29.07.2019 08:49 13,8 °C 94 % 1009,0 hPa 0,0 mm 8,2 km/h (2 Bft) W 274 ° 0 min 0,000 mm 0,0 UV-I 37 W/m² 12,9 °C 13,8 °C 11,3 km/h (2 Bft)
29.07.2019 08:50 13,7 °C 94 % 1009,0 hPa 0,0 mm 5,4 km/h (1 Bft) NW 318 ° 0 min 0,000 mm 0,0 UV-I 39 W/m² 12,8 °C 13,7 °C 8,0 km/h (2 Bft)
29.07.2019 08:51 13,8 °C 94 % 1009,0 hPa 0,0 mm 7,3 km/h (2 Bft) W-NW 291 ° 0 min 0,000 mm 0,0 UV-I 42 W/m² 12,9 °C 13,8 °C 9,7 km/h (2 Bft)
29.07.2019 08:52 13,7 °C 94 % 1009,0 hPa 0,0 mm 6,8 km/h (2 Bft) W 273 ° 0 min 0,000 mm 0,0 UV-I 47 W/m² 12,8 °C 13,7 °C 12,9 km/h (3 Bft)
29.07.2019 08:53 13,7 °C 94 % 1009,0 hPa 0,0 mm 7,4 km/h (2 Bft) W 267 ° 0 min 0,000 mm 0,0 UV-I 49 W/m² 12,8 °C 13,7 °C 12,9 km/h (3 Bft)
29.07.2019 08:54 13,8 °C 94 % 1009,0 hPa 0,0 mm 9,8 km/h (2 Bft) W-SW 250 ° 0 min 0,000 mm 0,0 UV-I 49 W/m² 12,9 °C 13,8 °C 14,5 km/h (3 Bft)
29.07.2019 08:55 13,8 °C 94 % 1009,0 hPa 0,0 mm 5,3 km/h (1 Bft) W-SW 254 ° 0 min 0,000 mm 0,0 UV-I 49 W/m² 12,9 °C 13,8 °C 12,9 km/h (3 Bft)
29.07.2019 08:56 13,8 °C 94 % 1009,0 hPa 0,0 mm 6,0 km/h (2 Bft) W-NW 290 ° 0 min 0,000 mm 0,0 UV-I 49 W/m² 12,9 °C 13,8 °C 8,0 km/h (2 Bft)
29.07.2019 08:57 13,8 °C 94 % 1009,0 hPa 0,0 mm 5,4 km/h (1 Bft) W 263 ° 0 min 0,000 mm 0,0 UV-I 47 W/m² 12,9 °C 13,8 °C 6,4 km/h (2 Bft)
29.07.2019 08:58 13,8 °C 94 % 1009,1 hPa 0,0 mm 5,0 km/h (1 Bft) W 265 ° 0 min 0,000 mm 0,0 UV-I 42 W/m² 12,9 °C 13,8 °C 8,0 km/h (2 Bft)
29.07.2019 08:59 13,7 °C 94 % 1009,1 hPa 0,0 mm 11,1 km/h (2 Bft) W 260 ° 0 min 0,000 mm 0,0 UV-I 42 W/m² 12,8 °C 13,7 °C 17,7 km/h (3 Bft)
29.07.2019 09:00 13,8 °C 94 % 1009,1 hPa 0,0 mm 8,1 km/h (2 Bft) W-SW 254 ° 0 min 0,026 mm 0,0 UV-I 40 W/m² 12,9 °C 13,8 °C 11,3 km/h (2 Bft)
29.07.2019 09:01 13,8 °C 94 % 1009,1 hPa 0,0 mm 6,6 km/h (2 Bft) W-NW 289 ° 0 min 0,000 mm 0,0 UV-I 40 W/m² 12,9 °C 13,8 °C 12,9 km/h (3 Bft)
29.07.2019 09:02 13,8 °C 94 % 1009,2 hPa 0,0 mm 4,2 km/h (1 Bft) W-SW 237 ° 0 min 0,000 mm 0,0 UV-I 40 W/m² 12,9 °C 13,8 °C 6,4 km/h (2 Bft)
29.07.2019 09:03 13,8 °C 94 % 1009,1 hPa 0,0 mm 8,5 km/h (2 Bft) SW 233 ° 0 min 0,000 mm 0,0 UV-I 46 W/m² 12,9 °C 13,8 °C 11,3 km/h (2 Bft)
29.07.2019 09:04 13,8 °C 94 % 1009,1 hPa 0,0 mm 6,1 km/h (2 Bft) SW 227 ° 0 min 0,000 mm 0,0 UV-I 47 W/m² 12,9 °C 13,8 °C 11,3 km/h (2 Bft)
29.07.2019 09:05 13,8 °C 94 % 1009,2 hPa 0,0 mm 4,7 km/h (1 Bft) S 184 ° 0 min 0,000 mm 0,0 UV-I 51 W/m² 12,9 °C 13,8 °C 8,0 km/h (2 Bft)
29.07.2019 09:06 13,8 °C 94 % 1009,2 hPa 0,0 mm 2,9 km/h (1 Bft) S-SW 198 ° 0 min 0,000 mm 0,0 UV-I 51 W/m² 12,9 °C 13,8 °C 4,8 km/h (1 Bft)
29.07.2019 09:07 13,8 °C 94 % 1009,2 hPa 0,0 mm 4,6 km/h (1 Bft) W-NW 296 ° 0 min 0,000 mm 0,0 UV-I 51 W/m² 12,9 °C 13,8 °C 8,0 km/h (2 Bft)
29.07.2019 09:08 13,8 °C 94 % 1009,2 hPa 0,0 mm 3,6 km/h (1 Bft) W 271 ° 0 min 0,000 mm 0,0 UV-I 49 W/m² 12,9 °C 13,8 °C 6,4 km/h (2 Bft)
29.07.2019 09:09 13,8 °C 94 % 1009,2 hPa 0,0 mm 4,0 km/h (1 Bft) S-SW 207 ° 0 min 0,000 mm 0,0 UV-I 53 W/m² 12,9 °C 13,8 °C 6,4 km/h (2 Bft)
29.07.2019 09:10 13,8 °C 94 % 1009,2 hPa 0,0 mm 3,0 km/h (1 Bft) W 281 ° 0 min 0,000 mm 0,0 UV-I 53 W/m² 12,9 °C 13,8 °C 4,8 km/h (1 Bft)
29.07.2019 09:11 13,8 °C 94 % 1009,2 hPa 0,0 mm 1,1 km/h (1 Bft) W 281 ° 0 min 0,000 mm 0,0 UV-I 56 W/m² 12,9 °C 13,8 °C 3,2 km/h (1 Bft)
29.07.2019 09:12 13,8 °C 94 % 1009,2 hPa 0,0 mm 7,1 km/h (2 Bft) SW 234 ° 0 min 0,000 mm 0,5 UV-I 60 W/m² 12,9 °C 13,8 °C 11,3 km/h (2 Bft)
29.07.2019 09:13 13,8 °C 94 % 1009,2 hPa 0,0 mm 5,4 km/h (1 Bft) SO 139 ° 0 min 0,000 mm 0,5 UV-I 63 W/m² 12,9 °C 13,8 °C 8,0 km/h (2 Bft)
29.07.2019 09:14 13,8 °C 94 % 1009,2 hPa 0,0 mm 3,9 km/h (1 Bft) W-SW 249 ° 0 min 0,000 mm 0,5 UV-I 69 W/m² 12,9 °C 13,8 °C 8,0 km/h (2 Bft)
29.07.2019 09:15 13,8 °C 94 % 1009,2 hPa 0,0 mm 10,6 km/h (2 Bft) W-SW 255 ° 0 min 0,000 mm 0,6 UV-I 86 W/m² 12,9 °C 13,8 °C 19,3 km/h (3 Bft)
29.07.2019 09:16 13,8 °C 94 % 1009,2 hPa 0,0 mm 10,1 km/h (2 Bft) W-SW 254 ° 0 min 0,000 mm 0,7 UV-I 97 W/m² 12,9 °C 13,8 °C 16,1 km/h (3 Bft)
29.07.2019 09:17 13,8 °C 94 % 1009,2 hPa 0,0 mm 5,9 km/h (2 Bft) W-SW 246 ° 0 min 0,000 mm 0,8 UV-I 104 W/m² 12,9 °C 13,8 °C 9,7 km/h (2 Bft)
29.07.2019 09:18 13,8 °C 94 % 1009,2 hPa 0,0 mm 4,1 km/h (1 Bft) W-SW 240 ° 0 min 0,000 mm 0,8 UV-I 105 W/m² 12,9 °C 13,8 °C 11,3 km/h (2 Bft)
29.07.2019 09:19 13,8 °C 94 % 1009,2 hPa 0,0 mm 5,6 km/h (1 Bft) SW 215 ° 0 min 0,000 mm 0,8 UV-I 107 W/m² 12,9 °C 13,8 °C 11,3 km/h (2 Bft)
29.07.2019 09:20 13,9 °C 94 % 1009,2 hPa 0,2 mm 6,7 km/h (2 Bft) W 268 ° 0 min 0,000 mm 0,8 UV-I 107 W/m² 12,9 °C 13,9 °C 9,7 km/h (2 Bft)
29.07.2019 09:21 13,9 °C 94 % 1009,2 hPa 0,0 mm 9,0 km/h (2 Bft) W 267 ° 0 min 0,000 mm 0,8 UV-I 105 W/m² 12,9 °C 13,9 °C 16,1 km/h (3 Bft)
29.07.2019 09:22 13,9 °C 94 % 1009,1 hPa 0,0 mm 11,0 km/h (2 Bft) W-SW 248 ° 0 min 0,000 mm 0,8 UV-I 105 W/m² 12,9 °C 13,9 °C 16,1 km/h (3 Bft)
29.07.2019 09:23 13,9 °C 94 % 1009,1 hPa 0,0 mm 6,1 km/h (2 Bft) W-SW 240 ° 0 min 0,000 mm 0,9 UV-I 107 W/m² 12,9 °C 13,9 °C 12,9 km/h (3 Bft)
29.07.2019 09:24 14,0 °C 93 % 1009,1 hPa 0,0 mm 2,2 km/h (1 Bft) W 279 ° 0 min 0,000 mm 0,9 UV-I 109 W/m² 12,9 °C 14,0 °C 4,8 km/h (1 Bft)
29.07.2019 09:25 13,9 °C 93 % 1009,2 hPa 0,0 mm 7,6 km/h (2 Bft) NW 321 ° 0 min 0,000 mm 0,9 UV-I 113 W/m² 12,8 °C 13,9 °C 14,5 km/h (3 Bft)
29.07.2019 09:26 14,0 °C 94 % 1009,2 hPa 0,0 mm 6,0 km/h (2 Bft) W-NW 297 ° 0 min 0,000 mm 0,9 UV-I 116 W/m² 13,0 °C 14,0 °C 11,3 km/h (2 Bft)
29.07.2019 09:27 14,0 °C 94 % 1009,2 hPa 0,0 mm 6,9 km/h (2 Bft) W-SW 242 ° 0 min 0,000 mm 0,9 UV-I 116 W/m² 13,0 °C 14,0 °C 14,5 km/h (3 Bft)
29.07.2019 09:28 14,1 °C 94 % 1009,2 hPa 0,0 mm 7,0 km/h (2 Bft) W 281 ° 0 min 0,000 mm 0,9 UV-I 118 W/m² 13,1 °C 14,1 °C 12,9 km/h (3 Bft)
29.07.2019 09:29 14,1 °C 94 % 1009,2 hPa 0,0 mm 8,2 km/h (2 Bft) W-SW 255 ° 0 min 0,000 mm 0,9 UV-I 120 W/m² 13,1 °C 14,1 °C 12,9 km/h (3 Bft)
29.07.2019 09:30 14,1 °C 94 % 1009,2 hPa 0,0 mm 4,4 km/h (1 Bft) W-SW 237 ° 0 min 0,000 mm 0,9 UV-I 121 W/m² 13,1 °C 14,1 °C 9,7 km/h (2 Bft)
29.07.2019 09:31 14,1 °C 94 % 1009,1 hPa 0,0 mm 6,8 km/h (2 Bft) W 267 ° 0 min 0,000 mm 0,9 UV-I 121 W/m² 13,1 °C 14,1 °C 11,3 km/h (2 Bft)
29.07.2019 09:32 14,1 °C 94 % 1009,2 hPa 0,0 mm 8,2 km/h (2 Bft) NW 313 ° 0 min 0,000 mm 1,0 UV-I 123 W/m² 13,1 °C 14,1 °C 16,1 km/h (3 Bft)
29.07.2019 09:33 14,2 °C 94 % 1009,2 hPa 0,0 mm 7,8 km/h (2 Bft) W-NW 290 ° 0 min 0,000 mm 1,0 UV-I 128 W/m² 13,2 °C 14,2 °C 12,9 km/h (3 Bft)
29.07.2019 09:34 14,2 °C 94 % 1009,1 hPa 0,0 mm 6,0 km/h (2 Bft) W-NW 283 ° 0 min 0,000 mm 1,0 UV-I 125 W/m² 13,2 °C 14,2 °C 8,0 km/h (2 Bft)
29.07.2019 09:35 14,1 °C 93 % 1009,1 hPa 0,0 mm 3,0 km/h (1 Bft) W 280 ° 0 min 0,000 mm 0,9 UV-I 116 W/m² 13,0 °C 14,1 °C 4,8 km/h (1 Bft)
29.07.2019 09:36 14,2 °C 94 % 1009,2 hPa 0,0 mm 3,8 km/h (1 Bft) S 184 ° 0 min 0,000 mm 0,8 UV-I 109 W/m² 13,2 °C 14,2 °C 6,4 km/h (2 Bft)
29.07.2019 09:37 14,2 °C 94 % 1009,2 hPa 0,0 mm 4,6 km/h (1 Bft) W-NW 292 ° 0 min 0,000 mm 0,8 UV-I 98 W/m² 13,2 °C 14,2 °C 11,3 km/h (2 Bft)
29.07.2019 09:38 14,2 °C 94 % 1009,2 hPa 0,0 mm 5,0 km/h (1 Bft) W-SW 255 ° 0 min 0,000 mm 0,7 UV-I 93 W/m² 13,2 °C 14,2 °C 8,0 km/h (2 Bft)
29.07.2019 09:39 14,2 °C 93 % 1009,3 hPa 0,0 mm 1,9 km/h (1 Bft) S 169 ° 0 min 0,000 mm 0,7 UV-I 88 W/m² 13,1 °C 14,2 °C 3,2 km/h (1 Bft)
29.07.2019 09:40 14,2 °C 93 % 1009,3 hPa 0,0 mm 5,5 km/h (1 Bft) W 266 ° 0 min 0,000 mm 0,7 UV-I 90 W/m² 13,1 °C 14,2 °C 11,3 km/h (2 Bft)
29.07.2019 09:41 14,2 °C 93 % 1009,3 hPa 0,0 mm 4,1 km/h (1 Bft) W 278 ° 0 min 0,000 mm 0,7 UV-I 90 W/m² 13,1 °C 14,2 °C 9,7 km/h (2 Bft)
29.07.2019 09:42 14,2 °C 93 % 1009,3 hPa 0,0 mm 3,5 km/h (1 Bft) W-NW 284 ° 0 min 0,000 mm 0,7 UV-I 88 W/m² 13,1 °C 14,2 °C 6,4 km/h (2 Bft)
29.07.2019 09:43 14,2 °C 93 % 1009,3 hPa 0,0 mm 1,0 km/h (0 Bft) W-NW 287 ° 0 min 0,000 mm 0,7 UV-I 88 W/m² 13,1 °C 14,2 °C 4,8 km/h (1 Bft)
29.07.2019 09:44 14,2 °C 93 % 1009,3 hPa 0,0 mm 6,7 km/h (2 Bft) W-SW 242 ° 0 min 0,000 mm 0,7 UV-I 90 W/m² 13,1 °C 14,2 °C 9,7 km/h (2 Bft)
29.07.2019 09:45 14,2 °C 93 % 1009,3 hPa 0,0 mm 3,6 km/h (1 Bft) W 273 ° 0 min 0,000 mm 0,7 UV-I 93 W/m² 13,1 °C 14,2 °C 6,4 km/h (2 Bft)
29.07.2019 09:46 14,2 °C 93 % 1009,4 hPa 0,0 mm 4,4 km/h (1 Bft) SW 223 ° 0 min 0,000 mm 0,7 UV-I 91 W/m² 13,1 °C 14,2 °C 9,7 km/h (2 Bft)
29.07.2019 09:47 14,2 °C 93 % 1009,4 hPa 0,0 mm 3,8 km/h (1 Bft) W 261 ° 0 min 0,000 mm 0,8 UV-I 93 W/m² 13,1 °C 14,2 °C 9,7 km/h (2 Bft)
29.07.2019 09:48 14,2 °C 93 % 1009,4 hPa 0,0 mm 6,1 km/h (2 Bft) SW 226 ° 0 min 0,000 mm 0,8 UV-I 97 W/m² 13,1 °C 14,2 °C 11,3 km/h (2 Bft)
29.07.2019 09:49 14,2 °C 93 % 1009,4 hPa 0,0 mm 5,9 km/h (2 Bft) W-NW 286 ° 0 min 0,000 mm 0,8 UV-I 95 W/m² 13,1 °C 14,2 °C 11,3 km/h (2 Bft)
29.07.2019 09:50 14,2 °C 93 % 1009,4 hPa 0,0 mm 2,7 km/h (1 Bft) W-NW 286 ° 0 min 0,000 mm 0,8 UV-I 93 W/m² 13,1 °C 14,2 °C 6,4 km/h (2 Bft)
29.07.2019 09:51 14,2 °C 93 % 1009,4 hPa 0,0 mm 4,0 km/h (1 Bft) W-SW 248 ° 0 min 0,000 mm 0,8 UV-I 91 W/m² 13,1 °C 14,2 °C 11,3 km/h (2 Bft)
29.07.2019 09:52 14,2 °C 93 % 1009,4 hPa 0,0 mm 5,7 km/h (1 Bft) W 274 ° 0 min 0,000 mm 0,8 UV-I 88 W/m² 13,1 °C 14,2 °C 9,7 km/h (2 Bft)
29.07.2019 09:53 14,2 °C 93 % 1009,4 hPa 0,0 mm 2,5 km/h (1 Bft) W 273 ° 0 min 0,000 mm 0,7 UV-I 84 W/m² 13,1 °C 14,2 °C 4,8 km/h (1 Bft)
29.07.2019 09:54 14,2 °C 93 % 1009,5 hPa 0,0 mm 3,3 km/h (1 Bft) W 273 ° 0 min 0,000 mm 0,7 UV-I 83 W/m² 13,1 °C 14,2 °C 4,8 km/h (1 Bft)
29.07.2019 09:55 14,2 °C 93 % 1009,5 hPa 0,0 mm 3,8 km/h (1 Bft) W 265 ° 0 min 0,000 mm 0,7 UV-I 83 W/m² 13,1 °C 14,2 °C 6,4 km/h (2 Bft)
29.07.2019 09:56 14,2 °C 93 % 1009,5 hPa 0,0 mm 7,2 km/h (2 Bft) W-NW 302 ° 0 min 0,000 mm 0,7 UV-I 81 W/m² 13,1 °C 14,2 °C 11,3 km/h (2 Bft)
29.07.2019 09:57 14,2 °C 93 % 1009,5 hPa 0,0 mm 4,9 km/h (1 Bft) W-NW 292 ° 0 min 0,000 mm 0,7 UV-I 86 W/m² 13,1 °C 14,2 °C 6,4 km/h (2 Bft)
29.07.2019 09:58 14,2 °C 93 % 1009,5 hPa 0,0 mm 2,3 km/h (1 Bft) W-NW 292 ° 0 min 0,000 mm 0,8 UV-I 88 W/m² 13,1 °C 14,2 °C 3,2 km/h (1 Bft)
29.07.2019 09:59 14,3 °C 93 % 1009,5 hPa 0,0 mm 2,4 km/h (1 Bft) W-SW 239 ° 0 min 0,000 mm 0,7 UV-I 88 W/m² 13,2 °C 14,3 °C 4,8 km/h (1 Bft)
29.07.2019 10:00 14,3 °C 93 % 1009,5 hPa 0,0 mm 3,2 km/h (1 Bft) W-SW 240 ° 0 min 0,051 mm 0,7 UV-I 83 W/m² 13,2 °C 14,3 °C 4,8 km/h (1 Bft)
29.07.2019 10:01 14,3 °C 93 % 1009,6 hPa 0,0 mm 1,9 km/h (1 Bft) W-SW 246 ° 0 min 0,000 mm 0,7 UV-I 84 W/m² 13,2 °C 14,3 °C 4,8 km/h (1 Bft)
29.07.2019 10:02 14,3 °C 93 % 1009,5 hPa 0,0 mm 5,3 km/h (1 Bft) W-SW 257 ° 0 min 0,000 mm 0,7 UV-I 84 W/m² 13,2 °C 14,3 °C 11,3 km/h (2 Bft)
29.07.2019 10:03 14,3 °C 93 % 1009,5 hPa 0,0 mm 7,0 km/h (2 Bft) W 279 ° 0 min 0,000 mm 0,7 UV-I 83 W/m² 13,2 °C 14,3 °C 9,7 km/h (2 Bft)
29.07.2019 10:04 14,3 °C 93 % 1009,5 hPa 0,0 mm 3,9 km/h (1 Bft) W-SW 252 ° 0 min 0,000 mm 0,7 UV-I 79 W/m² 13,2 °C 14,3 °C 4,8 km/h (1 Bft)
29.07.2019 10:05 14,3 °C 93 % 1009,5 hPa 0,0 mm 1,5 km/h (1 Bft) W-SW 254 ° 0 min 0,000 mm 0,7 UV-I 84 W/m² 13,2 °C 14,3 °C 4,8 km/h (1 Bft)
29.07.2019 10:06 14,3 °C 93 % 1009,5 hPa 0,0 mm 6,7 km/h (2 Bft) SW 232 ° 0 min 0,000 mm 0,7 UV-I 86 W/m² 13,2 °C 14,3 °C 9,7 km/h (2 Bft)
29.07.2019 10:07 14,3 °C 93 % 1009,5 hPa 0,0 mm 3,8 km/h (1 Bft) W-SW 248 ° 0 min 0,000 mm 0,7 UV-I 86 W/m² 13,2 °C 14,3 °C 6,4 km/h (2 Bft)
29.07.2019 10:08 14,3 °C 93 % 1009,5 hPa 0,0 mm 1,6 km/h (1 Bft) W-SW 250 ° 0 min 0,000 mm 0,7 UV-I 83 W/m² 13,2 °C 14,3 °C 3,2 km/h (1 Bft)
29.07.2019 10:09 14,2 °C 93 % 1009,5 hPa 0,0 mm 1,0 km/h (0 Bft) W-SW 250 ° 0 min 0,000 mm 0,7 UV-I 84 W/m² 13,1 °C 14,2 °C 3,2 km/h (1 Bft)
29.07.2019 10:10 14,3 °C 93 % 1009,5 hPa 0,0 mm 0,1 km/h (0 Bft) W-SW 243 ° 0 min 0,000 mm 0,7 UV-I 83 W/m² 13,2 °C 14,3 °C 3,2 km/h (1 Bft)
29.07.2019 10:11 14,2 °C 93 % 1009,5 hPa 0,0 mm 2,2 km/h (1 Bft) W-SW 244 ° 0 min 0,000 mm 0,7 UV-I 83 W/m² 13,1 °C 14,2 °C 3,2 km/h (1 Bft)
29.07.2019 10:12 14,3 °C 93 % 1009,5 hPa 0,0 mm 4,4 km/h (1 Bft) W-SW 258 ° 0 min 0,000 mm 0,6 UV-I 77 W/m² 13,2 °C 14,3 °C 6,4 km/h (2 Bft)
29.07.2019 10:13 14,3 °C 93 % 1009,6 hPa 0,0 mm 4,8 km/h (1 Bft) W 263 ° 0 min 0,000 mm 0,7 UV-I 79 W/m² 13,2 °C 14,3 °C 9,7 km/h (2 Bft)
29.07.2019 10:14 14,3 °C 93 % 1009,6 hPa 0,0 mm 6,2 km/h (2 Bft) W 269 ° 0 min 0,000 mm 0,7 UV-I 83 W/m² 13,2 °C 14,3 °C 11,3 km/h (2 Bft)
29.07.2019 10:15 14,3 °C 93 % 1009,6 hPa 0,0 mm 4,3 km/h (1 Bft) W-NW 286 ° 0 min 0,000 mm 0,7 UV-I 79 W/m² 13,2 °C 14,3 °C 6,4 km/h (2 Bft)
29.07.2019 10:16 14,3 °C 93 % 1009,6 hPa 0,0 mm 4,7 km/h (1 Bft) W-NW 288 ° 0 min 0,000 mm 0,6 UV-I 77 W/m² 13,2 °C 14,3 °C 8,0 km/h (2 Bft)
29.07.2019 10:17 14,4 °C 93 % 1009,6 hPa 0,0 mm 2,4 km/h (1 Bft) W 269 ° 0 min 0,000 mm 0,7 UV-I 79 W/m² 13,3 °C 14,4 °C 4,8 km/h (1 Bft)
29.07.2019 10:18 14,3 °C 93 % 1009,6 hPa 0,0 mm 2,9 km/h (1 Bft) W-SW 240 ° 0 min 0,000 mm 0,7 UV-I 83 W/m² 13,2 °C 14,3 °C 6,4 km/h (2 Bft)
29.07.2019 10:19 14,4 °C 93 % 1009,7 hPa 0,0 mm 6,2 km/h (2 Bft) W 270 ° 0 min 0,000 mm 0,8 UV-I 91 W/m² 13,3 °C 14,4 °C 11,3 km/h (2 Bft)
29.07.2019 10:20 14,4 °C 93 % 1009,6 hPa 0,0 mm 2,6 km/h (1 Bft) W 277 ° 0 min 0,000 mm 0,8 UV-I 95 W/m² 13,3 °C 14,4 °C 4,8 km/h (1 Bft)
29.07.2019 10:21 14,4 °C 93 % 1009,7 hPa 0,0 mm 3,4 km/h (1 Bft) W 277 ° 0 min 0,000 mm 0,9 UV-I 102 W/m² 13,3 °C 14,4 °C 4,8 km/h (1 Bft)
29.07.2019 10:22 14,4 °C 93 % 1009,7 hPa 0,0 mm 5,0 km/h (1 Bft) W 260 ° 0 min 0,000 mm 0,9 UV-I 104 W/m² 13,3 °C 14,4 °C 6,4 km/h (2 Bft)
29.07.2019 10:23 14,4 °C 93 % 1009,7 hPa 0,0 mm 4,6 km/h (1 Bft) W 259 ° 0 min 0,000 mm 0,9 UV-I 105 W/m² 13,3 °C 14,4 °C 11,3 km/h (2 Bft)
29.07.2019 10:24 14,4 °C 93 % 1009,7 hPa 0,0 mm 6,3 km/h (2 Bft) W-SW 240 ° 0 min 0,000 mm 0,9 UV-I 107 W/m² 13,3 °C 14,4 °C 11,3 km/h (2 Bft)
29.07.2019 10:25 14,4 °C 93 % 1009,7 hPa 0,0 mm 4,6 km/h (1 Bft) W-SW 258 ° 0 min 0,000 mm 1,0 UV-I 113 W/m² 13,3 °C 14,4 °C 8,0 km/h (2 Bft)
29.07.2019 10:26 14,4 °C 93 % 1009,7 hPa 0,0 mm 3,4 km/h (1 Bft) W-SW 258 ° 0 min 0,000 mm 1,0 UV-I 120 W/m² 13,3 °C 14,4 °C 4,8 km/h (1 Bft)
29.07.2019 10:27 14,4 °C 93 % 1009,7 hPa 0,0 mm 2,6 km/h (1 Bft) W-SW 254 ° 0 min 0,000 mm 1,1 UV-I 127 W/m² 13,3 °C 14,4 °C 3,2 km/h (1 Bft)
29.07.2019 10:28 14,4 °C 93 % 1009,6 hPa 0,0 mm 2,3 km/h (1 Bft) W-SW 256 ° 0 min 0,000 mm 1,1 UV-I 130 W/m² 13,3 °C 14,4 °C 4,8 km/h (1 Bft)
29.07.2019 10:29 14,4 °C 93 % 1009,6 hPa 0,0 mm 6,0 km/h (2 Bft) S 189 ° 0 min 0,000 mm 1,1 UV-I 128 W/m² 13,3 °C 14,4 °C 11,3 km/h (2 Bft)
29.07.2019 10:30 14,4 °C 93 % 1009,6 hPa 0,0 mm 5,4 km/h (1 Bft) SW 229 ° 0 min 0,000 mm 1,1 UV-I 128 W/m² 13,3 °C 14,4 °C 9,7 km/h (2 Bft)
29.07.2019 10:31 14,4 °C 93 % 1009,6 hPa 0,0 mm 2,5 km/h (1 Bft) SW 214 ° 0 min 0,000 mm 1,1 UV-I 128 W/m² 13,3 °C 14,4 °C 4,8 km/h (1 Bft)
29.07.2019 10:32 14,4 °C 93 % 1009,6 hPa 0,0 mm 4,0 km/h (1 Bft) SW 219 ° 0 min 0,000 mm 1,1 UV-I 123 W/m² 13,3 °C 14,4 °C 8,0 km/h (2 Bft)
29.07.2019 10:33 14,4 °C 93 % 1009,7 hPa 0,0 mm 5,7 km/h (1 Bft) W 265 ° 0 min 0,000 mm 1,0 UV-I 120 W/m² 13,3 °C 14,4 °C 9,7 km/h (2 Bft)
29.07.2019 10:34 14,5 °C 93 % 1009,7 hPa 0,0 mm 1,2 km/h (1 Bft) W 263 ° 0 min 0,000 mm 1,0 UV-I 118 W/m² 13,4 °C 14,5 °C 4,8 km/h (1 Bft)
29.07.2019 10:35 14,6 °C 93 % 1009,7 hPa 0,0 mm 7,0 km/h (2 Bft) W-SW 251 ° 0 min 0,000 mm 1,1 UV-I 121 W/m² 13,5 °C 14,6 °C 12,9 km/h (3 Bft)
29.07.2019 10:36 14,6 °C 93 % 1009,8 hPa 0,0 mm 9,3 km/h (2 Bft) W-SW 254 ° 0 min 0,000 mm 1,1 UV-I 125 W/m² 13,5 °C 14,6 °C 14,5 km/h (3 Bft)
29.07.2019 10:37 14,6 °C 93 % 1009,7 hPa 0,0 mm 5,3 km/h (1 Bft) W 274 ° 0 min 0,000 mm 1,1 UV-I 121 W/m² 13,5 °C 14,6 °C 8,0 km/h (2 Bft)
29.07.2019 10:38 14,6 °C 93 % 1009,7 hPa 0,0 mm 4,2 km/h (1 Bft) W-SW 257 ° 0 min 0,000 mm 1,1 UV-I 123 W/m² 13,5 °C 14,6 °C 8,0 km/h (2 Bft)
29.07.2019 10:39 14,6 °C 92 % 1009,7 hPa 0,0 mm 7,0 km/h (2 Bft) W 264 ° 0 min 0,000 mm 1,0 UV-I 118 W/m² 13,3 °C 14,6 °C 11,3 km/h (2 Bft)
29.07.2019 10:40 14,6 °C 92 % 1009,8 hPa 0,0 mm 6,4 km/h (2 Bft) W 279 ° 0 min 0,000 mm 1,1 UV-I 123 W/m² 13,3 °C 14,6 °C 11,3 km/h (2 Bft)
29.07.2019 10:41 14,6 °C 92 % 1009,7 hPa 0,0 mm 3,4 km/h (1 Bft) W 278 ° 0 min 0,000 mm 1,1 UV-I 125 W/m² 13,3 °C 14,6 °C 4,8 km/h (1 Bft)
29.07.2019 10:42 14,6 °C 93 % 1009,7 hPa 0,0 mm 6,6 km/h (2 Bft) W-NW 283 ° 0 min 0,000 mm 1,1 UV-I 128 W/m² 13,5 °C 14,6 °C 11,3 km/h (2 Bft)
29.07.2019 10:43 14,6 °C 92 % 1009,7 hPa 0,0 mm 5,2 km/h (1 Bft) W 269 ° 0 min 0,000 mm 1,2 UV-I 134 W/m² 13,3 °C 14,6 °C 9,7 km/h (2 Bft)
29.07.2019 10:44 14,7 °C 93 % 1009,7 hPa 0,0 mm 5,9 km/h (2 Bft) W 265 ° 0 min 0,000 mm 1,1 UV-I 128 W/m² 13,6 °C 14,7 °C 6,4 km/h (2 Bft)
29.07.2019 10:45 14,7 °C 93 % 1009,7 hPa 0,0 mm 7,6 km/h (2 Bft) W-NW 299 ° 0 min 0,000 mm 1,1 UV-I 128 W/m² 13,6 °C 14,7 °C 12,9 km/h (3 Bft)
29.07.2019 10:46 14,7 °C 93 % 1009,7 hPa 0,0 mm 3,4 km/h (1 Bft) W-NW 283 ° 0 min 0,000 mm 1,2 UV-I 141 W/m² 13,6 °C 14,7 °C 4,8 km/h (1 Bft)
29.07.2019 10:47 14,7 °C 93 % 1009,7 hPa 0,0 mm 1,7 km/h (1 Bft) W-SW 257 ° 0 min 0,000 mm 1,2 UV-I 139 W/m² 13,6 °C 14,7 °C 8,0 km/h (2 Bft)
29.07.2019 10:48 14,7 °C 93 % 1009,7 hPa 0,0 mm 8,7 km/h (2 Bft) W-NW 293 ° 0 min 0,000 mm 1,1 UV-I 132 W/m² 13,6 °C 14,7 °C 14,5 km/h (3 Bft)
29.07.2019 10:49 14,7 °C 93 % 1009,7 hPa 0,0 mm 7,1 km/h (2 Bft) W-SW 246 ° 0 min 0,000 mm 1,2 UV-I 135 W/m² 13,6 °C 14,7 °C 9,7 km/h (2 Bft)
29.07.2019 10:50 14,7 °C 93 % 1009,7 hPa 0,0 mm 10,1 km/h (2 Bft) W-SW 247 ° 0 min 0,000 mm 1,1 UV-I 130 W/m² 13,6 °C 14,7 °C 12,9 km/h (3 Bft)
29.07.2019 10:51 14,7 °C 93 % 1009,7 hPa 0,0 mm 7,3 km/h (2 Bft) W 268 ° 0 min 0,000 mm 1,2 UV-I 141 W/m² 13,6 °C 14,7 °C 12,9 km/h (3 Bft)
29.07.2019 10:52 14,7 °C 93 % 1009,7 hPa 0,0 mm 10,5 km/h (2 Bft) W 259 ° 0 min 0,000 mm 1,2 UV-I 135 W/m² 13,6 °C 14,7 °C 16,1 km/h (3 Bft)
29.07.2019 10:53 14,7 °C 93 % 1009,7 hPa 0,0 mm 10,5 km/h (2 Bft) W 274 ° 0 min 0,000 mm 1,2 UV-I 137 W/m² 13,6 °C 14,7 °C 12,9 km/h (3 Bft)
29.07.2019 10:54 14,7 °C 92 % 1009,7 hPa 0,0 mm 6,6 km/h (2 Bft) W-NW 294 ° 0 min 0,000 mm 1,3 UV-I 144 W/m² 13,4 °C 14,7 °C 11,3 km/h (2 Bft)
29.07.2019 10:55 14,7 °C 92 % 1009,7 hPa 0,0 mm 4,2 km/h (1 Bft) W 274 ° 0 min 0,000 mm 1,3 UV-I 141 W/m² 13,4 °C 14,7 °C 6,4 km/h (2 Bft)
29.07.2019 10:56 14,7 °C 93 % 1009,7 hPa 0,0 mm 6,0 km/h (2 Bft) W 269 ° 0 min 0,000 mm 1,2 UV-I 135 W/m² 13,6 °C 14,7 °C 11,3 km/h (2 Bft)
29.07.2019 10:57 14,8 °C 93 % 1009,7 hPa 0,0 mm 4,1 km/h (1 Bft) W-NW 288 ° 0 min 0,000 mm 1,1 UV-I 128 W/m² 13,7 °C 14,8 °C 4,8 km/h (1 Bft)
29.07.2019 10:58 14,8 °C 93 % 1009,7 hPa 0,0 mm 2,8 km/h (1 Bft) W 277 ° 0 min 0,000 mm 1,1 UV-I 130 W/m² 13,7 °C 14,8 °C 4,8 km/h (1 Bft)
29.07.2019 10:59 14,8 °C 93 % 1009,8 hPa 0,0 mm 4,6 km/h (1 Bft) W 275 ° 0 min 0,000 mm 1,2 UV-I 132 W/m² 13,7 °C 14,8 °C 9,7 km/h (2 Bft)
29.07.2019 11:00 14,8 °C 92 % 1009,8 hPa 0,0 mm 6,9 km/h (2 Bft) W-SW 249 ° 0 min 0,000 mm 1,2 UV-I 135 W/m² 13,5 °C 14,8 °C 11,3 km/h (2 Bft)
29.07.2019 11:01 14,8 °C 92 % 1009,7 hPa 0,0 mm 8,1 km/h (2 Bft) W 273 ° 0 min 0,050 mm 1,3 UV-I 149 W/m² 13,5 °C 14,8 °C 12,9 km/h (3 Bft)
29.07.2019 11:02 14,8 °C 92 % 1009,8 hPa 0,0 mm 6,2 km/h (2 Bft) W 264 ° 0 min 0,000 mm 1,3 UV-I 148 W/m² 13,5 °C 14,8 °C 12,9 km/h (3 Bft)
29.07.2019 11:03 14,8 °C 92 % 1009,7 hPa 0,0 mm 4,7 km/h (1 Bft) W 277 ° 0 min 0,000 mm 1,2 UV-I 139 W/m² 13,5 °C 14,8 °C 9,7 km/h (2 Bft)
29.07.2019 11:04 14,8 °C 92 % 1009,7 hPa 0,0 mm 6,8 km/h (2 Bft) W 272 ° 0 min 0,000 mm 1,2 UV-I 139 W/m² 13,5 °C 14,8 °C 11,3 km/h (2 Bft)
29.07.2019 11:05 14,8 °C 92 % 1009,8 hPa 0,0 mm 5,0 km/h (1 Bft) W 262 ° 0 min 0,000 mm 1,3 UV-I 153 W/m² 13,5 °C 14,8 °C 9,7 km/h (2 Bft)
29.07.2019 11:06 14,9 °C 93 % 1009,7 hPa 0,0 mm 5,6 km/h (1 Bft) W 268 ° 0 min 0,000 mm 1,4 UV-I 162 W/m² 13,8 °C 14,9 °C 9,7 km/h (2 Bft)
29.07.2019 11:07 14,9 °C 92 % 1009,7 hPa 0,0 mm 4,6 km/h (1 Bft) W 263 ° 0 min 0,000 mm 1,4 UV-I 160 W/m² 13,6 °C 14,9 °C 6,4 km/h (2 Bft)
29.07.2019 11:08 14,9 °C 92 % 1009,8 hPa 0,0 mm 4,5 km/h (1 Bft) W 271 ° 0 min 0,000 mm 1,4 UV-I 163 W/m² 13,6 °C 14,9 °C 9,7 km/h (2 Bft)
29.07.2019 11:09 14,9 °C 92 % 1009,8 hPa 0,0 mm 7,0 km/h (2 Bft) W 271 ° 0 min 0,000 mm 1,4 UV-I 162 W/m² 13,6 °C 14,9 °C 11,3 km/h (2 Bft)
29.07.2019 11:10 14,9 °C 92 % 1009,8 hPa 0,0 mm 6,8 km/h (2 Bft) W 263 ° 0 min 0,000 mm 1,4 UV-I 160 W/m² 13,6 °C 14,9 °C 9,7 km/h (2 Bft)
29.07.2019 11:11 14,9 °C 92 % 1009,8 hPa 0,0 mm 6,4 km/h (2 Bft) W 265 ° 0 min 0,000 mm 1,4 UV-I 160 W/m² 13,6 °C 14,9 °C 11,3 km/h (2 Bft)
29.07.2019 11:12 14,9 °C 92 % 1009,8 hPa 0,0 mm 7,5 km/h (2 Bft) W-NW 297 ° 0 min 0,000 mm 1,4 UV-I 156 W/m² 13,6 °C 14,9 °C 11,3 km/h (2 Bft)
29.07.2019 11:13 14,9 °C 92 % 1009,8 hPa 0,0 mm 7,8 km/h (2 Bft) W 276 ° 0 min 0,000 mm 1,4 UV-I 155 W/m² 13,6 °C 14,9 °C 11,3 km/h (2 Bft)
29.07.2019 11:14 15,0 °C 92 % 1009,8 hPa 0,0 mm 4,7 km/h (1 Bft) W 269 ° 0 min 0,000 mm 1,3 UV-I 153 W/m² 13,7 °C 15,0 °C 6,4 km/h (2 Bft)
29.07.2019 11:15 15,0 °C 92 % 1009,8 hPa 0,0 mm 5,8 km/h (2 Bft) W 264 ° 0 min 0,000 mm 1,3 UV-I 153 W/m² 13,7 °C 15,0 °C 9,7 km/h (2 Bft)
29.07.2019 11:16 15,0 °C 92 % 1009,8 hPa 0,0 mm 7,2 km/h (2 Bft) W 265 ° 0 min 0,000 mm 1,3 UV-I 149 W/m² 13,7 °C 15,0 °C 11,3 km/h (2 Bft)
29.07.2019 11:17 15,0 °C 92 % 1009,8 hPa 0,0 mm 6,6 km/h (2 Bft) W-NW 284 ° 0 min 0,000 mm 1,3 UV-I 144 W/m² 13,7 °C 15,0 °C 11,3 km/h (2 Bft)
29.07.2019 11:18 15,0 °C 92 % 1009,8 hPa 0,0 mm 6,6 km/h (2 Bft) W-NW 289 ° 0 min 0,000 mm 1,2 UV-I 134 W/m² 13,7 °C 15,0 °C 8,0 km/h (2 Bft)
29.07.2019 11:19 14,9 °C 92 % 1009,8 hPa 0,0 mm 3,3 km/h (1 Bft) W 278 ° 0 min 0,000 mm 1,2 UV-I 130 W/m² 13,6 °C 14,9 °C 6,4 km/h (2 Bft)
29.07.2019 11:20 14,9 °C 92 % 1009,8 hPa 0,0 mm 3,2 km/h (1 Bft) W 275 ° 0 min 0,000 mm 1,1 UV-I 127 W/m² 13,6 °C 14,9 °C 4,8 km/h (1 Bft)
29.07.2019 11:21 15,1 °C 92 % 1009,7 hPa 0,0 mm 3,6 km/h (1 Bft) NW 309 ° 0 min 0,000 mm 1,1 UV-I 128 W/m² 13,8 °C 15,1 °C 6,4 km/h (2 Bft)
29.07.2019 11:22 15,1 °C 92 % 1009,8 hPa 0,0 mm 2,0 km/h (1 Bft) NW 308 ° 0 min 0,000 mm 1,1 UV-I 128 W/m² 13,8 °C 15,1 °C 3,2 km/h (1 Bft)
29.07.2019 11:23 15,1 °C 92 % 1009,7 hPa 0,0 mm 3,3 km/h (1 Bft) W 274 ° 0 min 0,000 mm 1,1 UV-I 130 W/m² 13,8 °C 15,1 °C 6,4 km/h (2 Bft)
29.07.2019 11:24 15,1 °C 92 % 1009,7 hPa 0,0 mm 4,4 km/h (1 Bft) W 261 ° 0 min 0,000 mm 1,1 UV-I 132 W/m² 13,8 °C 15,1 °C 6,4 km/h (2 Bft)
29.07.2019 11:25 15,1 °C 92 % 1009,8 hPa 0,0 mm 3,8 km/h (1 Bft) W-NW 300 ° 0 min 0,000 mm 1,1 UV-I 132 W/m² 13,8 °C 15,1 °C 4,8 km/h (1 Bft)
29.07.2019 11:26 15,1 °C 92 % 1009,7 hPa 0,0 mm 7,2 km/h (2 Bft) W-NW 289 ° 0 min 0,000 mm 1,1 UV-I 128 W/m² 13,8 °C 15,1 °C 11,3 km/h (2 Bft)
29.07.2019 11:27 15,0 °C 92 % 1009,7 hPa 0,0 mm 5,0 km/h (1 Bft) W 281 ° 0 min 0,000 mm 1,1 UV-I 127 W/m² 13,7 °C 15,0 °C 6,4 km/h (2 Bft)
29.07.2019 11:28 15,1 °C 92 % 1009,7 hPa 0,0 mm 4,8 km/h (1 Bft) NW 310 ° 0 min 0,000 mm 1,1 UV-I 130 W/m² 13,8 °C 15,1 °C 8,0 km/h (2 Bft)
29.07.2019 11:29 15,1 °C 92 % 1009,8 hPa 0,0 mm 5,8 km/h (2 Bft) NW 306 ° 0 min 0,000 mm 1,1 UV-I 132 W/m² 13,8 °C 15,1 °C 9,7 km/h (2 Bft)
29.07.2019 11:30 15,1 °C 92 % 1009,8 hPa 0,0 mm 5,7 km/h (1 Bft) NW 307 ° 0 min 0,000 mm 1,2 UV-I 142 W/m² 13,8 °C 15,1 °C 9,7 km/h (2 Bft)
29.07.2019 11:31 15,1 °C 92 % 1009,8 hPa 0,0 mm 5,2 km/h (1 Bft) W-NW 290 ° 0 min 0,000 mm 1,3 UV-I 146 W/m² 13,8 °C 15,1 °C 8,0 km/h (2 Bft)
29.07.2019 11:32 15,1 °C 92 % 1009,7 hPa 0,0 mm 1,8 km/h (1 Bft) W-NW 289 ° 0 min 0,000 mm 1,3 UV-I 148 W/m² 13,8 °C 15,1 °C 3,2 km/h (1 Bft)
29.07.2019 11:33 15,2 °C 92 % 1009,7 hPa 0,0 mm 3,6 km/h (1 Bft) W-NW 289 ° 0 min 0,000 mm 1,3 UV-I 148 W/m² 13,9 °C 15,2 °C 4,8 km/h (1 Bft)
29.07.2019 11:34 15,2 °C 92 % 1009,8 hPa 0,0 mm 3,0 km/h (1 Bft) W 268 ° 0 min 0,000 mm 1,3 UV-I 146 W/m² 13,9 °C 15,2 °C 4,8 km/h (1 Bft)
29.07.2019 11:35 15,2 °C 92 % 1009,8 hPa 0,0 mm 4,7 km/h (1 Bft) W-NW 290 ° 0 min 0,000 mm 1,2 UV-I 142 W/m² 13,9 °C 15,2 °C 6,4 km/h (2 Bft)
29.07.2019 11:36 15,2 °C 92 % 1009,8 hPa 0,0 mm 2,7 km/h (1 Bft) W-NW 290 ° 0 min 0,000 mm 1,2 UV-I 135 W/m² 13,9 °C 15,2 °C 3,2 km/h (1 Bft)
29.07.2019 11:37 15,2 °C 92 % 1009,8 hPa 0,0 mm 2,7 km/h (1 Bft) W-SW 252 ° 0 min 0,000 mm 1,2 UV-I 139 W/m² 13,9 °C 15,2 °C 6,4 km/h (2 Bft)
29.07.2019 11:38 15,2 °C 92 % 1009,8 hPa 0,0 mm 0,1 km/h (0 Bft) W-SW 252 ° 0 min 0,000 mm 1,2 UV-I 142 W/m² 13,9 °C 15,2 °C 3,2 km/h (1 Bft)
29.07.2019 11:39 15,2 °C 92 % 1009,8 hPa 0,0 mm 2,8 km/h (1 Bft) W 276 ° 0 min 0,000 mm 1,3 UV-I 142 W/m² 13,9 °C 15,2 °C 4,8 km/h (1 Bft)
29.07.2019 11:40 15,3 °C 92 % 1009,9 hPa 0,0 mm 3,7 km/h (1 Bft) W-NW 298 ° 0 min 0,000 mm 1,3 UV-I 144 W/m² 14,0 °C 15,3 °C 6,4 km/h (2 Bft)
29.07.2019 11:41 15,3 °C 92 % 1009,8 hPa 0,0 mm 5,4 km/h (1 Bft) W 278 ° 0 min 0,000 mm 1,3 UV-I 146 W/m² 14,0 °C 15,3 °C 8,0 km/h (2 Bft)
29.07.2019 11:42 15,3 °C 92 % 1009,8 hPa 0,0 mm 1,7 km/h (1 Bft) W 278 ° 0 min 0,000 mm 1,3 UV-I 153 W/m² 14,0 °C 15,3 °C 3,2 km/h (1 Bft)
29.07.2019 11:43 15,3 °C 92 % 1009,8 hPa 0,0 mm 1,9 km/h (1 Bft) W 278 ° 0 min 0,000 mm 1,4 UV-I 158 W/m² 14,0 °C 15,3 °C 6,4 km/h (2 Bft)
29.07.2019 11:44 15,3 °C 92 % 1009,8 hPa 0,0 mm 4,2 km/h (1 Bft) W-NW 288 ° 0 min 0,000 mm 1,4 UV-I 163 W/m² 14,0 °C 15,3 °C 6,4 km/h (2 Bft)
29.07.2019 11:45 15,3 °C 92 % 1009,8 hPa 0,0 mm 2,6 km/h (1 Bft) N-NW 337 ° 0 min 0,000 mm 1,5 UV-I 172 W/m² 14,0 °C 15,3 °C 4,8 km/h (1 Bft)
29.07.2019 11:46 15,3 °C 92 % 1009,8 hPa 0,0 mm 2,5 km/h (1 Bft) N-NW 337 ° 0 min 0,000 mm 1,5 UV-I 176 W/m² 14,0 °C 15,3 °C 3,2 km/h (1 Bft)
29.07.2019 11:47 15,4 °C 92 % 1009,8 hPa 0,0 mm 2,0 km/h (1 Bft) N-NW 337 ° 0 min 0,000 mm 1,5 UV-I 176 W/m² 14,1 °C 15,4 °C 3,2 km/h (1 Bft)
29.07.2019 11:48 15,4 °C 92 % 1009,8 hPa 0,0 mm 1,7 km/h (1 Bft) N-NW 337 ° 0 min 0,000 mm 1,4 UV-I 174 W/m² 14,1 °C 15,4 °C 3,2 km/h (1 Bft)
29.07.2019 11:49 15,4 °C 92 % 1009,8 hPa 0,0 mm 2,5 km/h (1 Bft) W-NW 297 ° 0 min 0,000 mm 1,5 UV-I 178 W/m² 14,1 °C 15,4 °C 4,8 km/h (1 Bft)
29.07.2019 11:50 15,4 °C 91 % 1009,7 hPa 0,0 mm 3,2 km/h (1 Bft) W-NW 288 ° 0 min 0,000 mm 1,5 UV-I 181 W/m² 13,9 °C 15,4 °C 4,8 km/h (1 Bft)
29.07.2019 11:51 15,4 °C 92 % 1009,7 hPa 0,0 mm 3,9 km/h (1 Bft) NW 311 ° 0 min 0,000 mm 1,5 UV-I 183 W/m² 14,1 °C 15,4 °C 6,4 km/h (2 Bft)
29.07.2019 11:52 15,4 °C 91 % 1009,7 hPa 0,0 mm 4,7 km/h (1 Bft) W-NW 297 ° 0 min 0,000 mm 1,4 UV-I 172 W/m² 13,9 °C 15,4 °C 9,7 km/h (2 Bft)
29.07.2019 11:53 15,4 °C 91 % 1009,7 hPa 0,0 mm 2,1 km/h (1 Bft) W-NW 293 ° 0 min 0,000 mm 1,3 UV-I 155 W/m² 13,9 °C 15,4 °C 4,8 km/h (1 Bft)
29.07.2019 11:54 15,4 °C 92 % 1009,7 hPa 0,0 mm 2,7 km/h (1 Bft) W 270 ° 0 min 0,000 mm 1,3 UV-I 156 W/m² 14,1 °C 15,4 °C 4,8 km/h (1 Bft)
29.07.2019 11:55 15,4 °C 92 % 1009,8 hPa 0,0 mm 6,0 km/h (2 Bft) W 271 ° 0 min 0,000 mm 1,4 UV-I 163 W/m² 14,1 °C 15,4 °C 8,0 km/h (2 Bft)
29.07.2019 11:56 15,4 °C 91 % 1009,8 hPa 0,0 mm 3,7 km/h (1 Bft) W-NW 285 ° 0 min 0,000 mm 1,4 UV-I 165 W/m² 13,9 °C 15,4 °C 6,4 km/h (2 Bft)
29.07.2019 11:57 15,4 °C 91 % 1009,8 hPa 0,0 mm 0,8 km/h (0 Bft) W-NW 285 ° 0 min 0,000 mm 1,4 UV-I 162 W/m² 13,9 °C 15,4 °C 3,2 km/h (1 Bft)
29.07.2019 11:58 15,4 °C 91 % 1009,8 hPa 0,0 mm 2,6 km/h (1 Bft) W-NW 282 ° 0 min 0,000 mm 1,4 UV-I 158 W/m² 13,9 °C 15,4 °C 6,4 km/h (2 Bft)
29.07.2019 11:59 15,4 °C 91 % 1009,8 hPa 0,0 mm 4,5 km/h (1 Bft) W 274 ° 0 min 0,000 mm 1,3 UV-I 142 W/m² 13,9 °C 15,4 °C 9,7 km/h (2 Bft)
29.07.2019 12:00 15,4 °C 91 % 1009,8 hPa 0,0 mm 4,9 km/h (1 Bft) W 262 ° 0 min 0,077 mm 1,1 UV-I 130 W/m² 13,9 °C 15,4 °C 9,7 km/h (2 Bft)
29.07.2019 12:01 15,4 °C 91 % 1009,8 hPa 0,0 mm 1,1 km/h (1 Bft) W 262 ° 0 min 0,000 mm 1,1 UV-I 125 W/m² 13,9 °C 15,4 °C 6,4 km/h (2 Bft)
29.07.2019 12:02 15,4 °C 91 % 1009,8 hPa 0,0 mm 4,8 km/h (1 Bft) W-SW 242 ° 0 min 0,000 mm 1,1 UV-I 127 W/m² 13,9 °C 15,4 °C 6,4 km/h (2 Bft)
29.07.2019 12:03 15,3 °C 91 % 1009,8 hPa 0,0 mm 1,7 km/h (1 Bft) W-SW 242 ° 0 min 0,000 mm 1,1 UV-I 128 W/m² 13,8 °C 15,3 °C 3,2 km/h (1 Bft)
29.07.2019 12:04 15,3 °C 91 % 1009,8 hPa 0,0 mm 0,1 km/h (0 Bft) W-SW 242 ° 0 min 0,000 mm 1,1 UV-I 128 W/m² 13,8 °C 15,3 °C 1,6 km/h (1 Bft)
29.07.2019 12:05 15,4 °C 91 % 1009,8 hPa 0,0 mm 1,0 km/h (0 Bft) W-SW 255 ° 0 min 0,000 mm 1,1 UV-I 130 W/m² 13,9 °C 15,4 °C 3,2 km/h (1 Bft)
29.07.2019 12:06 15,4 °C 91 % 1009,8 hPa 0,0 mm 2,5 km/h (1 Bft) W 270 ° 0 min 0,000 mm 1,2 UV-I 132 W/m² 13,9 °C 15,4 °C 4,8 km/h (1 Bft)
29.07.2019 12:07 15,4 °C 91 % 1009,8 hPa 0,0 mm 2,7 km/h (1 Bft) NW 306 ° 0 min 0,000 mm 1,2 UV-I 135 W/m² 13,9 °C 15,4 °C 4,8 km/h (1 Bft)
29.07.2019 12:08 15,4 °C 91 % 1009,8 hPa 0,0 mm 2,5 km/h (1 Bft) NW 306 ° 0 min 0,000 mm 1,2 UV-I 137 W/m² 13,9 °C 15,4 °C 4,8 km/h (1 Bft)
29.07.2019 12:09 15,4 °C 91 % 1009,8 hPa 0,0 mm 2,4 km/h (1 Bft) NW 309 ° 0 min 0,000 mm 1,3 UV-I 142 W/m² 13,9 °C 15,4 °C 3,2 km/h (1 Bft)
29.07.2019 12:10 15,4 °C 91 % 1009,7 hPa 0,0 mm 1,3 km/h (1 Bft) NW 309 ° 0 min 0,000 mm 1,3 UV-I 148 W/m² 13,9 °C 15,4 °C 3,2 km/h (1 Bft)
29.07.2019 12:11 15,3 °C 91 % 1009,7 hPa 0,0 mm 1,0 km/h (0 Bft) NW 309 ° 0 min 0,000 mm 1,3 UV-I 156 W/m² 13,8 °C 15,3 °C 1,6 km/h (1 Bft)
29.07.2019 12:12 15,3 °C 91 % 1009,8 hPa 0,0 mm 0,0 km/h (0 Bft) NW 309 ° 0 min 0,000 mm 1,4 UV-I 162 W/m² 13,8 °C 15,3 °C 0,0 km/h (0 Bft)
29.07.2019 12:13 15,3 °C 91 % 1009,8 hPa 0,0 mm 0,0 km/h (0 Bft) NW 309 ° 0 min 0,000 mm 1,4 UV-I 165 W/m² 13,8 °C 15,3 °C 0,0 km/h (0 Bft)
29.07.2019 12:14 15,4 °C 91 % 1009,7 hPa 0,0 mm 0,0 km/h (0 Bft) NW 309 ° 0 min 0,000 mm 1,5 UV-I 169 W/m² 13,9 °C 15,4 °C 0,0 km/h (0 Bft)
29.07.2019 12:15 15,4 °C 91 % 1009,7 hPa 0,0 mm 0,0 km/h (0 Bft) NW 309 ° 0 min 0,000 mm 1,5 UV-I 171 W/m² 13,9 °C 15,4 °C 0,0 km/h (0 Bft)
29.07.2019 12:16 15,4 °C 91 % 1009,7 hPa 0,0 mm 1,8 km/h (1 Bft) NW 310 ° 0 min 0,000 mm 1,5 UV-I 174 W/m² 13,9 °C 15,4 °C 3,2 km/h (1 Bft)
29.07.2019 12:17 15,5 °C 91 % 1009,7 hPa 0,0 mm 2,5 km/h (1 Bft) NW 309 ° 0 min 0,000 mm 1,5 UV-I 176 W/m² 14,0 °C 15,5 °C 4,8 km/h (1 Bft)
29.07.2019 12:18 15,6 °C 91 % 1009,7 hPa 0,0 mm 1,7 km/h (1 Bft) NW 309 ° 0 min 0,000 mm 1,5 UV-I 176 W/m² 14,1 °C 15,6 °C 3,2 km/h (1 Bft)
29.07.2019 12:19 15,6 °C 91 % 1009,7 hPa 0,0 mm 3,3 km/h (1 Bft) W-NW 296 ° 0 min 0,000 mm 1,5 UV-I 176 W/m² 14,1 °C 15,6 °C 4,8 km/h (1 Bft)
29.07.2019 12:20 15,6 °C 91 % 1009,8 hPa 0,0 mm 3,6 km/h (1 Bft) N-NW 341 ° 0 min 0,000 mm 1,5 UV-I 176 W/m² 14,1 °C 15,6 °C 6,4 km/h (2 Bft)
29.07.2019 12:21 15,5 °C 91 % 1009,8 hPa 0,0 mm 5,4 km/h (1 Bft) NW 322 ° 0 min 0,000 mm 1,5 UV-I 176 W/m² 14,0 °C 15,5 °C 8,0 km/h (2 Bft)
29.07.2019 12:22 15,5 °C 91 % 1009,8 hPa 0,0 mm 5,1 km/h (1 Bft) NW 321 ° 0 min 0,000 mm 1,6 UV-I 176 W/m² 14,0 °C 15,5 °C 8,0 km/h (2 Bft)
29.07.2019 12:23 15,6 °C 91 % 1009,8 hPa 0,0 mm 3,5 km/h (1 Bft) NW 315 ° 0 min 0,000 mm 1,6 UV-I 179 W/m² 14,1 °C 15,6 °C 4,8 km/h (1 Bft)
29.07.2019 12:24 15,6 °C 91 % 1009,8 hPa 0,0 mm 4,4 km/h (1 Bft) W-NW 294 ° 0 min 0,000 mm 1,6 UV-I 179 W/m² 14,1 °C 15,6 °C 6,4 km/h (2 Bft)
29.07.2019 12:25 15,6 °C 91 % 1009,8 hPa 0,0 mm 2,7 km/h (1 Bft) W-NW 284 ° 0 min 0,000 mm 1,5 UV-I 178 W/m² 14,1 °C 15,6 °C 4,8 km/h (1 Bft)
29.07.2019 12:26 15,6 °C 91 % 1009,8 hPa 0,0 mm 4,4 km/h (1 Bft) N-NW 331 ° 0 min 0,000 mm 1,5 UV-I 176 W/m² 14,1 °C 15,6 °C 9,7 km/h (2 Bft)
29.07.2019 12:27 15,6 °C 91 % 1009,7 hPa 0,0 mm 3,0 km/h (1 Bft) NW 309 ° 0 min 0,000 mm 1,5 UV-I 172 W/m² 14,1 °C 15,6 °C 4,8 km/h (1 Bft)
29.07.2019 12:28 15,6 °C 91 % 1009,8 hPa 0,0 mm 2,2 km/h (1 Bft) NW 308 ° 0 min 0,000 mm 1,5 UV-I 171 W/m² 14,1 °C 15,6 °C 3,2 km/h (1 Bft)
29.07.2019 12:29 15,5 °C 90 % 1009,8 hPa 0,0 mm 0,9 km/h (0 Bft) NW 308 ° 0 min 0,000 mm 1,5 UV-I 169 W/m² 13,9 °C 15,5 °C 3,2 km/h (1 Bft)
29.07.2019 12:30 15,5 °C 91 % 1009,8 hPa 0,0 mm 3,8 km/h (1 Bft) NW 311 ° 0 min 0,000 mm 1,5 UV-I 169 W/m² 14,0 °C 15,5 °C 6,4 km/h (2 Bft)
29.07.2019 12:31 15,6 °C 91 % 1009,8 hPa 0,0 mm 3,8 km/h (1 Bft) W 265 ° 0 min 0,000 mm 1,4 UV-I 163 W/m² 14,1 °C 15,6 °C 4,8 km/h (1 Bft)
29.07.2019 12:32 15,6 °C 90 % 1009,8 hPa 0,0 mm 3,9 km/h (1 Bft) W-NW 292 ° 0 min 0,000 mm 1,4 UV-I 160 W/m² 14,0 °C 15,6 °C 6,4 km/h (2 Bft)
29.07.2019 12:33 15,6 °C 90 % 1009,8 hPa 0,0 mm 4,8 km/h (1 Bft) W-NW 283 ° 0 min 0,000 mm 1,4 UV-I 158 W/m² 14,0 °C 15,6 °C 6,4 km/h (2 Bft)
29.07.2019 12:34 15,6 °C 90 % 1009,8 hPa 0,0 mm 3,4 km/h (1 Bft) W 280 ° 0 min 0,000 mm 1,4 UV-I 155 W/m² 14,0 °C 15,6 °C 4,8 km/h (1 Bft)
29.07.2019 12:35 15,6 °C 90 % 1009,8 hPa 0,0 mm 5,4 km/h (1 Bft) W-NW 284 ° 0 min 0,000 mm 1,4 UV-I 155 W/m² 14,0 °C 15,6 °C 9,7 km/h (2 Bft)
29.07.2019 12:36 15,6 °C 90 % 1009,8 hPa 0,0 mm 3,0 km/h (1 Bft) W-SW 257 ° 0 min 0,000 mm 1,4 UV-I 155 W/m² 14,0 °C 15,6 °C 6,4 km/h (2 Bft)
29.07.2019 12:37 15,5 °C 90 % 1009,8 hPa 0,0 mm 3,2 km/h (1 Bft) W 267 ° 0 min 0,000 mm 1,4 UV-I 158 W/m² 13,9 °C 15,5 °C 4,8 km/h (1 Bft)
29.07.2019 12:38 15,5 °C 90 % 1009,8 hPa 0,0 mm 3,6 km/h (1 Bft) W 267 ° 0 min 0,000 mm 1,4 UV-I 160 W/m² 13,9 °C 15,5 °C 4,8 km/h (1 Bft)
29.07.2019 12:39 15,5 °C 90 % 1009,8 hPa 0,0 mm 5,0 km/h (1 Bft) W 267 ° 0 min 0,000 mm 1,5 UV-I 163 W/m² 13,9 °C 15,5 °C 6,4 km/h (2 Bft)
29.07.2019 12:40 15,6 °C 90 % 1009,8 hPa 0,0 mm 2,0 km/h (1 Bft) W 267 ° 0 min 0,000 mm 1,5 UV-I 171 W/m² 14,0 °C 15,6 °C 3,2 km/h (1 Bft)
29.07.2019 12:41 15,6 °C 91 % 1009,7 hPa 0,0 mm 0,0 km/h (0 Bft) W 267 ° 0 min 0,000 mm 1,5 UV-I 172 W/m² 14,1 °C 15,6 °C 0,0 km/h (0 Bft)
29.07.2019 12:42 15,6 °C 91 % 1009,8 hPa 0,0 mm 0,0 km/h (0 Bft) W 267 ° 0 min 0,000 mm 1,5 UV-I 172 W/m² 14,1 °C 15,6 °C 0,0 km/h (0 Bft)
29.07.2019 12:43 15,6 °C 90 % 1009,8 hPa 0,0 mm 0,8 km/h (0 Bft) W 267 ° 0 min 0,000 mm 1,5 UV-I 172 W/m² 14,0 °C 15,6 °C 4,8 km/h (1 Bft)
29.07.2019 12:44 15,6 °C 90 % 1009,7 hPa 0,0 mm 4,3 km/h (1 Bft) W 267 ° 0 min 0,000 mm 1,5 UV-I 174 W/m² 14,0 °C 15,6 °C 4,8 km/h (1 Bft)
29.07.2019 12:45 15,6 °C 90 % 1009,7 hPa 0,0 mm 2,1 km/h (1 Bft) W 267 ° 0 min 0,000 mm 1,5 UV-I 174 W/m² 14,0 °C 15,6 °C 3,2 km/h (1 Bft)
29.07.2019 12:46 15,7 °C 91 % 1009,7 hPa 0,0 mm 2,9 km/h (1 Bft) W 267 ° 0 min 0,000 mm 1,5 UV-I 171 W/m² 14,2 °C 15,7 °C 3,2 km/h (1 Bft)
29.07.2019 12:47 15,7 °C 90 % 1009,7 hPa 0,0 mm 1,4 km/h (1 Bft) W 267 ° 0 min 0,000 mm 1,5 UV-I 169 W/m² 14,1 °C 15,7 °C 3,2 km/h (1 Bft)
29.07.2019 12:48 15,7 °C 90 % 1009,7 hPa 0,0 mm 3,2 km/h (1 Bft) W 267 ° 0 min 0,000 mm 1,5 UV-I 167 W/m² 14,1 °C 15,7 °C 3,2 km/h (1 Bft)
29.07.2019 12:49 15,6 °C 90 % 1009,7 hPa 0,0 mm 1,4 km/h (1 Bft) W 267 ° 0 min 0,000 mm 1,5 UV-I 165 W/m² 14,0 °C 15,6 °C 3,2 km/h (1 Bft)
29.07.2019 12:50 15,6 °C 91 % 1009,8 hPa 0,0 mm 0,1 km/h (0 Bft) W 267 ° 0 min 0,000 mm 1,4 UV-I 162 W/m² 14,1 °C 15,6 °C 1,6 km/h (1 Bft)
29.07.2019 12:51 15,7 °C 91 % 1009,7 hPa 0,0 mm 0,7 km/h (0 Bft) W 267 ° 0 min 0,000 mm 1,4 UV-I 158 W/m² 14,2 °C 15,7 °C 1,6 km/h (1 Bft)
29.07.2019 12:52 15,8 °C 91 % 1009,7 hPa 0,0 mm 0,3 km/h (0 Bft) W 267 ° 0 min 0,000 mm 1,4 UV-I 155 W/m² 14,3 °C 15,8 °C 1,6 km/h (1 Bft)
29.07.2019 12:53 15,8 °C 91 % 1009,8 hPa 0,0 mm 0,2 km/h (0 Bft) W 267 ° 0 min 0,000 mm 1,4 UV-I 153 W/m² 14,3 °C 15,8 °C 1,6 km/h (1 Bft)
29.07.2019 12:54 15,8 °C 91 % 1009,7 hPa 0,0 mm 0,3 km/h (0 Bft) W 267 ° 0 min 0,000 mm 1,4 UV-I 153 W/m² 14,3 °C 15,8 °C 1,6 km/h (1 Bft)
29.07.2019 12:55 15,8 °C 91 % 1009,7 hPa 0,0 mm 1,0 km/h (0 Bft) W 266 ° 0 min 0,000 mm 1,3 UV-I 151 W/m² 14,3 °C 15,8 °C 3,2 km/h (1 Bft)
29.07.2019 12:56 15,8 °C 91 % 1009,7 hPa 0,0 mm 2,5 km/h (1 Bft) W 267 ° 0 min 0,000 mm 1,4 UV-I 153 W/m² 14,3 °C 15,8 °C 4,8 km/h (1 Bft)
29.07.2019 12:57 15,8 °C 90 % 1009,7 hPa 0,0 mm 0,7 km/h (0 Bft) W 267 ° 0 min 0,000 mm 1,4 UV-I 155 W/m² 14,2 °C 15,8 °C 1,6 km/h (1 Bft)
29.07.2019 12:58 15,8 °C 90 % 1009,7 hPa 0,0 mm 0,4 km/h (0 Bft) W 267 ° 0 min 0,000 mm 1,4 UV-I 160 W/m² 14,2 °C 15,8 °C 1,6 km/h (1 Bft)
29.07.2019 12:59 15,8 °C 90 % 1009,7 hPa 0,0 mm 0,0 km/h (0 Bft) W 267 ° 0 min 0,000 mm 1,5 UV-I 163 W/m² 14,2 °C 15,8 °C 0,0 km/h (0 Bft)
29.07.2019 13:00 15,7 °C 90 % 1009,7 hPa 0,0 mm 0,0 km/h (0 Bft) W 267 ° 0 min 0,000 mm 1,5 UV-I 165 W/m² 14,1 °C 15,7 °C 0,0 km/h (0 Bft)
29.07.2019 13:01 15,7 °C 90 % 1009,7 hPa 0,0 mm 1,4 km/h (1 Bft) W 267 ° 0 min 0,076 mm 1,5 UV-I 167 W/m² 14,1 °C 15,7 °C 3,2 km/h (1 Bft)
29.07.2019 13:02 15,8 °C 90 % 1009,7 hPa 0,0 mm 1,7 km/h (1 Bft) W 267 ° 0 min 0,000 mm 1,5 UV-I 169 W/m² 14,2 °C 15,8 °C 3,2 km/h (1 Bft)
29.07.2019 13:04 15,8 °C 90 % 1009,7 hPa 0,0 mm 0,7 km/h (0 Bft) W 267 ° 0 min 0,000 mm 1,5 UV-I 172 W/m² 14,2 °C 15,8 °C 1,6 km/h (1 Bft)
29.07.2019 13:05 15,8 °C 90 % 1009,7 hPa 0,0 mm 0,7 km/h (0 Bft) W 267 ° 0 min 0,000 mm 1,6 UV-I 176 W/m² 14,2 °C 15,8 °C 1,6 km/h (1 Bft)
29.07.2019 13:06 15,8 °C 90 % 1009,7 hPa 0,0 mm 0,1 km/h (0 Bft) W 267 ° 0 min 0,000 mm 1,6 UV-I 179 W/m² 14,2 °C 15,8 °C 1,6 km/h (1 Bft)
29.07.2019 13:07 15,8 °C 90 % 1009,7 hPa 0,0 mm 2,2 km/h (1 Bft) W 275 ° 0 min 0,000 mm 1,6 UV-I 183 W/m² 14,2 °C 15,8 °C 3,2 km/h (1 Bft)
29.07.2019 13:08 15,8 °C 90 % 1009,6 hPa 0,0 mm 1,7 km/h (1 Bft) W 275 ° 0 min 0,000 mm 1,7 UV-I 186 W/m² 14,2 °C 15,8 °C 3,2 km/h (1 Bft)
29.07.2019 13:09 15,8 °C 90 % 1009,7 hPa 0,0 mm 2,7 km/h (1 Bft) W 275 ° 0 min 0,000 mm 1,7 UV-I 188 W/m² 14,2 °C 15,8 °C 3,2 km/h (1 Bft)
29.07.2019 13:10 15,8 °C 90 % 1009,7 hPa 0,0 mm 0,4 km/h (0 Bft) W 275 ° 0 min 0,000 mm 1,7 UV-I 186 W/m² 14,2 °C 15,8 °C 3,2 km/h (1 Bft)
29.07.2019 13:11 15,8 °C 90 % 1009,6 hPa 0,0 mm 0,0 km/h (0 Bft) W 275 ° 0 min 0,000 mm 1,7 UV-I 186 W/m² 14,2 °C 15,8 °C 0,0 km/h (0 Bft)
29.07.2019 13:12 15,8 °C 90 % 1009,7 hPa 0,0 mm 0,0 km/h (0 Bft) W 275 ° 0 min 0,000 mm 1,7 UV-I 188 W/m² 14,2 °C 15,8 °C 0,0 km/h (0 Bft)
29.07.2019 13:13 15,9 °C 90 % 1009,7 hPa 0,0 mm 0,0 km/h (0 Bft) W 275 ° 0 min 0,000 mm 1,7 UV-I 190 W/m² 14,3 °C 15,9 °C 0,0 km/h (0 Bft)
29.07.2019 13:14 15,8 °C 90 % 1009,7 hPa 0,0 mm 2,3 km/h (1 Bft) W 275 ° 0 min 0,000 mm 1,7 UV-I 192 W/m² 14,2 °C 15,8 °C 3,2 km/h (1 Bft)
29.07.2019 13:15 15,8 °C 91 % 1009,7 hPa 0,0 mm 2,3 km/h (1 Bft) W 275 ° 0 min 0,000 mm 1,7 UV-I 200 W/m² 14,3 °C 15,8 °C 4,8 km/h (1 Bft)
29.07.2019 13:16 15,8 °C 90 % 1009,7 hPa 0,0 mm 2,3 km/h (1 Bft) W 271 ° 0 min 0,000 mm 1,8 UV-I 207 W/m² 14,2 °C 15,8 °C 3,2 km/h (1 Bft)
29.07.2019 13:17 15,8 °C 90 % 1009,7 hPa 0,0 mm 2,2 km/h (1 Bft) W 271 ° 0 min 0,000 mm 1,9 UV-I 216 W/m² 14,2 °C 15,8 °C 3,2 km/h (1 Bft)
29.07.2019 13:18 15,8 °C 90 % 1009,7 hPa 0,0 mm 1,7 km/h (1 Bft) W 271 ° 0 min 0,000 mm 2,0 UV-I 225 W/m² 14,2 °C 15,8 °C 4,8 km/h (1 Bft)
29.07.2019 13:19 15,9 °C 90 % 1009,7 hPa 0,0 mm 1,5 km/h (1 Bft) W 271 ° 0 min 0,000 mm 2,1 UV-I 236 W/m² 14,3 °C 15,9 °C 4,8 km/h (1 Bft)
29.07.2019 13:20 15,9 °C 91 % 1009,7 hPa 0,0 mm 2,0 km/h (1 Bft) W 272 ° 0 min 0,000 mm 2,2 UV-I 246 W/m² 14,4 °C 15,9 °C 3,2 km/h (1 Bft)
29.07.2019 13:21 15,9 °C 91 % 1009,7 hPa 0,0 mm 2,4 km/h (1 Bft) W 272 ° 0 min 0,000 mm 2,2 UV-I 255 W/m² 14,4 °C 15,9 °C 4,8 km/h (1 Bft)
29.07.2019 13:22 16,0 °C 90 % 1009,7 hPa 0,0 mm 3,0 km/h (1 Bft) W 272 ° 0 min 0,000 mm 2,2 UV-I 253 W/m² 14,4 °C 16,0 °C 3,2 km/h (1 Bft)
29.07.2019 13:23 16,0 °C 90 % 1009,7 hPa 0,0 mm 3,4 km/h (1 Bft) W 272 ° 0 min 0,000 mm 2,2 UV-I 250 W/m² 14,4 °C 16,0 °C 4,8 km/h (1 Bft)
29.07.2019 13:24 16,1 °C 90 % 1009,7 hPa 0,0 mm 0,6 km/h (0 Bft) W 272 ° 0 min 0,000 mm 2,2 UV-I 246 W/m² 14,5 °C 16,1 °C 1,6 km/h (1 Bft)
29.07.2019 13:25 16,1 °C 90 % 1009,7 hPa 0,0 mm 1,1 km/h (1 Bft) W 272 ° 0 min 0,000 mm 2,2 UV-I 243 W/m² 14,5 °C 16,1 °C 3,2 km/h (1 Bft)
29.07.2019 13:26 16,2 °C 90 % 1009,8 hPa 0,0 mm 2,4 km/h (1 Bft) W 272 ° 0 min 0,000 mm 2,2 UV-I 243 W/m² 14,6 °C 16,2 °C 4,8 km/h (1 Bft)
29.07.2019 13:27 16,2 °C 90 % 1009,7 hPa 0,0 mm 2,3 km/h (1 Bft) W 272 ° 0 min 0,000 mm 2,2 UV-I 248 W/m² 14,6 °C 16,2 °C 3,2 km/h (1 Bft)
29.07.2019 13:28 16,1 °C 90 % 1009,7 hPa 0,0 mm 2,3 km/h (1 Bft) W 272 ° 0 min 0,000 mm 2,2 UV-I 250 W/m² 14,5 °C 16,1 °C 3,2 km/h (1 Bft)
29.07.2019 13:29 16,1 °C 89 % 1009,7 hPa 0,0 mm 0,3 km/h (0 Bft) W 272 ° 0 min 0,000 mm 2,3 UV-I 253 W/m² 14,3 °C 16,1 °C 1,6 km/h (1 Bft)
29.07.2019 13:30 16,1 °C 89 % 1009,8 hPa 0,0 mm 0,0 km/h (0 Bft) W 272 ° 0 min 0,000 mm 2,3 UV-I 258 W/m² 14,3 °C 16,1 °C 0,0 km/h (0 Bft)
29.07.2019 13:31 16,1 °C 89 % 1009,7 hPa 0,0 mm 0,0 km/h (0 Bft) W 272 ° 0 min 0,000 mm 2,4 UV-I 264 W/m² 14,3 °C 16,1 °C 0,0 km/h (0 Bft)
29.07.2019 13:32 16,1 °C 89 % 1009,7 hPa 0,0 mm 1,6 km/h (1 Bft) W 272 ° 0 min 0,000 mm 2,4 UV-I 269 W/m² 14,3 °C 16,1 °C 4,8 km/h (1 Bft)
29.07.2019 13:33 16,1 °C 89 % 1009,7 hPa 0,0 mm 2,1 km/h (1 Bft) W 272 ° 0 min 0,000 mm 2,5 UV-I 281 W/m² 14,3 °C 16,1 °C 4,8 km/h (1 Bft)
29.07.2019 13:34 16,2 °C 90 % 1009,7 hPa 0,0 mm 0,0 km/h (0 Bft) W 272 ° 0 min 0,000 mm 2,6 UV-I 287 W/m² 14,6 °C 16,2 °C 0,0 km/h (0 Bft)
29.07.2019 13:35 16,1 °C 90 % 1009,7 hPa 0,0 mm 0,0 km/h (0 Bft) W 272 ° 0 min 0,000 mm 2,6 UV-I 292 W/m² 14,5 °C 16,1 °C 0,0 km/h (0 Bft)
29.07.2019 13:36 16,2 °C 90 % 1009,7 hPa 0,0 mm 0,1 km/h (0 Bft) W 272 ° 0 min 0,000 mm 2,6 UV-I 295 W/m² 14,6 °C 16,2 °C 1,6 km/h (1 Bft)
29.07.2019 13:37 16,2 °C 90 % 1009,7 hPa 0,0 mm 0,7 km/h (0 Bft) W 272 ° 0 min 0,000 mm 2,7 UV-I 295 W/m² 14,6 °C 16,2 °C 3,2 km/h (1 Bft)
29.07.2019 13:38 16,2 °C 89 % 1009,7 hPa 0,0 mm 1,5 km/h (1 Bft) W 272 ° 0 min 0,000 mm 2,6 UV-I 294 W/m² 14,4 °C 16,2 °C 3,2 km/h (1 Bft)
29.07.2019 13:39 16,2 °C 89 % 1009,7 hPa 0,0 mm 3,4 km/h (1 Bft) W 272 ° 0 min 0,000 mm 2,6 UV-I 285 W/m² 14,4 °C 16,2 °C 4,8 km/h (1 Bft)
29.07.2019 13:40 16,3 °C 90 % 1009,7 hPa 0,0 mm 1,9 km/h (1 Bft) W 272 ° 0 min 0,000 mm 2,5 UV-I 283 W/m² 14,7 °C 16,3 °C 3,2 km/h (1 Bft)
29.07.2019 13:41 16,2 °C 89 % 1009,7 hPa 0,0 mm 1,4 km/h (1 Bft) W 272 ° 0 min 0,000 mm 2,6 UV-I 285 W/m² 14,4 °C 16,2 °C 3,2 km/h (1 Bft)
29.07.2019 13:42 16,2 °C 89 % 1009,7 hPa 0,0 mm 1,7 km/h (1 Bft) W 272 ° 0 min 0,000 mm 2,6 UV-I 288 W/m² 14,4 °C 16,2 °C 4,8 km/h (1 Bft)
29.07.2019 13:43 16,2 °C 89 % 1009,7 hPa 0,0 mm 2,4 km/h (1 Bft) W 272 ° 0 min 0,000 mm 2,7 UV-I 295 W/m² 14,4 °C 16,2 °C 4,8 km/h (1 Bft)
29.07.2019 13:44 16,2 °C 89 % 1009,7 hPa 0,0 mm 1,1 km/h (1 Bft) W 272 ° 0 min 0,000 mm 2,7 UV-I 306 W/m² 14,4 °C 16,2 °C 3,2 km/h (1 Bft)
29.07.2019 13:45 16,2 °C 89 % 1009,7 hPa 0,0 mm 0,1 km/h (0 Bft) W 272 ° 0 min 0,000 mm 2,9 UV-I 334 W/m² 14,4 °C 16,2 °C 1,6 km/h (1 Bft)
29.07.2019 13:46 16,2 °C 89 % 1009,6 hPa 0,0 mm 1,7 km/h (1 Bft) W 272 ° 0 min 0,000 mm 3,1 UV-I 348 W/m² 14,4 °C 16,2 °C 3,2 km/h (1 Bft)
29.07.2019 13:47 16,3 °C 89 % 1009,7 hPa 0,0 mm 1,9 km/h (1 Bft) W 272 ° 0 min 0,000 mm 3,1 UV-I 359 W/m² 14,5 °C 16,3 °C 3,2 km/h (1 Bft)
29.07.2019 13:48 16,3 °C 89 % 1009,7 hPa 0,0 mm 2,1 km/h (1 Bft) W 272 ° 0 min 0,000 mm 3,2 UV-I 359 W/m² 14,5 °C 16,3 °C 3,2 km/h (1 Bft)
29.07.2019 13:49 16,3 °C 89 % 1009,6 hPa 0,0 mm 0,7 km/h (0 Bft) W 272 ° 0 min 0,000 mm 3,2 UV-I 364 W/m² 14,5 °C 16,3 °C 3,2 km/h (1 Bft)
29.07.2019 13:50 16,4 °C 90 % 1009,6 hPa 0,0 mm 0,0 km/h (0 Bft) W 272 ° 0 min 0,000 mm 3,2 UV-I 360 W/m² 14,8 °C 16,4 °C 0,0 km/h (0 Bft)
29.07.2019 13:51 16,3 °C 89 % 1009,7 hPa 0,0 mm 1,8 km/h (1 Bft) W-SW 248 ° 0 min 0,000 mm 3,1 UV-I 357 W/m² 14,5 °C 16,3 °C 3,2 km/h (1 Bft)
29.07.2019 13:52 16,3 °C 89 % 1009,7 hPa 0,0 mm 1,7 km/h (1 Bft) W-SW 248 ° 0 min 0,000 mm 3,0 UV-I 350 W/m² 14,5 °C 16,3 °C 3,2 km/h (1 Bft)
29.07.2019 13:53 16,3 °C 89 % 1009,7 hPa 0,0 mm 0,1 km/h (0 Bft) W-SW 248 ° 0 min 0,000 mm 3,0 UV-I 345 W/m² 14,5 °C 16,3 °C 1,6 km/h (1 Bft)
29.07.2019 13:54 16,3 °C 89 % 1009,6 hPa 0,0 mm 0,5 km/h (0 Bft) W-SW 248 ° 0 min 0,000 mm 3,0 UV-I 345 W/m² 14,5 °C 16,3 °C 1,6 km/h (1 Bft)
29.07.2019 13:55 16,4 °C 89 % 1009,7 hPa 0,0 mm 0,0 km/h (0 Bft) W-SW 248 ° 0 min 0,000 mm 3,0 UV-I 345 W/m² 14,6 °C 16,4 °C 0,0 km/h (0 Bft)
29.07.2019 13:56 16,4 °C 88 % 1009,7 hPa 0,0 mm 0,0 km/h (0 Bft) W-SW 248 ° 0 min 0,000 mm 3,0 UV-I 350 W/m² 14,4 °C 16,4 °C 0,0 km/h (0 Bft)
29.07.2019 13:57 16,4 °C 89 % 1009,6 hPa 0,0 mm 0,0 km/h (0 Bft) W-SW 248 ° 0 min 0,000 mm 3,0 UV-I 357 W/m² 14,6 °C 16,4 °C 0,0 km/h (0 Bft)
29.07.2019 13:58 16,4 °C 89 % 1009,7 hPa 0,0 mm 1,6 km/h (1 Bft) W-SW 249 ° 0 min 0,000 mm 3,1 UV-I 364 W/m² 14,6 °C 16,4 °C 3,2 km/h (1 Bft)
29.07.2019 13:59 16,6 °C 89 % 1009,6 hPa 0,0 mm 1,0 km/h (0 Bft) W-SW 249 ° 0 min 0,000 mm 3,1 UV-I 366 W/m² 14,8 °C 16,6 °C 3,2 km/h (1 Bft)
29.07.2019 14:00 16,6 °C 88 % 1009,6 hPa 0,0 mm 2,8 km/h (1 Bft) W-SW 249 ° 0 min 0,000 mm 3,1 UV-I 367 W/m² 14,6 °C 16,6 °C 3,2 km/h (1 Bft)
29.07.2019 14:01 16,7 °C 88 % 1009,6 hPa 0,0 mm 0,5 km/h (0 Bft) W-SW 249 ° 0 min 0,152 mm 3,1 UV-I 366 W/m² 14,7 °C 16,7 °C 1,6 km/h (1 Bft)
29.07.2019 14:02 16,7 °C 87 % 1009,6 hPa 0,0 mm 0,2 km/h (0 Bft) W-SW 249 ° 0 min 0,000 mm 3,0 UV-I 352 W/m² 14,5 °C 16,7 °C 1,6 km/h (1 Bft)
29.07.2019 14:03 16,7 °C 88 % 1009,6 hPa 0,0 mm 0,2 km/h (0 Bft) W-SW 249 ° 0 min 0,000 mm 3,0 UV-I 345 W/m² 14,7 °C 16,7 °C 1,6 km/h (1 Bft)
29.07.2019 14:04 16,8 °C 87 % 1009,5 hPa 0,0 mm 0,7 km/h (0 Bft) W-SW 249 ° 0 min 0,000 mm 3,0 UV-I 341 W/m² 14,6 °C 16,8 °C 1,6 km/h (1 Bft)
29.07.2019 14:05 16,8 °C 86 % 1009,6 hPa 0,0 mm 0,4 km/h (0 Bft) W-SW 250 ° 0 min 0,000 mm 3,0 UV-I 339 W/m² 14,4 °C 16,8 °C 3,2 km/h (1 Bft)
29.07.2019 14:06 16,9 °C 88 % 1009,5 hPa 0,0 mm 3,1 km/h (1 Bft) N 5 ° 0 min 0,000 mm 3,0 UV-I 341 W/m² 14,9 °C 16,9 °C 4,8 km/h (1 Bft)
29.07.2019 14:07 17,1 °C 87 % 1009,6 hPa 0,0 mm 0,8 km/h (0 Bft) N 5 ° 0 min 0,000 mm 3,1 UV-I 346 W/m² 14,9 °C 17,1 °C 3,2 km/h (1 Bft)
29.07.2019 14:08 17,1 °C 87 % 1009,5 hPa 0,0 mm 1,3 km/h (1 Bft) N-NO 24 ° 0 min 0,000 mm 3,1 UV-I 359 W/m² 14,9 °C 17,1 °C 4,8 km/h (1 Bft)
29.07.2019 14:09 17,0 °C 87 % 1009,5 hPa 0,0 mm 3,4 km/h (1 Bft) N-NO 24 ° 0 min 0,000 mm 3,2 UV-I 367 W/m² 14,8 °C 17,0 °C 4,8 km/h (1 Bft)
29.07.2019 14:10 16,9 °C 86 % 1009,6 hPa 0,0 mm 3,0 km/h (1 Bft) N-NO 24 ° 0 min 0,000 mm 3,3 UV-I 373 W/m² 14,5 °C 16,9 °C 3,2 km/h (1 Bft)
29.07.2019 14:11 16,9 °C 86 % 1009,6 hPa 0,0 mm 1,4 km/h (1 Bft) N-NO 24 ° 0 min 0,000 mm 3,3 UV-I 378 W/m² 14,5 °C 16,9 °C 3,2 km/h (1 Bft)
29.07.2019 14:12 16,9 °C 86 % 1009,6 hPa 0,0 mm 1,4 km/h (1 Bft) N-NO 24 ° 0 min 0,000 mm 3,4 UV-I 381 W/m² 14,5 °C 16,9 °C 1,6 km/h (1 Bft)
29.07.2019 14:13 16,9 °C 86 % 1009,5 hPa 0,0 mm 1,5 km/h (1 Bft) O-NO 68 ° 0 min 0,000 mm 3,4 UV-I 385 W/m² 14,5 °C 16,9 °C 4,8 km/h (1 Bft)
29.07.2019 14:14 16,9 °C 87 % 1009,5 hPa 0,0 mm 1,7 km/h (1 Bft) O-NO 69 ° 0 min 0,000 mm 3,4 UV-I 390 W/m² 14,7 °C 16,9 °C 3,2 km/h (1 Bft)
29.07.2019 14:15 17,1 °C 87 % 1009,5 hPa 0,0 mm 2,5 km/h (1 Bft) NO 38 ° 0 min 0,000 mm 3,5 UV-I 397 W/m² 14,9 °C 17,1 °C 4,8 km/h (1 Bft)
29.07.2019 14:16 17,1 °C 88 % 1009,5 hPa 0,0 mm 2,5 km/h (1 Bft) NO 38 ° 0 min 0,000 mm 3,6 UV-I 408 W/m² 15,1 °C 17,1 °C 4,8 km/h (1 Bft)
29.07.2019 14:17 17,2 °C 86 % 1009,5 hPa 0,0 mm 4,8 km/h (1 Bft) N-NO 28 ° 0 min 0,000 mm 3,7 UV-I 422 W/m² 14,8 °C 17,2 °C 6,4 km/h (2 Bft)
29.07.2019 14:18 17,2 °C 85 % 1009,6 hPa 0,0 mm 5,3 km/h (1 Bft) N 5 ° 0 min 0,000 mm 3,9 UV-I 439 W/m² 14,7 °C 17,2 °C 6,4 km/h (2 Bft)
29.07.2019 14:19 17,3 °C 85 % 1009,6 hPa 0,0 mm 2,5 km/h (1 Bft) N 5 ° 0 min 0,000 mm 4,0 UV-I 455 W/m² 14,8 °C 17,3 °C 3,2 km/h (1 Bft)
29.07.2019 14:20 17,2 °C 84 % 1009,5 hPa 0,0 mm 1,0 km/h (0 Bft) N 5 ° 0 min 0,000 mm 4,1 UV-I 483 W/m² 14,5 °C 17,2 °C 3,2 km/h (1 Bft)
29.07.2019 14:21 17,2 °C 85 % 1009,5 hPa 0,0 mm 1,7 km/h (1 Bft) N 5 ° 0 min 0,000 mm 4,1 UV-I 487 W/m² 14,7 °C 17,2 °C 3,2 km/h (1 Bft)
29.07.2019 14:22 17,2 °C 86 % 1009,5 hPa 0,0 mm 1,5 km/h (1 Bft) N 5 ° 0 min 0,000 mm 4,1 UV-I 487 W/m² 14,8 °C 17,2 °C 3,2 km/h (1 Bft)
29.07.2019 14:23 17,2 °C 86 % 1009,5 hPa 0,0 mm 1,1 km/h (1 Bft) N 5 ° 0 min 0,000 mm 4,1 UV-I 487 W/m² 14,8 °C 17,2 °C 4,8 km/h (1 Bft)
29.07.2019 14:24 17,3 °C 86 % 1009,5 hPa 0,0 mm 0,6 km/h (0 Bft) N 5 ° 0 min 0,000 mm 4,1 UV-I 487 W/m² 14,9 °C 17,3 °C 4,8 km/h (1 Bft)
29.07.2019 14:25 17,3 °C 86 % 1009,5 hPa 0,0 mm 1,4 km/h (1 Bft) N-NO 17 ° 0 min 0,000 mm 4,2 UV-I 508 W/m² 14,9 °C 17,3 °C 4,8 km/h (1 Bft)
29.07.2019 14:26 17,4 °C 85 % 1009,4 hPa 0,0 mm 2,6 km/h (1 Bft) N-NO 17 ° 0 min 0,000 mm 4,3 UV-I 508 W/m² 14,8 °C 17,4 °C 4,8 km/h (1 Bft)
29.07.2019 14:27 17,4 °C 84 % 1009,4 hPa 0,0 mm 0,4 km/h (0 Bft) N-NO 17 ° 0 min 0,000 mm 4,4 UV-I 526 W/m² 14,7 °C 17,4 °C 1,6 km/h (1 Bft)
29.07.2019 14:28 17,4 °C 84 % 1009,4 hPa 0,0 mm 1,6 km/h (1 Bft) N 5 ° 0 min 0,000 mm 4,7 UV-I 582 W/m² 14,7 °C 17,4 °C 3,2 km/h (1 Bft)
29.07.2019 14:29 17,5 °C 85 % 1009,4 hPa 0,0 mm 5,0 km/h (1 Bft) N 5 ° 1 min 0,000 mm 5,3 UV-I 624 W/m² 14,9 °C 17,5 °C 6,4 km/h (2 Bft)
29.07.2019 14:30 17,6 °C 84 % 1009,5 hPa 0,0 mm 2,7 km/h (1 Bft) N-NO 22 ° 1 min 0,000 mm 5,0 UV-I 603 W/m² 14,9 °C 17,6 °C 6,4 km/h (2 Bft)
29.07.2019 14:31 17,6 °C 85 % 1009,5 hPa 0,0 mm 1,9 km/h (1 Bft) N-NO 29 ° 0 min 0,000 mm 4,7 UV-I 599 W/m² 15,0 °C 17,6 °C 4,8 km/h (1 Bft)
29.07.2019 14:32 17,6 °C 83 % 1009,5 hPa 0,0 mm 0,0 km/h (0 Bft) N-NO 29 ° 0 min 0,000 mm 4,4 UV-I 527 W/m² 14,7 °C 17,6 °C 0,0 km/h (0 Bft)
29.07.2019 14:33 17,6 °C 84 % 1009,5 hPa 0,0 mm 0,2 km/h (0 Bft) O-NO 59 ° 0 min 0,000 mm 4,3 UV-I 508 W/m² 14,9 °C 17,6 °C 1,6 km/h (1 Bft)
29.07.2019 14:34 17,6 °C 85 % 1009,5 hPa 0,0 mm 5,3 km/h (1 Bft) O-NO 58 ° 0 min 0,000 mm 4,3 UV-I 503 W/m² 15,0 °C 17,6 °C 8,0 km/h (2 Bft)
29.07.2019 14:35 17,4 °C 84 % 1009,5 hPa 0,0 mm 2,8 km/h (1 Bft) O-NO 58 ° 0 min 0,000 mm 4,5 UV-I 517 W/m² 14,7 °C 17,4 °C 4,8 km/h (1 Bft)
29.07.2019 14:36 17,4 °C 84 % 1009,5 hPa 0,0 mm 0,6 km/h (0 Bft) O-NO 58 ° 0 min 0,000 mm 4,7 UV-I 563 W/m² 14,7 °C 17,4 °C 3,2 km/h (1 Bft)
29.07.2019 14:37 17,4 °C 86 % 1009,5 hPa 0,0 mm 0,0 km/h (0 Bft) O-NO 58 ° 1 min 0,000 mm 4,9 UV-I 679 W/m² 15,0 °C 17,4 °C 0,0 km/h (0 Bft)
29.07.2019 14:38 17,6 °C 85 % 1009,4 hPa 0,0 mm 0,3 km/h (0 Bft) O-NO 58 ° 1 min 0,000 mm 5,6 UV-I 779 W/m² 15,0 °C 17,6 °C 3,2 km/h (1 Bft)
29.07.2019 14:39 17,6 °C 85 % 1009,5 hPa 0,0 mm 2,1 km/h (1 Bft) O-NO 58 ° 1 min 0,000 mm 5,4 UV-I 779 W/m² 15,0 °C 17,6 °C 4,8 km/h (1 Bft)
29.07.2019 14:40 17,7 °C 85 % 1009,4 hPa 0,0 mm 2,3 km/h (1 Bft) O-NO 58 ° 1 min 0,000 mm 6,4 UV-I 779 W/m² 15,1 °C 17,7 °C 6,4 km/h (2 Bft)
29.07.2019 14:41 17,7 °C 85 % 1009,4 hPa 0,0 mm 3,1 km/h (1 Bft) O 81 ° 1 min 0,000 mm 5,9 UV-I 717 W/m² 15,1 °C 17,7 °C 6,4 km/h (2 Bft)
29.07.2019 14:42 17,7 °C 83 % 1009,4 hPa 0,0 mm 2,2 km/h (1 Bft) O 81 ° 1 min 0,000 mm 7,4 UV-I 717 W/m² 14,8 °C 17,7 °C 4,8 km/h (1 Bft)
29.07.2019 14:43 17,7 °C 83 % 1009,5 hPa 0,0 mm 0,0 km/h (0 Bft) O 81 ° 1 min 0,000 mm 6,2 UV-I 911 W/m² 14,8 °C 17,7 °C 0,0 km/h (0 Bft)
29.07.2019 14:44 17,8 °C 84 % 1009,4 hPa 0,0 mm 0,7 km/h (0 Bft) O 82 ° 1 min 0,000 mm 7,3 UV-I 911 W/m² 15,1 °C 17,8 °C 3,2 km/h (1 Bft)
29.07.2019 14:45 17,8 °C 85 % 1009,4 hPa 0,0 mm 2,7 km/h (1 Bft) O 82 ° 1 min 0,000 mm 7,2 UV-I 1067 W/m² 15,2 °C 17,8 °C 4,8 km/h (1 Bft)
29.07.2019 14:46 17,9 °C 84 % 1009,3 hPa 0,0 mm 0,9 km/h (0 Bft) O 88 ° 1 min 0,000 mm 6,9 UV-I 969 W/m² 15,2 °C 17,9 °C 3,2 km/h (1 Bft)
29.07.2019 14:47 18,1 °C 87 % 1009,3 hPa 0,0 mm 3,0 km/h (1 Bft) NO 35 ° 1 min 0,000 mm 6,6 UV-I 891 W/m² 15,9 °C 18,1 °C 6,4 km/h (2 Bft)
29.07.2019 14:48 18,3 °C 85 % 1009,3 hPa 0,0 mm 5,7 km/h (1 Bft) N-NW 346 ° 1 min 0,000 mm 6,6 UV-I 874 W/m² 15,7 °C 18,3 °C 8,0 km/h (2 Bft)
29.07.2019 14:49 18,3 °C 83 % 1009,4 hPa 0,0 mm 3,4 km/h (1 Bft) N-NO 13 ° 1 min 0,000 mm 6,4 UV-I 847 W/m² 15,4 °C 18,3 °C 6,4 km/h (2 Bft)
29.07.2019 14:50 18,4 °C 84 % 1009,3 hPa 0,0 mm 3,3 km/h (1 Bft) O-NO 65 ° 1 min 0,000 mm 6,1 UV-I 837 W/m² 15,6 °C 18,4 °C 6,4 km/h (2 Bft)
29.07.2019 14:51 18,3 °C 83 % 1009,3 hPa 0,0 mm 3,4 km/h (1 Bft) NO 46 ° 1 min 0,000 mm 5,9 UV-I 796 W/m² 15,4 °C 18,3 °C 6,4 km/h (2 Bft)
29.07.2019 14:52 18,2 °C 83 % 1009,4 hPa 0,0 mm 1,1 km/h (1 Bft) NO 47 ° 1 min 0,000 mm 5,9 UV-I 796 W/m² 15,3 °C 18,2 °C 1,6 km/h (1 Bft)
29.07.2019 14:53 18,2 °C 84 % 1009,4 hPa 0,0 mm 3,5 km/h (1 Bft) NO 45 ° 1 min 0,000 mm 4,4 UV-I 796 W/m² 15,4 °C 18,2 °C 6,4 km/h (2 Bft)
29.07.2019 14:54 18,2 °C 82 % 1009,4 hPa 0,0 mm 3,7 km/h (1 Bft) NO 52 ° 1 min 0,000 mm 4,4 UV-I 796 W/m² 15,1 °C 18,2 °C 6,4 km/h (2 Bft)
29.07.2019 14:55 18,1 °C 82 % 1009,4 hPa 0,0 mm 0,7 km/h (0 Bft) NO 52 ° 1 min 0,000 mm 5,7 UV-I 796 W/m² 15,0 °C 18,1 °C 3,2 km/h (1 Bft)
29.07.2019 14:56 18,1 °C 81 % 1009,4 hPa 0,0 mm 0,0 km/h (0 Bft) NO 52 ° 1 min 0,000 mm 6,9 UV-I 1007 W/m² 14,8 °C 18,1 °C 0,0 km/h (0 Bft)
29.07.2019 14:57 18,2 °C 83 % 1009,4 hPa 0,0 mm 0,0 km/h (0 Bft) NO 52 ° 1 min 0,000 mm 6,4 UV-I 1007 W/m² 15,3 °C 18,2 °C 0,0 km/h (0 Bft)
29.07.2019 14:58 18,3 °C 82 % 1009,4 hPa 0,0 mm 0,0 km/h (0 Bft) NO 52 ° 1 min 0,000 mm 6,8 UV-I 979 W/m² 15,2 °C 18,3 °C 0,0 km/h (0 Bft)
29.07.2019 14:59 18,3 °C 83 % 1009,3 hPa 0,0 mm 0,0 km/h (0 Bft) NO 52 ° 1 min 0,000 mm 6,4 UV-I 979 W/m² 15,4 °C 18,3 °C 0,0 km/h (0 Bft)
29.07.2019 15:00 18,4 °C 83 % 1009,4 hPa 0,0 mm 0,0 km/h (0 Bft) NO 52 ° 1 min 0,000 mm 4,8 UV-I 884 W/m² 15,5 °C 18,4 °C 0,0 km/h (0 Bft)
29.07.2019 15:01 18,4 °C 83 % 1009,3 hPa 0,0 mm 1,3 km/h (1 Bft) NO 52 ° 0 min 0,330 mm 4,2 UV-I 434 W/m² 15,5 °C 18,4 °C 4,8 km/h (1 Bft)
29.07.2019 15:02 18,3 °C 82 % 1009,4 hPa 0,0 mm 1,0 km/h (0 Bft) NO 52 ° 0 min 0,000 mm 5,4 UV-I 434 W/m² 15,2 °C 18,3 °C 4,8 km/h (1 Bft)
29.07.2019 15:03 18,3 °C 81 % 1009,4 hPa 0,0 mm 0,3 km/h (0 Bft) NO 52 ° 0 min 0,000 mm 5,6 UV-I 434 W/m² 15,0 °C 18,3 °C 1,6 km/h (1 Bft)
29.07.2019 15:04 18,3 °C 80 % 1009,3 hPa 0,0 mm 2,7 km/h (1 Bft) S 186 ° 1 min 0,000 mm 5,1 UV-I 635 W/m² 14,8 °C 18,3 °C 4,8 km/h (1 Bft)
29.07.2019 15:05 18,3 °C 82 % 1009,3 hPa 0,0 mm 0,3 km/h (0 Bft) SO 135 ° 1 min 0,000 mm 5,6 UV-I 635 W/m² 15,2 °C 18,3 °C 1,6 km/h (1 Bft)
29.07.2019 15:06 18,3 °C 81 % 1009,3 hPa 0,0 mm 3,7 km/h (1 Bft) N-NO 32 ° 1 min 0,000 mm 6,4 UV-I 635 W/m² 15,0 °C 18,3 °C 6,4 km/h (2 Bft)
29.07.2019 15:07 18,4 °C 83 % 1009,3 hPa 0,0 mm 5,6 km/h (1 Bft) NO 53 ° 0 min 0,000 mm 4,0 UV-I 369 W/m² 15,5 °C 18,4 °C 8,0 km/h (2 Bft)
29.07.2019 15:08 18,4 °C 83 % 1009,3 hPa 0,0 mm 3,4 km/h (1 Bft) N-NO 31 ° 0 min 0,000 mm 4,0 UV-I 376 W/m² 15,5 °C 18,4 °C 4,8 km/h (1 Bft)
29.07.2019 15:09 18,3 °C 82 % 1009,3 hPa 0,0 mm 4,2 km/h (1 Bft) NO 55 ° 0 min 0,000 mm 4,1 UV-I 406 W/m² 15,2 °C 18,3 °C 6,4 km/h (2 Bft)
29.07.2019 15:10 18,3 °C 83 % 1009,3 hPa 0,0 mm 4,6 km/h (1 Bft) O-SO 103 ° 0 min 0,000 mm 4,6 UV-I 475 W/m² 15,4 °C 18,3 °C 6,4 km/h (2 Bft)
29.07.2019 15:11 18,4 °C 84 % 1009,3 hPa 0,0 mm 4,1 km/h (1 Bft) SO 127 ° 0 min 0,000 mm 5,6 UV-I 475 W/m² 15,6 °C 18,4 °C 9,7 km/h (2 Bft)
29.07.2019 15:12 18,4 °C 82 % 1009,3 hPa 0,0 mm 2,9 km/h (1 Bft) SO 128 ° 0 min 0,000 mm 4,3 UV-I 475 W/m² 15,3 °C 18,4 °C 4,8 km/h (1 Bft)
29.07.2019 15:13 18,3 °C 82 % 1009,3 hPa 0,0 mm 3,0 km/h (1 Bft) SO 128 ° 0 min 0,000 mm 4,0 UV-I 403 W/m² 15,2 °C 18,3 °C 4,8 km/h (1 Bft)
29.07.2019 15:14 18,2 °C 82 % 1009,3 hPa 0,0 mm 5,0 km/h (1 Bft) S-SO 153 ° 0 min 0,000 mm 4,0 UV-I 429 W/m² 15,1 °C 18,2 °C 8,0 km/h (2 Bft)
29.07.2019 15:15 18,2 °C 82 % 1009,3 hPa 0,0 mm 2,3 km/h (1 Bft) O-NO 67 ° 0 min 0,000 mm 5,2 UV-I 429 W/m² 15,1 °C 18,2 °C 4,8 km/h (1 Bft)
29.07.2019 15:16 18,3 °C 85 % 1009,3 hPa 0,0 mm 1,9 km/h (1 Bft) N-NO 17 ° 1 min 0,000 mm 5,2 UV-I 654 W/m² 15,7 °C 18,3 °C 4,8 km/h (1 Bft)
29.07.2019 15:17 18,4 °C 84 % 1009,3 hPa 0,0 mm 4,8 km/h (1 Bft) N 11 ° 1 min 0,000 mm 5,0 UV-I 652 W/m² 15,6 °C 18,4 °C 6,4 km/h (2 Bft)
29.07.2019 15:18 18,6 °C 84 % 1009,3 hPa 0,0 mm 3,3 km/h (1 Bft) N-NO 21 ° 1 min 0,000 mm 5,0 UV-I 684 W/m² 15,8 °C 18,6 °C 6,4 km/h (2 Bft)
29.07.2019 15:19 18,7 °C 83 % 1009,3 hPa 0,0 mm 3,0 km/h (1 Bft) O-NO 64 ° 0 min 0,000 mm 3,9 UV-I 366 W/m² 15,8 °C 18,7 °C 4,8 km/h (1 Bft)
29.07.2019 15:20 18,7 °C 82 % 1009,3 hPa 0,0 mm 2,8 km/h (1 Bft) NO 50 ° 0 min 0,000 mm 3,6 UV-I 352 W/m² 15,6 °C 18,7 °C 6,4 km/h (2 Bft)
29.07.2019 15:21 18,6 °C 83 % 1009,3 hPa 0,0 mm 3,8 km/h (1 Bft) N-NO 21 ° 0 min 0,000 mm 3,6 UV-I 350 W/m² 15,7 °C 18,6 °C 6,4 km/h (2 Bft)
29.07.2019 15:22 18,6 °C 81 % 1009,3 hPa 0,0 mm 4,0 km/h (1 Bft) O-NO 71 ° 0 min 0,000 mm 4,0 UV-I 392 W/m² 15,3 °C 18,6 °C 6,4 km/h (2 Bft)
29.07.2019 15:23 18,5 °C 82 % 1009,2 hPa 0,0 mm 5,8 km/h (2 Bft) O-NO 64 ° 0 min 0,000 mm 5,3 UV-I 392 W/m² 15,4 °C 18,5 °C 9,7 km/h (2 Bft)
29.07.2019 15:24 18,4 °C 83 % 1009,2 hPa 0,0 mm 3,2 km/h (1 Bft) O-NO 59 ° 0 min 0,000 mm 5,0 UV-I 392 W/m² 15,5 °C 18,4 °C 6,4 km/h (2 Bft)
29.07.2019 15:25 18,4 °C 81 % 1009,2 hPa 0,0 mm 0,0 km/h (0 Bft) O-NO 59 ° 0 min 0,000 mm 5,9 UV-I 392 W/m² 15,1 °C 18,4 °C 0,0 km/h (0 Bft)
29.07.2019 15:26 18,4 °C 83 % 1009,2 hPa 0,0 mm 0,3 km/h (0 Bft) O-NO 76 ° 1 min 0,000 mm 5,9 UV-I 851 W/m² 15,5 °C 18,4 °C 3,2 km/h (1 Bft)
29.07.2019 15:27 18,4 °C 83 % 1009,2 hPa 0,0 mm 6,0 km/h (2 Bft) NO 49 ° 1 min 0,000 mm 4,2 UV-I 851 W/m² 15,5 °C 18,4 °C 8,0 km/h (2 Bft)
29.07.2019 15:28 18,6 °C 84 % 1009,2 hPa 0,0 mm 5,7 km/h (1 Bft) O-NO 59 ° 1 min 0,000 mm 5,6 UV-I 851 W/m² 15,8 °C 18,6 °C 8,0 km/h (2 Bft)
29.07.2019 15:29 18,6 °C 82 % 1009,2 hPa 0,0 mm 6,2 km/h (2 Bft) O 94 ° 1 min 0,000 mm 6,1 UV-I 800 W/m² 15,5 °C 18,6 °C 11,3 km/h (2 Bft)
29.07.2019 15:30 18,6 °C 82 % 1009,1 hPa 0,0 mm 6,6 km/h (2 Bft) O-NO 68 ° 1 min 0,000 mm 6,2 UV-I 998 W/m² 15,5 °C 18,6 °C 9,7 km/h (2 Bft)
29.07.2019 15:31 18,6 °C 82 % 1009,2 hPa 0,0 mm 5,3 km/h (1 Bft) O-NO 78 ° 1 min 0,000 mm 5,4 UV-I 998 W/m² 15,5 °C 18,6 °C 8,0 km/h (2 Bft)
29.07.2019 15:32 18,6 °C 82 % 1009,2 hPa 0,0 mm 5,1 km/h (1 Bft) O 88 ° 1 min 0,000 mm 4,0 UV-I 998 W/m² 15,5 °C 18,6 °C 6,4 km/h (2 Bft)
29.07.2019 15:33 18,6 °C 83 % 1009,2 hPa 0,0 mm 5,0 km/h (1 Bft) O 82 ° 1 min 0,000 mm 4,4 UV-I 998 W/m² 15,7 °C 18,6 °C 6,4 km/h (2 Bft)
29.07.2019 15:34 18,6 °C 83 % 1009,2 hPa 0,0 mm 6,4 km/h (2 Bft) O-NO 70 ° 1 min 0,000 mm 5,7 UV-I 998 W/m² 15,7 °C 18,6 °C 8,0 km/h (2 Bft)
29.07.2019 15:35 18,6 °C 83 % 1009,2 hPa 0,0 mm 7,9 km/h (2 Bft) O-NO 71 ° 1 min 0,000 mm 5,3 UV-I 998 W/m² 15,7 °C 18,6 °C 9,7 km/h (2 Bft)
29.07.2019 15:36 18,6 °C 84 % 1009,3 hPa 0,0 mm 5,5 km/h (1 Bft) O-SO 111 ° 1 min 0,000 mm 5,0 UV-I 998 W/m² 15,8 °C 18,6 °C 6,4 km/h (2 Bft)
29.07.2019 15:37 18,5 °C 83 % 1009,3 hPa 0,0 mm 2,8 km/h (1 Bft) O 86 ° 1 min 0,000 mm 5,6 UV-I 721 W/m² 15,6 °C 18,5 °C 6,4 km/h (2 Bft)
29.07.2019 15:38 18,6 °C 83 % 1009,2 hPa 0,0 mm 8,4 km/h (2 Bft) O-NO 69 ° 1 min 0,000 mm 5,1 UV-I 721 W/m² 15,7 °C 18,6 °C 11,3 km/h (2 Bft)
29.07.2019 15:39 18,6 °C 84 % 1009,2 hPa 0,0 mm 9,0 km/h (2 Bft) O 90 ° 1 min 0,000 mm 3,8 UV-I 721 W/m² 15,8 °C 18,6 °C 11,3 km/h (2 Bft)
29.07.2019 15:40 18,5 °C 82 % 1009,3 hPa 0,0 mm 8,7 km/h (2 Bft) O 90 ° 1 min 0,000 mm 3,3 UV-I 721 W/m² 15,4 °C 18,5 °C 12,9 km/h (3 Bft)
29.07.2019 15:41 18,4 °C 82 % 1009,3 hPa 0,0 mm 6,4 km/h (2 Bft) O-SO 109 ° 0 min 0,000 mm 3,2 UV-I 265 W/m² 15,3 °C 18,4 °C 9,7 km/h (2 Bft)
29.07.2019 15:42 18,4 °C 83 % 1009,2 hPa 0,0 mm 4,5 km/h (1 Bft) S-SO 168 ° 0 min 0,000 mm 3,4 UV-I 287 W/m² 15,5 °C 18,4 °C 6,4 km/h (2 Bft)
29.07.2019 15:43 18,3 °C 82 % 1009,2 hPa 0,0 mm 2,3 km/h (1 Bft) O-NO 66 ° 0 min 0,000 mm 5,1 UV-I 287 W/m² 15,2 °C 18,3 °C 6,4 km/h (2 Bft)
29.07.2019 15:44 18,3 °C 84 % 1009,2 hPa 0,0 mm 1,1 km/h (1 Bft) O-NO 66 ° 0 min 0,000 mm 4,1 UV-I 287 W/m² 15,5 °C 18,3 °C 3,2 km/h (1 Bft)
29.07.2019 15:45 18,4 °C 84 % 1009,3 hPa 0,0 mm 4,0 km/h (1 Bft) O-NO 78 ° 0 min 0,000 mm 5,6 UV-I 591 W/m² 15,6 °C 18,4 °C 6,4 km/h (2 Bft)
29.07.2019 15:46 18,4 °C 84 % 1009,2 hPa 0,0 mm 3,0 km/h (1 Bft) O-NO 78 ° 1 min 0,000 mm 5,1 UV-I 647 W/m² 15,6 °C 18,4 °C 6,4 km/h (2 Bft)
29.07.2019 15:47 18,4 °C 83 % 1009,3 hPa 0,0 mm 4,2 km/h (1 Bft) O-NO 59 ° 1 min 0,000 mm 4,9 UV-I 740 W/m² 15,5 °C 18,4 °C 6,4 km/h (2 Bft)
29.07.2019 15:48 18,5 °C 82 % 1009,2 hPa 0,0 mm 4,6 km/h (1 Bft) NO 35 ° 0 min 0,000 mm 4,1 UV-I 345 W/m² 15,4 °C 18,5 °C 6,4 km/h (2 Bft)
29.07.2019 15:49 18,6 °C 83 % 1009,2 hPa 0,0 mm 4,0 km/h (1 Bft) O-NO 65 ° 0 min 0,000 mm 3,6 UV-I 341 W/m² 15,7 °C 18,6 °C 6,4 km/h (2 Bft)
29.07.2019 15:50 18,6 °C 82 % 1009,2 hPa 0,0 mm 4,6 km/h (1 Bft) O-SO 114 ° 0 min 0,000 mm 5,3 UV-I 341 W/m² 15,5 °C 18,6 °C 6,4 km/h (2 Bft)
29.07.2019 15:51 18,6 °C 82 % 1009,2 hPa 0,0 mm 3,8 km/h (1 Bft) NO 51 ° 1 min 0,000 mm 5,3 UV-I 835 W/m² 15,5 °C 18,6 °C 6,4 km/h (2 Bft)
29.07.2019 15:52 18,8 °C 84 % 1009,2 hPa 0,0 mm 5,1 km/h (1 Bft) N-NO 14 ° 1 min 0,000 mm 5,2 UV-I 835 W/m² 16,0 °C 18,8 °C 6,4 km/h (2 Bft)
29.07.2019 15:53 18,9 °C 82 % 1009,2 hPa 0,0 mm 4,2 km/h (1 Bft) O-NO 66 ° 1 min 0,000 mm 5,3 UV-I 831 W/m² 15,8 °C 18,9 °C 6,4 km/h (2 Bft)
29.07.2019 15:54 19,1 °C 83 % 1009,2 hPa 0,0 mm 4,2 km/h (1 Bft) N 355 ° 1 min 0,000 mm 5,3 UV-I 816 W/m² 16,1 °C 19,1 °C 6,4 km/h (2 Bft)
29.07.2019 15:55 19,2 °C 82 % 1009,2 hPa 0,0 mm 2,8 km/h (1 Bft) N 355 ° 1 min 0,000 mm 5,2 UV-I 863 W/m² 16,0 °C 19,2 °C 4,8 km/h (1 Bft)
29.07.2019 15:56 19,3 °C 84 % 1009,2 hPa 0,0 mm 4,0 km/h (1 Bft) O-NO 59 ° 1 min 0,000 mm 5,2 UV-I 886 W/m² 16,5 °C 19,3 °C 6,4 km/h (2 Bft)
29.07.2019 15:57 19,5 °C 80 % 1009,2 hPa 0,0 mm 0,9 km/h (0 Bft) O-NO 59 ° 1 min 0,000 mm 5,2 UV-I 904 W/m² 16,0 °C 19,5 °C 3,2 km/h (1 Bft)
29.07.2019 15:58 19,4 °C 80 % 1009,2 hPa 0,0 mm 4,0 km/h (1 Bft) N 5 ° 1 min 0,000 mm 5,2 UV-I 940 W/m² 15,9 °C 19,4 °C 9,7 km/h (2 Bft)
29.07.2019 15:59 19,3 °C 81 % 1009,2 hPa 0,0 mm 7,4 km/h (2 Bft) N-NO 32 ° 1 min 0,000 mm 4,1 UV-I 940 W/m² 16,0 °C 19,3 °C 9,7 km/h (2 Bft)
29.07.2019 16:00 19,2 °C 80 % 1009,2 hPa 0,0 mm 6,6 km/h (2 Bft) O-NO 74 ° 1 min 0,000 mm 4,9 UV-I 940 W/m² 15,7 °C 19,2 °C 9,7 km/h (2 Bft)
29.07.2019 16:01 19,1 °C 80 % 1009,2 hPa 0,0 mm 4,0 km/h (1 Bft) O-NO 76 ° 1 min 0,356 mm 3,4 UV-I 940 W/m² 15,6 °C 19,1 °C 8,0 km/h (2 Bft)
29.07.2019 16:02 18,9 °C 82 % 1009,2 hPa 0,0 mm 5,8 km/h (2 Bft) O-NO 69 ° 1 min 0,000 mm 2,7 UV-I 940 W/m² 15,8 °C 18,9 °C 8,0 km/h (2 Bft)
29.07.2019 16:03 18,9 °C 83 % 1009,2 hPa 0,0 mm 5,7 km/h (1 Bft) N 5 ° 0 min 0,000 mm 2,6 UV-I 230 W/m² 15,9 °C 18,9 °C 8,0 km/h (2 Bft)
29.07.2019 16:04 18,9 °C 83 % 1009,2 hPa 0,0 mm 3,7 km/h (1 Bft) N-NW 343 ° 0 min 0,000 mm 2,7 UV-I 227 W/m² 15,9 °C 18,9 °C 4,8 km/h (1 Bft)
29.07.2019 16:05 18,9 °C 83 % 1009,1 hPa 0,0 mm 5,9 km/h (2 Bft) O-NO 57 ° 0 min 0,000 mm 2,8 UV-I 287 W/m² 15,9 °C 18,9 °C 9,7 km/h (2 Bft)
29.07.2019 16:06 18,8 °C 83 % 1009,2 hPa 0,0 mm 3,8 km/h (1 Bft) NO 48 ° 0 min 0,000 mm 3,2 UV-I 323 W/m² 15,8 °C 18,8 °C 8,0 km/h (2 Bft)
29.07.2019 16:07 18,8 °C 83 % 1009,1 hPa 0,0 mm 4,8 km/h (1 Bft) O-NO 77 ° 0 min 0,000 mm 3,1 UV-I 315 W/m² 15,8 °C 18,8 °C 6,4 km/h (2 Bft)
29.07.2019 16:08 18,7 °C 82 % 1009,1 hPa 0,0 mm 0,8 km/h (0 Bft) O-NO 77 ° 0 min 0,000 mm 3,1 UV-I 290 W/m² 15,6 °C 18,7 °C 4,8 km/h (1 Bft)
29.07.2019 16:09 18,7 °C 83 % 1009,1 hPa 0,0 mm 4,4 km/h (1 Bft) N 351 ° 0 min 0,000 mm 3,1 UV-I 299 W/m² 15,8 °C 18,7 °C 8,0 km/h (2 Bft)
29.07.2019 16:10 18,7 °C 82 % 1009,1 hPa 0,0 mm 3,2 km/h (1 Bft) N-NO 30 ° 0 min 0,000 mm 4,6 UV-I 299 W/m² 15,6 °C 18,7 °C 6,4 km/h (2 Bft)
29.07.2019 16:11 18,8 °C 84 % 1009,2 hPa 0,0 mm 4,8 km/h (1 Bft) NO 48 ° 1 min 0,000 mm 4,5 UV-I 824 W/m² 16,0 °C 18,8 °C 8,0 km/h (2 Bft)
29.07.2019 16:12 18,8 °C 83 % 1009,2 hPa 0,0 mm 5,0 km/h (1 Bft) N-NO 15 ° 1 min 0,000 mm 3,0 UV-I 824 W/m² 15,8 °C 18,8 °C 8,0 km/h (2 Bft)
29.07.2019 16:13 18,8 °C 83 % 1009,2 hPa 0,0 mm 4,4 km/h (1 Bft) N-NO 15 ° 1 min 0,000 mm 3,6 UV-I 824 W/m² 15,8 °C 18,8 °C 6,4 km/h (2 Bft)
29.07.2019 16:14 18,8 °C 82 % 1009,2 hPa 0,0 mm 0,4 km/h (0 Bft) N-NO 17 ° 1 min 0,000 mm 2,8 UV-I 824 W/m² 15,7 °C 18,8 °C 1,6 km/h (1 Bft)
29.07.2019 16:15 18,8 °C 83 % 1009,1 hPa 0,0 mm 6,6 km/h (2 Bft) O-NO 61 ° 0 min 0,000 mm 2,8 UV-I 292 W/m² 15,8 °C 18,8 °C 9,7 km/h (2 Bft)
29.07.2019 16:16 18,8 °C 83 % 1009,1 hPa 0,0 mm 2,3 km/h (1 Bft) NO 55 ° 0 min 0,000 mm 2,9 UV-I 325 W/m² 15,8 °C 18,8 °C 4,8 km/h (1 Bft)
29.07.2019 16:17 18,7 °C 83 % 1009,1 hPa 0,0 mm 2,6 km/h (1 Bft) NO 55 ° 0 min 0,000 mm 2,9 UV-I 308 W/m² 15,8 °C 18,7 °C 4,8 km/h (1 Bft)
29.07.2019 16:18 18,7 °C 84 % 1009,1 hPa 0,0 mm 4,3 km/h (1 Bft) O 101 ° 0 min 0,000 mm 2,9 UV-I 302 W/m² 15,9 °C 18,7 °C 9,7 km/h (2 Bft)
29.07.2019 16:19 18,7 °C 83 % 1009,1 hPa 0,0 mm 3,0 km/h (1 Bft) NO 52 ° 0 min 0,000 mm 2,9 UV-I 306 W/m² 15,8 °C 18,7 °C 6,4 km/h (2 Bft)
29.07.2019 16:20 18,8 °C 83 % 1009,1 hPa 0,0 mm 5,5 km/h (1 Bft) NO 43 ° 0 min 0,000 mm 2,9 UV-I 294 W/m² 15,8 °C 18,8 °C 9,7 km/h (2 Bft)
29.07.2019 16:21 18,8 °C 83 % 1009,1 hPa 0,0 mm 6,8 km/h (2 Bft) N-NO 32 ° 0 min 0,000 mm 2,8 UV-I 283 W/m² 15,8 °C 18,8 °C 9,7 km/h (2 Bft)
29.07.2019 16:22 18,8 °C 83 % 1009,1 hPa 0,0 mm 5,3 km/h (1 Bft) O-NO 76 ° 0 min 0,000 mm 2,8 UV-I 225 W/m² 15,8 °C 18,8 °C 8,0 km/h (2 Bft)
29.07.2019 16:23 18,8 °C 83 % 1009,1 hPa 0,0 mm 3,1 km/h (1 Bft) O 84 ° 0 min 0,000 mm 2,7 UV-I 207 W/m² 15,8 °C 18,8 °C 4,8 km/h (1 Bft)
29.07.2019 16:24 18,8 °C 83 % 1009,1 hPa 0,0 mm 3,1 km/h (1 Bft) O 92 ° 0 min 0,000 mm 2,6 UV-I 197 W/m² 15,8 °C 18,8 °C 4,8 km/h (1 Bft)
29.07.2019 16:25 18,8 °C 83 % 1009,2 hPa 0,0 mm 5,5 km/h (1 Bft) O-SO 123 ° 0 min 0,000 mm 2,6 UV-I 188 W/m² 15,8 °C 18,8 °C 8,0 km/h (2 Bft)
29.07.2019 16:26 18,7 °C 83 % 1009,1 hPa 0,0 mm 4,2 km/h (1 Bft) O-NO 67 ° 0 min 0,000 mm 2,6 UV-I 171 W/m² 15,8 °C 18,7 °C 9,7 km/h (2 Bft)
29.07.2019 16:27 18,7 °C 83 % 1009,1 hPa 0,0 mm 1,2 km/h (1 Bft) O-NO 67 ° 0 min 0,000 mm 2,6 UV-I 156 W/m² 15,8 °C 18,7 °C 3,2 km/h (1 Bft)
29.07.2019 16:28 18,7 °C 84 % 1009,1 hPa 0,0 mm 0,0 km/h (0 Bft) O-NO 67 ° 0 min 0,000 mm 2,5 UV-I 149 W/m² 15,9 °C 18,7 °C 0,0 km/h (0 Bft)
29.07.2019 16:29 18,7 °C 84 % 1009,1 hPa 0,0 mm 1,4 km/h (1 Bft) SO 130 ° 0 min 0,000 mm 2,5 UV-I 139 W/m² 15,9 °C 18,7 °C 3,2 km/h (1 Bft)
29.07.2019 16:30 18,7 °C 84 % 1009,1 hPa 0,0 mm 1,7 km/h (1 Bft) NO 51 ° 0 min 0,000 mm 2,5 UV-I 144 W/m² 15,9 °C 18,7 °C 4,8 km/h (1 Bft)
29.07.2019 16:31 18,8 °C 84 % 1009,1 hPa 0,0 mm 5,1 km/h (1 Bft) O-NO 65 ° 0 min 0,000 mm 2,6 UV-I 192 W/m² 16,0 °C 18,8 °C 6,4 km/h (2 Bft)
29.07.2019 16:32 18,9 °C 84 % 1009,1 hPa 0,0 mm 5,4 km/h (1 Bft) O-SO 111 ° 0 min 0,000 mm 2,5 UV-I 237 W/m² 16,1 °C 18,9 °C 9,7 km/h (2 Bft)
29.07.2019 16:33 18,9 °C 83 % 1009,1 hPa 0,0 mm 3,8 km/h (1 Bft) NO 53 ° 0 min 0,000 mm 2,7 UV-I 211 W/m² 15,9 °C 18,9 °C 8,0 km/h (2 Bft)
29.07.2019 16:34 18,9 °C 83 % 1009,1 hPa 0,0 mm 6,4 km/h (2 Bft) NO 53 ° 0 min 0,000 mm 2,5 UV-I 169 W/m² 15,9 °C 18,9 °C 8,0 km/h (2 Bft)
29.07.2019 16:35 18,9 °C 82 % 1009,0 hPa 0,0 mm 5,6 km/h (1 Bft) O-NO 64 ° 0 min 0,000 mm 2,5 UV-I 158 W/m² 15,8 °C 18,9 °C 9,7 km/h (2 Bft)
29.07.2019 16:36 18,9 °C 82 % 1009,1 hPa 0,0 mm 1,2 km/h (1 Bft) O-NO 64 ° 0 min 0,000 mm 2,4 UV-I 148 W/m² 15,8 °C 18,9 °C 3,2 km/h (1 Bft)
29.07.2019 16:37 18,8 °C 82 % 1009,1 hPa 0,0 mm 1,0 km/h (0 Bft) NO 54 ° 0 min 0,000 mm 2,4 UV-I 151 W/m² 15,7 °C 18,8 °C 3,2 km/h (1 Bft)
29.07.2019 16:38 18,8 °C 83 % 1009,0 hPa 0,0 mm 4,3 km/h (1 Bft) N 355 ° 0 min 0,000 mm 2,4 UV-I 169 W/m² 15,8 °C 18,8 °C 6,4 km/h (2 Bft)
29.07.2019 16:39 18,8 °C 82 % 1009,0 hPa 0,0 mm 4,9 km/h (1 Bft) N 5 ° 0 min 0,000 mm 2,5 UV-I 192 W/m² 15,7 °C 18,8 °C 6,4 km/h (2 Bft)
29.07.2019 16:40 18,9 °C 82 % 1009,0 hPa 0,0 mm 5,9 km/h (2 Bft) N 355 ° 0 min 0,000 mm 2,6 UV-I 237 W/m² 15,8 °C 18,9 °C 8,0 km/h (2 Bft)
29.07.2019 16:41 19,0 °C 82 % 1009,0 hPa 0,0 mm 6,6 km/h (2 Bft) N 360 ° 0 min 0,000 mm 2,6 UV-I 269 W/m² 15,9 °C 19,0 °C 8,0 km/h (2 Bft)
29.07.2019 16:42 19,1 °C 82 % 1009,0 hPa 0,0 mm 3,5 km/h (1 Bft) N-NO 19 ° 0 min 0,000 mm 2,7 UV-I 302 W/m² 16,0 °C 19,1 °C 6,4 km/h (2 Bft)
29.07.2019 16:43 19,2 °C 81 % 1009,0 hPa 0,0 mm 7,9 km/h (2 Bft) N 5 ° 0 min 0,000 mm 2,6 UV-I 315 W/m² 15,9 °C 19,2 °C 11,3 km/h (2 Bft)
29.07.2019 16:44 19,2 °C 83 % 1009,0 hPa 0,0 mm 4,8 km/h (1 Bft) O-NO 68 ° 0 min 0,000 mm 2,4 UV-I 308 W/m² 16,2 °C 19,2 °C 8,0 km/h (2 Bft)
29.07.2019 16:45 19,3 °C 83 % 1009,0 hPa 0,0 mm 6,6 km/h (2 Bft) N-NO 28 ° 0 min 0,000 mm 2,2 UV-I 257 W/m² 16,3 °C 19,3 °C 12,9 km/h (3 Bft)
29.07.2019 16:46 19,3 °C 83 % 1009,0 hPa 0,0 mm 5,1 km/h (1 Bft) NO 38 ° 0 min 0,000 mm 2,2 UV-I 213 W/m² 16,3 °C 19,3 °C 8,0 km/h (2 Bft)
29.07.2019 16:47 19,3 °C 84 % 1009,0 hPa 0,0 mm 6,8 km/h (2 Bft) O-NO 73 ° 0 min 0,000 mm 2,1 UV-I 163 W/m² 16,5 °C 19,3 °C 9,7 km/h (2 Bft)
29.07.2019 16:48 19,2 °C 82 % 1009,1 hPa 0,0 mm 6,8 km/h (2 Bft) O-NO 76 ° 0 min 0,000 mm 2,2 UV-I 155 W/m² 16,0 °C 19,2 °C 9,7 km/h (2 Bft)
29.07.2019 16:49 19,1 °C 82 % 1009,0 hPa 0,0 mm 3,8 km/h (1 Bft) NO 47 ° 0 min 0,000 mm 2,2 UV-I 153 W/m² 16,0 °C 19,1 °C 9,7 km/h (2 Bft)
29.07.2019 16:50 19,0 °C 82 % 1009,0 hPa 0,0 mm 3,4 km/h (1 Bft) O-NO 67 ° 0 min 0,000 mm 2,2 UV-I 153 W/m² 15,9 °C 19,0 °C 8,0 km/h (2 Bft)
29.07.2019 16:51 18,9 °C 82 % 1009,0 hPa 0,0 mm 5,3 km/h (1 Bft) NO 52 ° 0 min 0,000 mm 2,2 UV-I 141 W/m² 15,8 °C 18,9 °C 8,0 km/h (2 Bft)
29.07.2019 16:52 18,9 °C 83 % 1009,0 hPa 0,0 mm 3,4 km/h (1 Bft) NO 53 ° 0 min 0,000 mm 2,2 UV-I 102 W/m² 15,9 °C 18,9 °C 6,4 km/h (2 Bft)
29.07.2019 16:53 18,8 °C 83 % 1009,0 hPa 0,0 mm 2,1 km/h (1 Bft) NO 34 ° 0 min 0,000 mm 2,2 UV-I 109 W/m² 15,8 °C 18,8 °C 6,4 km/h (2 Bft)
29.07.2019 16:54 18,8 °C 83 % 1008,9 hPa 0,0 mm 5,8 km/h (2 Bft) O-NO 63 ° 0 min 0,000 mm 2,2 UV-I 114 W/m² 15,8 °C 18,8 °C 8,0 km/h (2 Bft)
29.07.2019 16:55 18,9 °C 83 % 1008,9 hPa 0,0 mm 2,0 km/h (1 Bft) NO 46 ° 0 min 0,000 mm 2,2 UV-I 127 W/m² 15,9 °C 18,9 °C 4,8 km/h (1 Bft)
29.07.2019 16:56 18,9 °C 83 % 1008,8 hPa 0,0 mm 1,7 km/h (1 Bft) O 83 ° 0 min 0,000 mm 2,2 UV-I 144 W/m² 15,9 °C 18,9 °C 4,8 km/h (1 Bft)
29.07.2019 16:57 18,9 °C 83 % 1008,9 hPa 0,0 mm 4,8 km/h (1 Bft) NO 48 ° 0 min 0,000 mm 2,3 UV-I 163 W/m² 15,9 °C 18,9 °C 6,4 km/h (2 Bft)
29.07.2019 16:58 18,9 °C 83 % 1008,8 hPa 0,0 mm 2,9 km/h (1 Bft) O-NO 74 ° 0 min 0,000 mm 2,3 UV-I 223 W/m² 15,9 °C 18,9 °C 4,8 km/h (1 Bft)
29.07.2019 16:59 18,9 °C 83 % 1008,8 hPa 0,0 mm 0,3 km/h (0 Bft) N-NO 33 ° 0 min 0,000 mm 2,3 UV-I 236 W/m² 15,9 °C 18,9 °C 1,6 km/h (1 Bft)
29.07.2019 17:00 19,0 °C 84 % 1008,8 hPa 0,0 mm 5,2 km/h (1 Bft) O 88 ° 0 min 0,000 mm 2,2 UV-I 223 W/m² 16,2 °C 19,0 °C 11,3 km/h (2 Bft)
29.07.2019 17:01 19,1 °C 83 % 1008,9 hPa 0,0 mm 8,0 km/h (2 Bft) O-NO 74 ° 0 min 0,152 mm 2,2 UV-I 214 W/m² 16,1 °C 19,1 °C 12,9 km/h (3 Bft)
29.07.2019 17:02 19,1 °C 82 % 1008,9 hPa 0,0 mm 7,1 km/h (2 Bft) NO 49 ° 0 min 0,000 mm 2,1 UV-I 197 W/m² 16,0 °C 19,1 °C 11,3 km/h (2 Bft)
29.07.2019 17:03 19,1 °C 82 % 1008,9 hPa 0,0 mm 5,8 km/h (2 Bft) O-NO 65 ° 0 min 0,000 mm 2,1 UV-I 179 W/m² 16,0 °C 19,1 °C 9,7 km/h (2 Bft)
29.07.2019 17:04 19,1 °C 82 % 1008,9 hPa 0,0 mm 5,2 km/h (1 Bft) O-NO 65 ° 0 min 0,000 mm 2,0 UV-I 155 W/m² 16,0 °C 19,1 °C 8,0 km/h (2 Bft)
29.07.2019 17:05 19,1 °C 82 % 1008,9 hPa 0,0 mm 3,8 km/h (1 Bft) O-NO 72 ° 0 min 0,000 mm 2,0 UV-I 134 W/m² 16,0 °C 19,1 °C 8,0 km/h (2 Bft)
29.07.2019 17:06 18,9 °C 82 % 1008,9 hPa 0,0 mm 3,1 km/h (1 Bft) NO 53 ° 0 min 0,000 mm 2,0 UV-I 121 W/m² 15,8 °C 18,9 °C 6,4 km/h (2 Bft)
29.07.2019 17:07 18,9 °C 82 % 1008,9 hPa 0,0 mm 3,1 km/h (1 Bft) O 85 ° 0 min 0,000 mm 2,0 UV-I 113 W/m² 15,8 °C 18,9 °C 8,0 km/h (2 Bft)
29.07.2019 17:08 18,8 °C 82 % 1008,9 hPa 0,0 mm 2,4 km/h (1 Bft) O 81 ° 0 min 0,000 mm 2,0 UV-I 109 W/m² 15,7 °C 18,8 °C 3,2 km/h (1 Bft)
29.07.2019 17:09 18,8 °C 82 % 1008,9 hPa 0,0 mm 2,6 km/h (1 Bft) O 100 ° 0 min 0,000 mm 2,0 UV-I 121 W/m² 15,7 °C 18,8 °C 6,4 km/h (2 Bft)
29.07.2019 17:10 18,7 °C 82 % 1008,9 hPa 0,0 mm 4,7 km/h (1 Bft) O-NO 75 ° 0 min 0,000 mm 2,1 UV-I 158 W/m² 15,6 °C 18,7 °C 8,0 km/h (2 Bft)
29.07.2019 17:11 18,7 °C 82 % 1008,9 hPa 0,0 mm 2,3 km/h (1 Bft) O 80 ° 0 min 0,000 mm 2,0 UV-I 146 W/m² 15,6 °C 18,7 °C 4,8 km/h (1 Bft)
29.07.2019 17:12 18,7 °C 82 % 1008,9 hPa 0,0 mm 1,9 km/h (1 Bft) O-NO 58 ° 0 min 0,000 mm 2,0 UV-I 155 W/m² 15,6 °C 18,7 °C 4,8 km/h (1 Bft)
29.07.2019 17:13 18,8 °C 82 % 1008,9 hPa 0,0 mm 1,5 km/h (1 Bft) O-NO 67 ° 0 min 0,000 mm 2,1 UV-I 176 W/m² 15,7 °C 18,8 °C 4,8 km/h (1 Bft)
29.07.2019 17:14 18,8 °C 82 % 1008,9 hPa 0,0 mm 3,6 km/h (1 Bft) O-NO 71 ° 0 min 0,000 mm 2,1 UV-I 202 W/m² 15,7 °C 18,8 °C 6,4 km/h (2 Bft)
29.07.2019 17:15 18,8 °C 83 % 1008,8 hPa 0,0 mm 2,4 km/h (1 Bft) O-NO 71 ° 0 min 0,000 mm 2,2 UV-I 239 W/m² 15,8 °C 18,8 °C 3,2 km/h (1 Bft)
29.07.2019 17:16 18,8 °C 83 % 1008,9 hPa 0,0 mm 4,8 km/h (1 Bft) SO 138 ° 0 min 0,000 mm 2,1 UV-I 276 W/m² 15,8 °C 18,8 °C 11,3 km/h (2 Bft)
29.07.2019 17:17 18,9 °C 83 % 1008,8 hPa 0,0 mm 1,9 km/h (1 Bft) NO 53 ° 0 min 0,000 mm 2,0 UV-I 271 W/m² 15,9 °C 18,9 °C 4,8 km/h (1 Bft)
29.07.2019 17:18 19,1 °C 83 % 1008,8 hPa 0,0 mm 4,7 km/h (1 Bft) NO 46 ° 0 min 0,000 mm 1,9 UV-I 257 W/m² 16,1 °C 19,1 °C 9,7 km/h (2 Bft)
29.07.2019 17:19 19,2 °C 83 % 1008,8 hPa 0,0 mm 5,8 km/h (2 Bft) NO 40 ° 0 min 0,000 mm 1,8 UV-I 225 W/m² 16,2 °C 19,2 °C 8,0 km/h (2 Bft)
29.07.2019 17:20 19,3 °C 83 % 1008,8 hPa 0,0 mm 6,6 km/h (2 Bft) O-NO 66 ° 0 min 0,000 mm 1,7 UV-I 193 W/m² 16,3 °C 19,3 °C 11,3 km/h (2 Bft)
29.07.2019 17:21 19,4 °C 83 % 1008,8 hPa 0,0 mm 8,0 km/h (2 Bft) NO 49 ° 0 min 0,000 mm 1,7 UV-I 149 W/m² 16,4 °C 19,4 °C 9,7 km/h (2 Bft)
29.07.2019 17:22 19,4 °C 83 % 1008,8 hPa 0,0 mm 9,2 km/h (2 Bft) O-NO 62 ° 0 min 0,000 mm 1,8 UV-I 139 W/m² 16,4 °C 19,4 °C 12,9 km/h (3 Bft)
29.07.2019 17:23 19,4 °C 82 % 1008,8 hPa 0,0 mm 5,6 km/h (1 Bft) NO 54 ° 0 min 0,000 mm 1,8 UV-I 134 W/m² 16,2 °C 19,4 °C 8,0 km/h (2 Bft)
29.07.2019 17:24 19,3 °C 82 % 1008,8 hPa 0,0 mm 6,8 km/h (2 Bft) NO 45 ° 0 min 0,000 mm 1,8 UV-I 132 W/m² 16,1 °C 19,3 °C 9,7 km/h (2 Bft)
29.07.2019 17:25 19,2 °C 82 % 1008,8 hPa 0,0 mm 4,7 km/h (1 Bft) O-SO 109 ° 0 min 0,000 mm 1,8 UV-I 135 W/m² 16,0 °C 19,2 °C 8,0 km/h (2 Bft)
29.07.2019 17:26 19,2 °C 83 % 1008,9 hPa 0,0 mm 5,3 km/h (1 Bft) O-NO 63 ° 0 min 0,000 mm 1,8 UV-I 144 W/m² 16,2 °C 19,2 °C 11,3 km/h (2 Bft)
29.07.2019 17:27 19,2 °C 83 % 1008,8 hPa 0,0 mm 6,6 km/h (2 Bft) O-NO 71 ° 0 min 0,000 mm 1,9 UV-I 169 W/m² 16,2 °C 19,2 °C 9,7 km/h (2 Bft)
29.07.2019 17:28 19,1 °C 83 % 1008,8 hPa 0,0 mm 1,7 km/h (1 Bft) NO 38 ° 0 min 0,000 mm 1,9 UV-I 301 W/m² 16,1 °C 19,1 °C 4,8 km/h (1 Bft)
29.07.2019 17:29 19,1 °C 83 % 1008,8 hPa 0,0 mm 3,9 km/h (1 Bft) O-SO 102 ° 0 min 0,000 mm 1,8 UV-I 253 W/m² 16,1 °C 19,1 °C 4,8 km/h (1 Bft)
29.07.2019 17:30 19,1 °C 84 % 1008,8 hPa 0,0 mm 5,0 km/h (1 Bft) NO 53 ° 0 min 0,000 mm 1,8 UV-I 251 W/m² 16,3 °C 19,1 °C 6,4 km/h (2 Bft)
29.07.2019 17:31 19,2 °C 83 % 1008,8 hPa 0,0 mm 3,1 km/h (1 Bft) NO 44 ° 0 min 0,000 mm 1,7 UV-I 237 W/m² 16,2 °C 19,2 °C 4,8 km/h (1 Bft)
29.07.2019 17:32 19,2 °C 83 % 1008,8 hPa 0,0 mm 5,2 km/h (1 Bft) S 170 ° 0 min 0,000 mm 1,7 UV-I 221 W/m² 16,2 °C 19,2 °C 9,7 km/h (2 Bft)
29.07.2019 17:33 19,2 °C 82 % 1008,9 hPa 0,0 mm 3,9 km/h (1 Bft) O 92 ° 0 min 0,000 mm 1,6 UV-I 195 W/m² 16,0 °C 19,2 °C 6,4 km/h (2 Bft)
29.07.2019 17:34 19,2 °C 83 % 1008,9 hPa 0,0 mm 3,6 km/h (1 Bft) NO 37 ° 0 min 0,000 mm 1,6 UV-I 185 W/m² 16,2 °C 19,2 °C 9,7 km/h (2 Bft)
29.07.2019 17:35 19,2 °C 83 % 1008,8 hPa 0,0 mm 6,1 km/h (2 Bft) NO 51 ° 0 min 0,000 mm 1,6 UV-I 181 W/m² 16,2 °C 19,2 °C 8,0 km/h (2 Bft)
29.07.2019 17:36 19,2 °C 82 % 1008,8 hPa 0,0 mm 4,4 km/h (1 Bft) O 80 ° 0 min 0,000 mm 1,6 UV-I 183 W/m² 16,0 °C 19,2 °C 8,0 km/h (2 Bft)
29.07.2019 17:37 19,2 °C 82 % 1008,9 hPa 0,0 mm 3,2 km/h (1 Bft) O 87 ° 0 min 0,000 mm 1,6 UV-I 185 W/m² 16,0 °C 19,2 °C 4,8 km/h (1 Bft)
29.07.2019 17:38 19,2 °C 83 % 1008,9 hPa 0,0 mm 4,6 km/h (1 Bft) O-NO 71 ° 0 min 0,000 mm 1,6 UV-I 185 W/m² 16,2 °C 19,2 °C 6,4 km/h (2 Bft)
29.07.2019 17:39 19,2 °C 82 % 1008,9 hPa 0,0 mm 5,4 km/h (1 Bft) O-NO 61 ° 0 min 0,000 mm 1,5 UV-I 169 W/m² 16,0 °C 19,2 °C 9,7 km/h (2 Bft)
29.07.2019 17:40 19,1 °C 82 % 1008,9 hPa 0,0 mm 4,6 km/h (1 Bft) N-NO 25 ° 0 min 0,000 mm 1,4 UV-I 151 W/m² 16,0 °C 19,1 °C 6,4 km/h (2 Bft)
29.07.2019 17:41 19,0 °C 83 % 1008,9 hPa 0,0 mm 3,8 km/h (1 Bft) O 86 ° 0 min 0,000 mm 1,4 UV-I 132 W/m² 16,0 °C 19,0 °C 6,4 km/h (2 Bft)
29.07.2019 17:42 18,9 °C 84 % 1008,9 hPa 0,0 mm 2,7 km/h (1 Bft) NO 50 ° 0 min 0,000 mm 1,4 UV-I 121 W/m² 16,1 °C 18,9 °C 4,8 km/h (1 Bft)
29.07.2019 17:43 18,9 °C 83 % 1008,9 hPa 0,0 mm 3,2 km/h (1 Bft) O-NO 59 ° 0 min 0,000 mm 1,4 UV-I 113 W/m² 15,9 °C 18,9 °C 4,8 km/h (1 Bft)
29.07.2019 17:44 18,8 °C 84 % 1008,9 hPa 0,0 mm 3,5 km/h (1 Bft) N-NO 26 ° 0 min 0,000 mm 1,4 UV-I 105 W/m² 16,0 °C 18,8 °C 6,4 km/h (2 Bft)
29.07.2019 17:45 18,8 °C 84 % 1008,9 hPa 0,0 mm 2,7 km/h (1 Bft) NO 55 ° 0 min 0,000 mm 1,4 UV-I 111 W/m² 16,0 °C 18,8 °C 4,8 km/h (1 Bft)
29.07.2019 17:46 18,8 °C 84 % 1008,9 hPa 0,0 mm 4,2 km/h (1 Bft) O-NO 71 ° 0 min 0,000 mm 1,5 UV-I 116 W/m² 16,0 °C 18,8 °C 6,4 km/h (2 Bft)
29.07.2019 17:47 18,8 °C 85 % 1008,9 hPa 0,0 mm 3,4 km/h (1 Bft) O-NO 65 ° 0 min 0,000 mm 1,5 UV-I 118 W/m² 16,2 °C 18,8 °C 4,8 km/h (1 Bft)
29.07.2019 17:48 18,8 °C 85 % 1008,9 hPa 0,0 mm 0,9 km/h (0 Bft) O-NO 70 ° 0 min 0,000 mm 1,5 UV-I 120 W/m² 16,2 °C 18,8 °C 3,2 km/h (1 Bft)
29.07.2019 17:49 18,7 °C 84 % 1008,9 hPa 0,0 mm 0,6 km/h (0 Bft) O-NO 69 ° 0 min 0,000 mm 1,5 UV-I 121 W/m² 15,9 °C 18,7 °C 3,2 km/h (1 Bft)
29.07.2019 17:50 18,7 °C 85 % 1008,9 hPa 0,0 mm 0,1 km/h (0 Bft) O-NO 69 ° 0 min 0,000 mm 1,5 UV-I 121 W/m² 16,1 °C 18,7 °C 1,6 km/h (1 Bft)
29.07.2019 17:51 18,7 °C 85 % 1008,9 hPa 0,0 mm 3,2 km/h (1 Bft) O-NO 73 ° 0 min 0,000 mm 1,5 UV-I 128 W/m² 16,1 °C 18,7 °C 4,8 km/h (1 Bft)
29.07.2019 17:52 18,6 °C 85 % 1008,9 hPa 0,0 mm 4,0 km/h (1 Bft) NO 51 ° 0 min 0,000 mm 1,5 UV-I 135 W/m² 16,0 °C 18,6 °C 4,8 km/h (1 Bft)
29.07.2019 17:53 18,6 °C 85 % 1008,9 hPa 0,0 mm 3,6 km/h (1 Bft) NO 55 ° 0 min 0,000 mm 1,5 UV-I 144 W/m² 16,0 °C 18,6 °C 4,8 km/h (1 Bft)
29.07.2019 17:54 18,7 °C 85 % 1008,9 hPa 0,0 mm 1,7 km/h (1 Bft) NO 50 ° 0 min 0,000 mm 1,5 UV-I 153 W/m² 16,1 °C 18,7 °C 4,8 km/h (1 Bft)
29.07.2019 17:55 18,7 °C 85 % 1008,9 hPa 0,0 mm 3,3 km/h (1 Bft) NO 46 ° 0 min 0,000 mm 1,5 UV-I 156 W/m² 16,1 °C 18,7 °C 6,4 km/h (2 Bft)
29.07.2019 17:56 18,7 °C 85 % 1008,9 hPa 0,0 mm 1,5 km/h (1 Bft) SW 223 ° 0 min 0,000 mm 1,5 UV-I 163 W/m² 16,1 °C 18,7 °C 4,8 km/h (1 Bft)
29.07.2019 17:57 18,7 °C 85 % 1008,9 hPa 0,0 mm 2,7 km/h (1 Bft) O 80 ° 0 min 0,000 mm 1,5 UV-I 167 W/m² 16,1 °C 18,7 °C 6,4 km/h (2 Bft)
29.07.2019 17:58 18,7 °C 84 % 1008,9 hPa 0,0 mm 8,0 km/h (2 Bft) SO 138 ° 0 min 0,000 mm 1,5 UV-I 172 W/m² 15,9 °C 18,7 °C 11,3 km/h (2 Bft)
29.07.2019 17:59 18,7 °C 84 % 1008,9 hPa 0,0 mm 6,4 km/h (2 Bft) O-SO 123 ° 0 min 0,000 mm 1,5 UV-I 183 W/m² 15,9 °C 18,7 °C 11,3 km/h (2 Bft)
29.07.2019 18:00 18,6 °C 84 % 1008,9 hPa 0,0 mm 5,8 km/h (2 Bft) O 92 ° 0 min 0,000 mm 1,5 UV-I 186 W/m² 15,8 °C 18,6 °C 6,4 km/h (2 Bft)
29.07.2019 18:01 18,6 °C 84 % 1008,9 hPa 0,0 mm 4,3 km/h (1 Bft) N 5 ° 0 min 0,102 mm 1,3 UV-I 185 W/m² 15,8 °C 18,6 °C 6,4 km/h (2 Bft)
29.07.2019 18:03 18,7 °C 84 % 1008,9 hPa 0,0 mm 2,3 km/h (1 Bft) O 93 ° 0 min 0,000 mm 1,4 UV-I 163 W/m² 15,9 °C 18,7 °C 4,8 km/h (1 Bft)
29.07.2019 18:04 18,7 °C 84 % 1008,8 hPa 0,0 mm 2,3 km/h (1 Bft) O-NO 76 ° 0 min 0,000 mm 1,4 UV-I 153 W/m² 15,9 °C 18,7 °C 4,8 km/h (1 Bft)
29.07.2019 18:05 18,8 °C 84 % 1008,8 hPa 0,0 mm 5,1 km/h (1 Bft) O-NO 72 ° 0 min 0,000 mm 1,4 UV-I 148 W/m² 16,0 °C 18,8 °C 8,0 km/h (2 Bft)
29.07.2019 18:06 18,8 °C 84 % 1008,8 hPa 0,0 mm 5,5 km/h (1 Bft) O 95 ° 0 min 0,000 mm 1,4 UV-I 132 W/m² 16,0 °C 18,8 °C 8,0 km/h (2 Bft)
29.07.2019 18:07 18,9 °C 84 % 1008,8 hPa 0,0 mm 2,7 km/h (1 Bft) O 79 ° 0 min 0,000 mm 1,4 UV-I 123 W/m² 16,1 °C 18,9 °C 4,8 km/h (1 Bft)
29.07.2019 18:08 18,9 °C 83 % 1008,8 hPa 0,0 mm 3,9 km/h (1 Bft) NO 36 ° 0 min 0,000 mm 1,4 UV-I 111 W/m² 15,9 °C 18,9 °C 6,4 km/h (2 Bft)
29.07.2019 18:09 18,8 °C 83 % 1008,8 hPa 0,0 mm 3,9 km/h (1 Bft) N-NO 22 ° 0 min 0,000 mm 1,3 UV-I 113 W/m² 15,8 °C 18,8 °C 6,4 km/h (2 Bft)
29.07.2019 18:10 18,8 °C 83 % 1008,8 hPa 0,0 mm 4,3 km/h (1 Bft) NO 55 ° 0 min 0,000 mm 1,3 UV-I 105 W/m² 15,8 °C 18,8 °C 8,0 km/h (2 Bft)
29.07.2019 18:11 18,8 °C 84 % 1008,8 hPa 0,0 mm 6,1 km/h (2 Bft) O-NO 72 ° 0 min 0,000 mm 1,3 UV-I 95 W/m² 16,0 °C 18,8 °C 9,7 km/h (2 Bft)
29.07.2019 18:12 18,8 °C 84 % 1008,8 hPa 0,0 mm 4,2 km/h (1 Bft) O-NO 58 ° 0 min 0,000 mm 1,3 UV-I 90 W/m² 16,0 °C 18,8 °C 6,4 km/h (2 Bft)
29.07.2019 18:13 18,8 °C 84 % 1008,7 hPa 0,0 mm 3,3 km/h (1 Bft) O-NO 57 ° 0 min 0,000 mm 1,3 UV-I 93 W/m² 16,0 °C 18,8 °C 6,4 km/h (2 Bft)
29.07.2019 18:14 18,8 °C 84 % 1008,8 hPa 0,0 mm 3,3 km/h (1 Bft) O-NO 67 ° 0 min 0,000 mm 1,3 UV-I 90 W/m² 16,0 °C 18,8 °C 6,4 km/h (2 Bft)
29.07.2019 18:15 18,8 °C 84 % 1008,8 hPa 0,0 mm 4,0 km/h (1 Bft) O-NO 69 ° 0 min 0,000 mm 1,3 UV-I 98 W/m² 16,0 °C 18,8 °C 6,4 km/h (2 Bft)
29.07.2019 18:16 18,8 °C 84 % 1008,8 hPa 0,0 mm 3,8 km/h (1 Bft) O-NO 68 ° 0 min 0,000 mm 1,3 UV-I 105 W/m² 16,0 °C 18,8 °C 4,8 km/h (1 Bft)
29.07.2019 18:17 18,8 °C 83 % 1008,8 hPa 0,0 mm 1,0 km/h (0 Bft) O-NO 68 ° 0 min 0,000 mm 1,3 UV-I 102 W/m² 15,8 °C 18,8 °C 3,2 km/h (1 Bft)
29.07.2019 18:18 18,7 °C 83 % 1008,8 hPa 0,0 mm 2,5 km/h (1 Bft) O-NO 68 ° 0 min 0,000 mm 1,3 UV-I 100 W/m² 15,8 °C 18,7 °C 4,8 km/h (1 Bft)
29.07.2019 18:19 18,8 °C 83 % 1008,8 hPa 0,0 mm 2,6 km/h (1 Bft) O-NO 69 ° 0 min 0,000 mm 1,3 UV-I 100 W/m² 15,8 °C 18,8 °C 3,2 km/h (1 Bft)
29.07.2019 18:20 18,8 °C 84 % 1008,8 hPa 0,0 mm 3,4 km/h (1 Bft) N-NO 32 ° 0 min 0,000 mm 1,3 UV-I 95 W/m² 16,0 °C 18,8 °C 6,4 km/h (2 Bft)
29.07.2019 18:21 18,8 °C 83 % 1008,8 hPa 0,0 mm 2,6 km/h (1 Bft) NO 34 ° 0 min 0,000 mm 1,3 UV-I 91 W/m² 15,8 °C 18,8 °C 6,4 km/h (2 Bft)
29.07.2019 18:22 18,8 °C 83 % 1008,8 hPa 0,0 mm 0,0 km/h (0 Bft) NO 35 ° 0 min 0,000 mm 1,2 UV-I 83 W/m² 15,8 °C 18,8 °C 0,0 km/h (0 Bft)
29.07.2019 18:23 18,8 °C 83 % 1008,8 hPa 0,0 mm 0,0 km/h (0 Bft) NO 35 ° 0 min 0,000 mm 1,2 UV-I 83 W/m² 15,8 °C 18,8 °C 0,0 km/h (0 Bft)
29.07.2019 18:24 18,8 °C 83 % 1008,7 hPa 0,0 mm 0,0 km/h (0 Bft) NO 35 ° 0 min 0,000 mm 1,2 UV-I 81 W/m² 15,8 °C 18,8 °C 0,0 km/h (0 Bft)
29.07.2019 18:25 18,8 °C 83 % 1008,7 hPa 0,0 mm 0,0 km/h (0 Bft) NO 35 ° 0 min 0,000 mm 1,2 UV-I 81 W/m² 15,8 °C 18,8 °C 0,0 km/h (0 Bft)
29.07.2019 18:26 18,8 °C 83 % 1008,7 hPa 0,0 mm 0,0 km/h (0 Bft) NO 35 ° 0 min 0,000 mm 1,2 UV-I 90 W/m² 15,8 °C 18,8 °C 0,0 km/h (0 Bft)
29.07.2019 18:27 18,8 °C 84 % 1008,7 hPa 0,0 mm 0,0 km/h (0 Bft) NO 35 ° 0 min 0,000 mm 1,2 UV-I 90 W/m² 16,0 °C 18,8 °C 0,0 km/h (0 Bft)
29.07.2019 18:28 18,8 °C 83 % 1008,8 hPa 0,0 mm 0,0 km/h (0 Bft) NO 35 ° 0 min 0,000 mm 1,2 UV-I 86 W/m² 15,8 °C 18,8 °C 0,0 km/h (0 Bft)
29.07.2019 18:29 18,7 °C 82 % 1008,7 hPa 0,0 mm 0,1 km/h (0 Bft) N-NO 14 ° 0 min 0,000 mm 1,2 UV-I 86 W/m² 15,6 °C 18,7 °C 3,2 km/h (1 Bft)
29.07.2019 18:30 18,8 °C 83 % 1008,7 hPa 0,0 mm 3,4 km/h (1 Bft) N 10 ° 0 min 0,000 mm 1,2 UV-I 84 W/m² 15,8 °C 18,8 °C 4,8 km/h (1 Bft)
29.07.2019 18:31 18,8 °C 83 % 1008,8 hPa 0,0 mm 2,7 km/h (1 Bft) N 10 ° 0 min 0,000 mm 1,2 UV-I 81 W/m² 15,8 °C 18,8 °C 4,8 km/h (1 Bft)
29.07.2019 18:32 18,8 °C 83 % 1008,8 hPa 0,0 mm 0,5 km/h (0 Bft) N 10 ° 0 min 0,000 mm 1,2 UV-I 79 W/m² 15,8 °C 18,8 °C 1,6 km/h (1 Bft)
29.07.2019 18:33 18,8 °C 84 % 1008,7 hPa 0,0 mm 3,3 km/h (1 Bft) N 10 ° 0 min 0,000 mm 1,2 UV-I 88 W/m² 16,0 °C 18,8 °C 4,8 km/h (1 Bft)
29.07.2019 18:34 18,9 °C 84 % 1008,7 hPa 0,0 mm 3,7 km/h (1 Bft) O 90 ° 0 min 0,000 mm 1,2 UV-I 90 W/m² 16,1 °C 18,9 °C 4,8 km/h (1 Bft)
29.07.2019 18:35 19,0 °C 83 % 1008,8 hPa 0,0 mm 2,5 km/h (1 Bft) O 82 ° 0 min 0,000 mm 1,2 UV-I 90 W/m² 16,0 °C 19,0 °C 8,0 km/h (2 Bft)
29.07.2019 18:36 19,0 °C 83 % 1008,8 hPa 0,0 mm 1,0 km/h (0 Bft) O-NO 61 ° 0 min 0,000 mm 1,2 UV-I 86 W/m² 16,0 °C 19,0 °C 4,8 km/h (1 Bft)
29.07.2019 18:37 18,9 °C 83 % 1008,8 hPa 0,0 mm 3,4 km/h (1 Bft) O-NO 68 ° 0 min 0,000 mm 1,1 UV-I 86 W/m² 15,9 °C 18,9 °C 6,4 km/h (2 Bft)
29.07.2019 18:38 18,9 °C 84 % 1008,8 hPa 0,0 mm 2,6 km/h (1 Bft) O-NO 68 ° 0 min 0,000 mm 1,1 UV-I 86 W/m² 16,1 °C 18,9 °C 3,2 km/h (1 Bft)
29.07.2019 18:39 19,0 °C 84 % 1008,7 hPa 0,0 mm 3,6 km/h (1 Bft) N 355 ° 0 min 0,000 mm 1,1 UV-I 81 W/m² 16,2 °C 19,0 °C 4,8 km/h (1 Bft)
29.07.2019 18:40 19,1 °C 84 % 1008,8 hPa 0,0 mm 5,6 km/h (1 Bft) NO 46 ° 0 min 0,000 mm 1,1 UV-I 76 W/m² 16,3 °C 19,1 °C 8,0 km/h (2 Bft)
29.07.2019 18:41 19,1 °C 83 % 1008,8 hPa 0,0 mm 0,7 km/h (0 Bft) NO 46 ° 0 min 0,000 mm 1,1 UV-I 74 W/m² 16,1 °C 19,1 °C 3,2 km/h (1 Bft)
29.07.2019 18:42 19,1 °C 83 % 1008,8 hPa 0,0 mm 1,3 km/h (1 Bft) NO 46 ° 0 min 0,000 mm 1,1 UV-I 74 W/m² 16,1 °C 19,1 °C 3,2 km/h (1 Bft)
29.07.2019 18:43 19,1 °C 83 % 1008,7 hPa 0,0 mm 3,2 km/h (1 Bft) NO 46 ° 0 min 0,000 mm 1,1 UV-I 76 W/m² 16,1 °C 19,1 °C 4,8 km/h (1 Bft)
29.07.2019 18:44 19,1 °C 83 % 1008,7 hPa 0,0 mm 5,2 km/h (1 Bft) O 80 ° 0 min 0,000 mm 1,0 UV-I 74 W/m² 16,1 °C 19,1 °C 8,0 km/h (2 Bft)
29.07.2019 18:45 19,0 °C 82 % 1008,8 hPa 0,0 mm 6,6 km/h (2 Bft) O-NO 70 ° 0 min 0,000 mm 1,0 UV-I 72 W/m² 15,9 °C 19,0 °C 11,3 km/h (2 Bft)
29.07.2019 18:46 19,0 °C 82 % 1008,7 hPa 0,0 mm 6,2 km/h (2 Bft) O-NO 66 ° 0 min 0,000 mm 1,0 UV-I 70 W/m² 15,9 °C 19,0 °C 8,0 km/h (2 Bft)
29.07.2019 18:47 18,9 °C 82 % 1008,7 hPa 0,0 mm 6,3 km/h (2 Bft) O-NO 74 ° 0 min 0,000 mm 1,0 UV-I 67 W/m² 15,8 °C 18,9 °C 9,7 km/h (2 Bft)
29.07.2019 18:48 18,9 °C 83 % 1008,7 hPa 0,0 mm 4,6 km/h (1 Bft) O-NO 70 ° 0 min 0,000 mm 1,0 UV-I 58 W/m² 15,9 °C 18,9 °C 6,4 km/h (2 Bft)
29.07.2019 18:49 18,9 °C 83 % 1008,8 hPa 0,0 mm 5,6 km/h (1 Bft) O-NO 76 ° 0 min 0,000 mm 0,0 UV-I 49 W/m² 15,9 °C 18,9 °C 8,0 km/h (2 Bft)
29.07.2019 18:50 18,8 °C 83 % 1008,8 hPa 0,0 mm 2,8 km/h (1 Bft) O-NO 67 ° 0 min 0,000 mm 0,0 UV-I 49 W/m² 15,8 °C 18,8 °C 4,8 km/h (1 Bft)
29.07.2019 18:51 18,8 °C 84 % 1008,8 hPa 0,0 mm 4,4 km/h (1 Bft) NO 51 ° 0 min 0,000 mm 0,0 UV-I 49 W/m² 16,0 °C 18,8 °C 6,4 km/h (2 Bft)
29.07.2019 18:52 18,7 °C 83 % 1008,8 hPa 0,0 mm 4,2 km/h (1 Bft) NO 49 ° 0 min 0,000 mm 0,0 UV-I 49 W/m² 15,8 °C 18,7 °C 6,4 km/h (2 Bft)
29.07.2019 18:53 18,7 °C 83 % 1008,8 hPa 0,0 mm 3,2 km/h (1 Bft) O-NO 63 ° 0 min 0,000 mm 0,0 UV-I 47 W/m² 15,8 °C 18,7 °C 4,8 km/h (1 Bft)
29.07.2019 18:54 18,6 °C 84 % 1008,7 hPa 0,0 mm 4,8 km/h (1 Bft) O-NO 69 ° 0 min 0,000 mm 0,0 UV-I 47 W/m² 15,8 °C 18,6 °C 8,0 km/h (2 Bft)
29.07.2019 18:55 18,6 °C 84 % 1008,8 hPa 0,0 mm 3,8 km/h (1 Bft) O-NO 67 ° 0 min 0,000 mm 0,0 UV-I 47 W/m² 15,8 °C 18,6 °C 4,8 km/h (1 Bft)
29.07.2019 18:56 18,5 °C 84 % 1008,8 hPa 0,0 mm 3,4 km/h (1 Bft) O-NO 72 ° 0 min 0,000 mm 0,0 UV-I 47 W/m² 15,7 °C 18,5 °C 4,8 km/h (1 Bft)
29.07.2019 18:57 18,4 °C 84 % 1008,8 hPa 0,0 mm 1,4 km/h (1 Bft) O-NO 72 ° 0 min 0,000 mm 0,0 UV-I 49 W/m² 15,6 °C 18,4 °C 3,2 km/h (1 Bft)
29.07.2019 18:58 18,4 °C 84 % 1008,8 hPa 0,0 mm 0,0 km/h (0 Bft) O-NO 72 ° 0 min 0,000 mm 0,0 UV-I 54 W/m² 15,6 °C 18,4 °C 0,0 km/h (0 Bft)
29.07.2019 18:59 18,4 °C 84 % 1008,8 hPa 0,0 mm 0,0 km/h (0 Bft) O-NO 72 ° 0 min 0,000 mm 0,0 UV-I 54 W/m² 15,6 °C 18,4 °C 0,0 km/h (0 Bft)
29.07.2019 19:00 18,3 °C 84 % 1008,8 hPa 0,0 mm 3,4 km/h (1 Bft) O-NO 57 ° 0 min 0,000 mm 0,0 UV-I 54 W/m² 15,5 °C 18,3 °C 6,4 km/h (2 Bft)
29.07.2019 19:01 18,4 °C 84 % 1008,8 hPa 0,0 mm 0,9 km/h (0 Bft) O-NO 57 ° 0 min 0,051 mm 0,0 UV-I 51 W/m² 15,6 °C 18,4 °C 3,2 km/h (1 Bft)
29.07.2019 19:02 18,4 °C 84 % 1008,8 hPa 0,0 mm 1,7 km/h (1 Bft) O-NO 57 ° 0 min 0,000 mm 0,0 UV-I 53 W/m² 15,6 °C 18,4 °C 3,2 km/h (1 Bft)
29.07.2019 19:03 18,4 °C 84 % 1008,8 hPa 0,0 mm 1,0 km/h (0 Bft) O-NO 57 ° 0 min 0,000 mm 0,0 UV-I 53 W/m² 15,6 °C 18,4 °C 3,2 km/h (1 Bft)
29.07.2019 19:04 18,4 °C 84 % 1008,8 hPa 0,0 mm 5,0 km/h (1 Bft) NO 49 ° 0 min 0,000 mm 0,0 UV-I 51 W/m² 15,6 °C 18,4 °C 8,0 km/h (2 Bft)
29.07.2019 19:05 18,5 °C 84 % 1008,7 hPa 0,0 mm 3,6 km/h (1 Bft) O-NO 72 ° 0 min 0,000 mm 0,0 UV-I 53 W/m² 15,7 °C 18,5 °C 6,4 km/h (2 Bft)
29.07.2019 19:06 18,6 °C 84 % 1008,7 hPa 0,0 mm 2,8 km/h (1 Bft) NO 49 ° 0 min 0,000 mm 0,0 UV-I 53 W/m² 15,8 °C 18,6 °C 4,8 km/h (1 Bft)
29.07.2019 19:07 18,6 °C 83 % 1008,7 hPa 0,0 mm 3,1 km/h (1 Bft) NO 50 ° 0 min 0,000 mm 0,0 UV-I 51 W/m² 15,7 °C 18,6 °C 4,8 km/h (1 Bft)
29.07.2019 19:08 18,7 °C 83 % 1008,7 hPa 0,0 mm 1,5 km/h (1 Bft) NO 50 ° 0 min 0,000 mm 0,0 UV-I 51 W/m² 15,8 °C 18,7 °C 3,2 km/h (1 Bft)
29.07.2019 19:09 18,7 °C 83 % 1008,7 hPa 0,0 mm 0,2 km/h (0 Bft) NO 50 ° 0 min 0,000 mm 0,8 UV-I 58 W/m² 15,8 °C 18,7 °C 1,6 km/h (1 Bft)
29.07.2019 19:10 18,7 °C 83 % 1008,8 hPa 0,0 mm 2,1 km/h (1 Bft) O-NO 61 ° 0 min 0,000 mm 0,8 UV-I 62 W/m² 15,8 °C 18,7 °C 3,2 km/h (1 Bft)
29.07.2019 19:11 18,7 °C 82 % 1008,8 hPa 0,0 mm 1,6 km/h (1 Bft) O-NO 60 ° 0 min 0,000 mm 0,0 UV-I 53 W/m² 15,6 °C 18,7 °C 4,8 km/h (1 Bft)
29.07.2019 19:12 18,7 °C 83 % 1008,7 hPa 0,0 mm 3,1 km/h (1 Bft) O-NO 62 ° 0 min 0,000 mm 0,7 UV-I 56 W/m² 15,8 °C 18,7 °C 4,8 km/h (1 Bft)
29.07.2019 19:13 18,7 °C 83 % 1008,7 hPa 0,0 mm 1,3 km/h (1 Bft) O-NO 64 ° 0 min 0,000 mm 0,7 UV-I 54 W/m² 15,8 °C 18,7 °C 3,2 km/h (1 Bft)
29.07.2019 19:14 18,7 °C 82 % 1008,8 hPa 0,0 mm 0,6 km/h (0 Bft) O-NO 64 ° 0 min 0,000 mm 0,0 UV-I 53 W/m² 15,6 °C 18,7 °C 3,2 km/h (1 Bft)
29.07.2019 19:15 18,7 °C 82 % 1008,7 hPa 0,0 mm 1,1 km/h (1 Bft) O-NO 64 ° 0 min 0,000 mm 0,0 UV-I 54 W/m² 15,6 °C 18,7 °C 3,2 km/h (1 Bft)
29.07.2019 19:16 18,7 °C 83 % 1008,8 hPa 0,0 mm 2,1 km/h (1 Bft) O-NO 64 ° 0 min 0,000 mm 0,0 UV-I 51 W/m² 15,8 °C 18,7 °C 3,2 km/h (1 Bft)
29.07.2019 19:17 18,7 °C 83 % 1008,8 hPa 0,0 mm 2,7 km/h (1 Bft) O-NO 64 ° 0 min 0,000 mm 0,7 UV-I 56 W/m² 15,8 °C 18,7 °C 3,2 km/h (1 Bft)
29.07.2019 19:18 18,7 °C 83 % 1008,8 hPa 0,0 mm 1,0 km/h (0 Bft) O-NO 64 ° 0 min 0,000 mm 0,7 UV-I 93 W/m² 15,8 °C 18,7 °C 3,2 km/h (1 Bft)
29.07.2019 19:19 18,7 °C 83 % 1008,8 hPa 0,0 mm 0,5 km/h (0 Bft) O-NO 64 ° 0 min 0,000 mm 0,7 UV-I 98 W/m² 15,8 °C 18,7 °C 1,6 km/h (1 Bft)
29.07.2019 19:20 18,7 °C 83 % 1008,8 hPa 0,0 mm 0,0 km/h (0 Bft) O-NO 64 ° 0 min 0,000 mm 0,7 UV-I 81 W/m² 15,8 °C 18,7 °C 0,0 km/h (0 Bft)
29.07.2019 19:21 18,7 °C 83 % 1008,8 hPa 0,0 mm 0,0 km/h (0 Bft) O-NO 64 ° 0 min 0,000 mm 0,6 UV-I 58 W/m² 15,8 °C 18,7 °C 0,0 km/h (0 Bft)
29.07.2019 19:22 18,7 °C 84 % 1008,8 hPa 0,0 mm 0,0 km/h (0 Bft) O-NO 64 ° 0 min 0,000 mm 0,0 UV-I 51 W/m² 15,9 °C 18,7 °C 0,0 km/h (0 Bft)
29.07.2019 19:23 18,7 °C 84 % 1008,8 hPa 0,0 mm 1,3 km/h (1 Bft) O-NO 64 ° 0 min 0,000 mm 0,0 UV-I 49 W/m² 15,9 °C 18,7 °C 3,2 km/h (1 Bft)
29.07.2019 19:24 18,7 °C 85 % 1008,8 hPa 0,0 mm 0,8 km/h (0 Bft) O-NO 64 ° 0 min 0,000 mm 0,0 UV-I 47 W/m² 16,1 °C 18,7 °C 1,6 km/h (1 Bft)
29.07.2019 19:25 18,7 °C 84 % 1008,8 hPa 0,0 mm 0,0 km/h (0 Bft) O-NO 64 ° 0 min 0,000 mm 0,0 UV-I 53 W/m² 15,9 °C 18,7 °C 0,0 km/h (0 Bft)
29.07.2019 19:26 18,7 °C 84 % 1008,8 hPa 0,0 mm 0,5 km/h (0 Bft) O-NO 64 ° 0 min 0,000 mm 0,0 UV-I 51 W/m² 15,9 °C 18,7 °C 1,6 km/h (1 Bft)
29.07.2019 19:27 18,7 °C 84 % 1008,7 hPa 0,0 mm 1,1 km/h (1 Bft) O-NO 64 ° 0 min 0,000 mm 0,0 UV-I 51 W/m² 15,9 °C 18,7 °C 3,2 km/h (1 Bft)
29.07.2019 19:28 18,8 °C 84 % 1008,7 hPa 0,0 mm 3,2 km/h (1 Bft) O-NO 63 ° 0 min 0,000 mm 0,0 UV-I 46 W/m² 16,0 °C 18,8 °C 4,8 km/h (1 Bft)
29.07.2019 19:29 18,8 °C 84 % 1008,7 hPa 0,0 mm 1,6 km/h (1 Bft) O-NO 63 ° 0 min 0,000 mm 0,0 UV-I 44 W/m² 16,0 °C 18,8 °C 3,2 km/h (1 Bft)
29.07.2019 19:30 18,8 °C 85 % 1008,7 hPa 0,0 mm 0,6 km/h (0 Bft) O-NO 63 ° 0 min 0,000 mm 0,0 UV-I 44 W/m² 16,2 °C 18,8 °C 3,2 km/h (1 Bft)
29.07.2019 19:31 18,7 °C 85 % 1008,7 hPa 0,0 mm 0,6 km/h (0 Bft) O-NO 63 ° 0 min 0,000 mm 0,0 UV-I 42 W/m² 16,1 °C 18,7 °C 3,2 km/h (1 Bft)
29.07.2019 19:32 18,6 °C 85 % 1008,7 hPa 0,0 mm 0,0 km/h (0 Bft) O-NO 63 ° 0 min 0,000 mm 0,0 UV-I 42 W/m² 16,0 °C 18,6 °C 0,0 km/h (0 Bft)
29.07.2019 19:33 18,6 °C 84 % 1008,7 hPa 0,0 mm 1,3 km/h (1 Bft) O-NO 63 ° 0 min 0,000 mm 0,0 UV-I 46 W/m² 15,8 °C 18,6 °C 3,2 km/h (1 Bft)
29.07.2019 19:34 18,6 °C 84 % 1008,7 hPa 0,0 mm 0,0 km/h (0 Bft) O-NO 63 ° 0 min 0,000 mm 0,0 UV-I 51 W/m² 15,8 °C 18,6 °C 0,0 km/h (0 Bft)
29.07.2019 19:35 18,6 °C 84 % 1008,7 hPa 0,0 mm 2,0 km/h (1 Bft) O-NO 63 ° 0 min 0,000 mm 0,5 UV-I 62 W/m² 15,8 °C 18,6 °C 3,2 km/h (1 Bft)
29.07.2019 19:36 18,6 °C 85 % 1008,7 hPa 0,0 mm 1,1 km/h (1 Bft) O-NO 63 ° 0 min 0,000 mm 0,5 UV-I 65 W/m² 16,0 °C 18,6 °C 3,2 km/h (1 Bft)
29.07.2019 19:37 18,6 °C 85 % 1008,7 hPa 0,0 mm 0,6 km/h (0 Bft) O-NO 63 ° 0 min 0,000 mm 0,0 UV-I 49 W/m² 16,0 °C 18,6 °C 1,6 km/h (1 Bft)
29.07.2019 19:38 18,6 °C 85 % 1008,7 hPa 0,0 mm 0,0 km/h (0 Bft) O-NO 63 ° 0 min 0,000 mm 0,0 UV-I 49 W/m² 16,0 °C 18,6 °C 0,0 km/h (0 Bft)
29.07.2019 19:39 18,6 °C 85 % 1008,7 hPa 0,0 mm 0,1 km/h (0 Bft) O-NO 63 ° 0 min 0,000 mm 0,5 UV-I 58 W/m² 16,0 °C 18,6 °C 1,6 km/h (1 Bft)
29.07.2019 19:40 18,6 °C 85 % 1008,7 hPa 0,0 mm 0,0 km/h (0 Bft) O-NO 63 ° 0 min 0,000 mm 0,5 UV-I 67 W/m² 16,0 °C 18,6 °C 0,0 km/h (0 Bft)
29.07.2019 19:41 18,6 °C 86 % 1008,7 hPa 0,0 mm 0,7 km/h (0 Bft) O-NO 63 ° 0 min 0,000 mm 0,5 UV-I 79 W/m² 16,2 °C 18,6 °C 3,2 km/h (1 Bft)
29.07.2019 19:42 18,6 °C 86 % 1008,8 hPa 0,0 mm 1,4 km/h (1 Bft) O-NO 63 ° 0 min 0,000 mm 0,5 UV-I 100 W/m² 16,2 °C 18,6 °C 4,8 km/h (1 Bft)
29.07.2019 19:43 18,6 °C 85 % 1008,8 hPa 0,0 mm 0,3 km/h (0 Bft) O-NO 63 ° 0 min 0,000 mm 0,5 UV-I 98 W/m² 16,0 °C 18,6 °C 1,6 km/h (1 Bft)
29.07.2019 19:44 18,6 °C 85 % 1008,8 hPa 0,0 mm 1,8 km/h (1 Bft) O 90 ° 0 min 0,000 mm 0,0 UV-I 98 W/m² 16,0 °C 18,6 °C 3,2 km/h (1 Bft)
29.07.2019 19:45 18,6 °C 85 % 1008,8 hPa 0,0 mm 0,7 km/h (0 Bft) O 89 ° 0 min 0,000 mm 0,0 UV-I 97 W/m² 16,0 °C 18,6 °C 1,6 km/h (1 Bft)
29.07.2019 19:46 18,6 °C 86 % 1008,8 hPa 0,0 mm 2,6 km/h (1 Bft) O 89 ° 0 min 0,000 mm 0,0 UV-I 95 W/m² 16,2 °C 18,6 °C 4,8 km/h (1 Bft)
29.07.2019 19:47 18,6 °C 85 % 1008,8 hPa 0,0 mm 2,3 km/h (1 Bft) O 89 ° 0 min 0,000 mm 0,0 UV-I 93 W/m² 16,0 °C 18,6 °C 4,8 km/h (1 Bft)
29.07.2019 19:48 18,6 °C 85 % 1008,8 hPa 0,0 mm 3,0 km/h (1 Bft) O 89 ° 0 min 0,000 mm 0,0 UV-I 88 W/m² 16,0 °C 18,6 °C 4,8 km/h (1 Bft)
29.07.2019 19:49 18,6 °C 85 % 1008,8 hPa 0,0 mm 2,7 km/h (1 Bft) O 89 ° 0 min 0,000 mm 0,0 UV-I 86 W/m² 16,0 °C 18,6 °C 4,8 km/h (1 Bft)
29.07.2019 19:50 18,6 °C 85 % 1008,9 hPa 0,0 mm 1,1 km/h (1 Bft) O 89 ° 0 min 0,000 mm 0,0 UV-I 83 W/m² 16,0 °C 18,6 °C 3,2 km/h (1 Bft)
29.07.2019 19:51 18,6 °C 86 % 1008,9 hPa 0,0 mm 0,5 km/h (0 Bft) O 89 ° 0 min 0,000 mm 0,0 UV-I 79 W/m² 16,2 °C 18,6 °C 1,6 km/h (1 Bft)
29.07.2019 19:52 18,6 °C 85 % 1008,9 hPa 0,0 mm 3,1 km/h (1 Bft) O 89 ° 0 min 0,000 mm 0,0 UV-I 77 W/m² 16,0 °C 18,6 °C 4,8 km/h (1 Bft)
29.07.2019 19:53 18,6 °C 86 % 1008,9 hPa 0,0 mm 3,6 km/h (1 Bft) O 82 ° 0 min 0,000 mm 0,0 UV-I 76 W/m² 16,2 °C 18,6 °C 4,8 km/h (1 Bft)
29.07.2019 19:54 18,5 °C 86 % 1008,8 hPa 0,0 mm 2,1 km/h (1 Bft) O 82 ° 0 min 0,000 mm 0,0 UV-I 72 W/m² 16,1 °C 18,5 °C 4,8 km/h (1 Bft)
29.07.2019 19:55 18,4 °C 86 % 1008,8 hPa 0,0 mm 1,5 km/h (1 Bft) O 82 ° 0 min 0,000 mm 0,0 UV-I 70 W/m² 16,0 °C 18,4 °C 3,2 km/h (1 Bft)
29.07.2019 19:56 18,4 °C 86 % 1008,9 hPa 0,0 mm 1,3 km/h (1 Bft) O 82 ° 0 min 0,000 mm 0,0 UV-I 69 W/m² 16,0 °C 18,4 °C 3,2 km/h (1 Bft)
29.07.2019 19:57 18,4 °C 86 % 1008,9 hPa 0,0 mm 0,0 km/h (0 Bft) O 82 ° 0 min 0,000 mm 0,0 UV-I 67 W/m² 16,0 °C 18,4 °C 0,0 km/h (0 Bft)
29.07.2019 19:58 18,4 °C 86 % 1008,9 hPa 0,0 mm 0,5 km/h (0 Bft) O 82 ° 0 min 0,000 mm 0,0 UV-I 65 W/m² 16,0 °C 18,4 °C 3,2 km/h (1 Bft)
29.07.2019 19:59 18,4 °C 86 % 1008,9 hPa 0,0 mm 3,7 km/h (1 Bft) O-NO 78 ° 0 min 0,000 mm 0,0 UV-I 63 W/m² 16,0 °C 18,4 °C 4,8 km/h (1 Bft)
29.07.2019 20:00 18,4 °C 86 % 1008,9 hPa 0,0 mm 2,3 km/h (1 Bft) O-NO 78 ° 0 min 0,000 mm 0,0 UV-I 60 W/m² 16,0 °C 18,4 °C 3,2 km/h (1 Bft)
29.07.2019 20:01 18,3 °C 87 % 1009,0 hPa 0,0 mm 0,7 km/h (0 Bft) O-NO 78 ° 0 min 0,051 mm 0,0 UV-I 58 W/m² 16,1 °C 18,3 °C 1,6 km/h (1 Bft)
29.07.2019 20:02 18,3 °C 87 % 1009,0 hPa 0,0 mm 0,0 km/h (0 Bft) O-NO 78 ° 0 min 0,000 mm 0,0 UV-I 58 W/m² 16,1 °C 18,3 °C 0,0 km/h (0 Bft)
29.07.2019 20:03 18,3 °C 87 % 1009,0 hPa 0,0 mm 0,6 km/h (0 Bft) O-NO 78 ° 0 min 0,000 mm 0,0 UV-I 56 W/m² 16,1 °C 18,3 °C 3,2 km/h (1 Bft)
29.07.2019 20:04 18,3 °C 86 % 1009,0 hPa 0,0 mm 3,4 km/h (1 Bft) O 81 ° 0 min 0,000 mm 0,0 UV-I 54 W/m² 15,9 °C 18,3 °C 4,8 km/h (1 Bft)
29.07.2019 20:05 18,3 °C 86 % 1009,0 hPa 0,0 mm 1,2 km/h (1 Bft) O 80 ° 0 min 0,000 mm 0,0 UV-I 51 W/m² 15,9 °C 18,3 °C 3,2 km/h (1 Bft)
29.07.2019 20:06 18,3 °C 86 % 1009,0 hPa 0,0 mm 3,6 km/h (1 Bft) O 81 ° 0 min 0,000 mm 0,0 UV-I 49 W/m² 15,9 °C 18,3 °C 4,8 km/h (1 Bft)
29.07.2019 20:07 18,2 °C 87 % 1009,0 hPa 0,0 mm 1,2 km/h (1 Bft) O 81 ° 0 min 0,000 mm 0,0 UV-I 47 W/m² 16,0 °C 18,2 °C 1,6 km/h (1 Bft)
29.07.2019 20:08 18,2 °C 86 % 1009,0 hPa 0,0 mm 0,0 km/h (0 Bft) O 81 ° 0 min 0,000 mm 0,0 UV-I 46 W/m² 15,8 °C 18,2 °C 0,0 km/h (0 Bft)
29.07.2019 20:09 18,2 °C 87 % 1009,0 hPa 0,0 mm 0,0 km/h (0 Bft) O 81 ° 0 min 0,000 mm 0,0 UV-I 44 W/m² 16,0 °C 18,2 °C 0,0 km/h (0 Bft)
29.07.2019 20:10 18,1 °C 87 % 1009,0 hPa 0,0 mm 0,0 km/h (0 Bft) O 81 ° 0 min 0,000 mm 0,0 UV-I 42 W/m² 15,9 °C 18,1 °C 0,0 km/h (0 Bft)
29.07.2019 20:11 18,1 °C 87 % 1009,1 hPa 0,0 mm 0,0 km/h (0 Bft) O 81 ° 0 min 0,000 mm 0,0 UV-I 39 W/m² 15,9 °C 18,1 °C 0,0 km/h (0 Bft)
29.07.2019 20:12 18,0 °C 87 % 1009,0 hPa 0,0 mm 0,0 km/h (0 Bft) O 81 ° 0 min 0,000 mm 0,0 UV-I 37 W/m² 15,8 °C 18,0 °C 0,0 km/h (0 Bft)
29.07.2019 20:13 18,0 °C 87 % 1009,0 hPa 0,0 mm 0,0 km/h (0 Bft) O 81 ° 0 min 0,000 mm 0,0 UV-I 35 W/m² 15,8 °C 18,0 °C 0,0 km/h (0 Bft)
29.07.2019 20:14 17,9 °C 87 % 1009,0 hPa 0,0 mm 0,0 km/h (0 Bft) O 81 ° 0 min 0,000 mm 0,0 UV-I 35 W/m² 15,7 °C 17,9 °C 0,0 km/h (0 Bft)
29.07.2019 20:15 17,9 °C 88 % 1009,0 hPa 0,0 mm 0,0 km/h (0 Bft) O 81 ° 0 min 0,000 mm 0,0 UV-I 33 W/m² 15,9 °C 17,9 °C 0,0 km/h (0 Bft)
29.07.2019 20:16 17,9 °C 88 % 1009,1 hPa 0,0 mm 0,0 km/h (0 Bft) O 81 ° 0 min 0,000 mm 0,0 UV-I 32 W/m² 15,9 °C 17,9 °C 0,0 km/h (0 Bft)
29.07.2019 20:17 17,8 °C 88 % 1009,0 hPa 0,0 mm 0,0 km/h (0 Bft) O 81 ° 0 min 0,000 mm 0,0 UV-I 30 W/m² 15,8 °C 17,8 °C 0,0 km/h (0 Bft)
29.07.2019 20:18 17,7 °C 88 % 1009,0 hPa 0,0 mm 0,0 km/h (0 Bft) O 81 ° 0 min 0,000 mm 0,0 UV-I 30 W/m² 15,7 °C 17,7 °C 0,0 km/h (0 Bft)
29.07.2019 20:19 17,6 °C 89 % 1009,1 hPa 0,0 mm 0,0 km/h (0 Bft) O 81 ° 0 min 0,000 mm 0,0 UV-I 28 W/m² 15,8 °C 17,6 °C 0,0 km/h (0 Bft)
29.07.2019 20:20 17,6 °C 89 % 1009,1 hPa 0,0 mm 0,0 km/h (0 Bft) O 81 ° 0 min 0,000 mm 0,0 UV-I 28 W/m² 15,8 °C 17,6 °C 0,0 km/h (0 Bft)
29.07.2019 20:21 17,5 °C 89 % 1009,1 hPa 0,0 mm 0,0 km/h (0 Bft) O 81 ° 0 min 0,000 mm 0,0 UV-I 26 W/m² 15,7 °C 17,5 °C 0,0 km/h (0 Bft)
29.07.2019 20:22 17,5 °C 89 % 1009,1 hPa 0,0 mm 0,0 km/h (0 Bft) O 81 ° 0 min 0,000 mm 0,0 UV-I 26 W/m² 15,7 °C 17,5 °C 0,0 km/h (0 Bft)
29.07.2019 20:23 17,4 °C 89 % 1009,1 hPa 0,0 mm 0,0 km/h (0 Bft) O 81 ° 0 min 0,000 mm 0,0 UV-I 23 W/m² 15,6 °C 17,4 °C 0,0 km/h (0 Bft)
29.07.2019 20:24 17,4 °C 89 % 1009,1 hPa 0,0 mm 0,0 km/h (0 Bft) O 81 ° 0 min 0,000 mm 0,0 UV-I 19 W/m² 15,6 °C 17,4 °C 0,0 km/h (0 Bft)
29.07.2019 20:25 17,4 °C 89 % 1009,1 hPa 0,0 mm 0,0 km/h (0 Bft) O 81 ° 0 min 0,000 mm 0,0 UV-I 16 W/m² 15,6 °C 17,4 °C 0,0 km/h (0 Bft)
29.07.2019 20:26 17,4 °C 89 % 1009,1 hPa 0,0 mm 0,0 km/h (0 Bft) O 81 ° 0 min 0,000 mm 0,0 UV-I 16 W/m² 15,6 °C 17,4 °C 0,0 km/h (0 Bft)
29.07.2019 20:27 17,3 °C 89 % 1009,1 hPa 0,0 mm 0,0 km/h (0 Bft) O 81 ° 0 min 0,000 mm 0,0 UV-I 14 W/m² 15,5 °C 17,3 °C 0,0 km/h (0 Bft)
29.07.2019 20:28 17,3 °C 89 % 1009,1 hPa 0,0 mm 0,0 km/h (0 Bft) O 81 ° 0 min 0,000 mm 0,0 UV-I 14 W/m² 15,5 °C 17,3 °C 0,0 km/h (0 Bft)
29.07.2019 20:29 17,2 °C 89 % 1009,1 hPa 0,0 mm 0,0 km/h (0 Bft) O 81 ° 0 min 0,000 mm 0,0 UV-I 14 W/m² 15,4 °C 17,2 °C 0,0 km/h (0 Bft)
29.07.2019 20:30 17,2 °C 89 % 1009,2 hPa 0,0 mm 0,0 km/h (0 Bft) O 81 ° 0 min 0,000 mm 0,0 UV-I 14 W/m² 15,4 °C 17,2 °C 0,0 km/h (0 Bft)
29.07.2019 20:31 17,2 °C 90 % 1009,2 hPa 0,0 mm 0,0 km/h (0 Bft) O 81 ° 0 min 0,000 mm 0,0 UV-I 14 W/m² 15,5 °C 17,2 °C 0,0 km/h (0 Bft)
29.07.2019 20:32 17,1 °C 90 % 1009,2 hPa 0,0 mm 0,0 km/h (0 Bft) O 81 ° 0 min 0,000 mm 0,0 UV-I 12 W/m² 15,4 °C 17,1 °C 0,0 km/h (0 Bft)
29.07.2019 20:33 17,1 °C 90 % 1009,3 hPa 0,0 mm 0,0 km/h (0 Bft) O 81 ° 0 min 0,000 mm 0,0 UV-I 12 W/m² 15,4 °C 17,1 °C 0,0 km/h (0 Bft)
29.07.2019 20:34 17,0 °C 90 % 1009,3 hPa 0,0 mm 0,0 km/h (0 Bft) O 81 ° 0 min 0,000 mm 0,0 UV-I 12 W/m² 15,3 °C 17,0 °C 0,0 km/h (0 Bft)
29.07.2019 20:35 16,9 °C 90 % 1009,3 hPa 0,0 mm 0,0 km/h (0 Bft) O 81 ° 0 min 0,000 mm 0,0 UV-I 11 W/m² 15,2 °C 16,9 °C 0,0 km/h (0 Bft)
29.07.2019 20:36 16,9 °C 90 % 1009,3 hPa 0,0 mm 0,0 km/h (0 Bft) O 81 ° 0 min 0,000 mm 0,0 UV-I 11 W/m² 15,2 °C 16,9 °C 0,0 km/h (0 Bft)
29.07.2019 20:37 16,9 °C 90 % 1009,4 hPa 0,0 mm 0,0 km/h (0 Bft) O 81 ° 0 min 0,000 mm 0,0 UV-I 11 W/m² 15,2 °C 16,9 °C 0,0 km/h (0 Bft)
29.07.2019 20:38 16,8 °C 90 % 1009,4 hPa 0,0 mm 0,0 km/h (0 Bft) O 81 ° 0 min 0,000 mm 0,0 UV-I 11 W/m² 15,1 °C 16,8 °C 0,0 km/h (0 Bft)
29.07.2019 20:39 16,8 °C 90 % 1009,3 hPa 0,0 mm 0,0 km/h (0 Bft) O 81 ° 0 min 0,000 mm 0,0 UV-I 9 W/m² 15,1 °C 16,8 °C 0,0 km/h (0 Bft)
29.07.2019 20:40 16,8 °C 90 % 1009,4 hPa 0,0 mm 0,0 km/h (0 Bft) O 81 ° 0 min 0,000 mm 0,0 UV-I 9 W/m² 15,1 °C 16,8 °C 0,0 km/h (0 Bft)
29.07.2019 20:41 16,7 °C 91 % 1009,4 hPa 0,0 mm 0,0 km/h (0 Bft) O 81 ° 0 min 0,000 mm 0,0 UV-I 9 W/m² 15,2 °C 16,7 °C 0,0 km/h (0 Bft)
29.07.2019 20:42 16,7 °C 91 % 1009,4 hPa 0,0 mm 0,0 km/h (0 Bft) O 81 ° 0 min 0,000 mm 0,0 UV-I 7 W/m² 15,2 °C 16,7 °C 0,0 km/h (0 Bft)
29.07.2019 20:43 16,8 °C 91 % 1009,4 hPa 0,0 mm 0,0 km/h (0 Bft) O 81 ° 0 min 0,000 mm 0,0 UV-I 7 W/m² 15,3 °C 16,8 °C 0,0 km/h (0 Bft)
29.07.2019 20:44 16,8 °C 91 % 1009,4 hPa 0,0 mm 0,0 km/h (0 Bft) O 81 ° 0 min 0,000 mm 0,0 UV-I 7 W/m² 15,3 °C 16,8 °C 0,0 km/h (0 Bft)
29.07.2019 20:45 16,8 °C 91 % 1009,4 hPa 0,0 mm 0,0 km/h (0 Bft) O 81 ° 0 min 0,000 mm 0,0 UV-I 7 W/m² 15,3 °C 16,8 °C 0,0 km/h (0 Bft)
29.07.2019 20:46 16,7 °C 91 % 1009,5 hPa 0,0 mm 0,0 km/h (0 Bft) O 81 ° 0 min 0,000 mm 0,0 UV-I 7 W/m² 15,2 °C 16,7 °C 0,0 km/h (0 Bft)
29.07.2019 20:47 16,7 °C 91 % 1009,4 hPa 0,0 mm 0,0 km/h (0 Bft) O 81 ° 0 min 0,000 mm 0,0 UV-I 7 W/m² 15,2 °C 16,7 °C 0,0 km/h (0 Bft)
29.07.2019 20:48 16,7 °C 91 % 1009,5 hPa 0,0 mm 0,0 km/h (0 Bft) O 81 ° 0 min 0,000 mm 0,0 UV-I 5 W/m² 15,2 °C 16,7 °C 0,0 km/h (0 Bft)
29.07.2019 20:49 16,7 °C 91 % 1009,5 hPa 0,0 mm 0,0 km/h (0 Bft) O 81 ° 0 min 0,000 mm 0,0 UV-I 5 W/m² 15,2 °C 16,7 °C 0,0 km/h (0 Bft)
29.07.2019 20:50 16,7 °C 91 % 1009,5 hPa 0,0 mm 0,0 km/h (0 Bft) O 81 ° 0 min 0,000 mm 0,0 UV-I 5 W/m² 15,2 °C 16,7 °C 0,0 km/h (0 Bft)
29.07.2019 20:51 16,7 °C 91 % 1009,6 hPa 0,0 mm 0,0 km/h (0 Bft) O 81 ° 0 min 0,000 mm 0,0 UV-I 5 W/m² 15,2 °C 16,7 °C 0,0 km/h (0 Bft)
29.07.2019 20:52 16,6 °C 91 % 1009,6 hPa 0,0 mm 0,0 km/h (0 Bft) O 81 ° 0 min 0,000 mm 0,0 UV-I 0 W/m² 15,1 °C 16,6 °C 0,0 km/h (0 Bft)
29.07.2019 20:53 16,6 °C 91 % 1009,6 hPa 0,0 mm 0,0 km/h (0 Bft) O 81 ° 0 min 0,000 mm 0,0 UV-I 0 W/m² 15,1 °C 16,6 °C 0,0 km/h (0 Bft)
29.07.2019 20:54 16,6 °C 92 % 1009,7 hPa 0,0 mm 0,0 km/h (0 Bft) O 81 ° 0 min 0,000 mm 0,0 UV-I 0 W/m² 15,3 °C 16,6 °C 0,0 km/h (0 Bft)
29.07.2019 20:55 16,6 °C 92 % 1009,7 hPa 0,0 mm 0,0 km/h (0 Bft) O 81 ° 0 min 0,000 mm 0,0 UV-I 0 W/m² 15,3 °C 16,6 °C 0,0 km/h (0 Bft)
29.07.2019 20:56 16,6 °C 92 % 1009,7 hPa 0,0 mm 0,0 km/h (0 Bft) O 81 ° 0 min 0,000 mm 0,0 UV-I 0 W/m² 15,3 °C 16,6 °C 0,0 km/h (0 Bft)
29.07.2019 20:57 16,6 °C 92 % 1009,7 hPa 0,0 mm 0,0 km/h (0 Bft) O 81 ° 0 min 0,000 mm 0,0 UV-I 0 W/m² 15,3 °C 16,6 °C 0,0 km/h (0 Bft)
29.07.2019 20:58 16,6 °C 92 % 1009,7 hPa 0,0 mm 0,0 km/h (0 Bft) O 81 ° 0 min 0,000 mm 0,0 UV-I 0 W/m² 15,3 °C 16,6 °C 0,0 km/h (0 Bft)
29.07.2019 20:59 16,6 °C 92 % 1009,8 hPa 0,0 mm 0,0 km/h (0 Bft) O 81 ° 0 min 0,000 mm 0,0 UV-I 0 W/m² 15,3 °C 16,6 °C 0,0 km/h (0 Bft)
29.07.2019 21:00 16,6 °C 92 % 1009,8 hPa 0,0 mm 0,0 km/h (0 Bft) O 81 ° 0 min 0,000 mm 0,0 UV-I 0 W/m² 15,3 °C 16,6 °C 0,0 km/h (0 Bft)
29.07.2019 21:01 16,6 °C 92 % 1009,8 hPa 0,0 mm 0,0 km/h (0 Bft) O 81 ° 0 min 0,025 mm 0,0 UV-I 0 W/m² 15,3 °C 16,6 °C 0,0 km/h (0 Bft)
29.07.2019 21:02 16,6 °C 92 % 1009,8 hPa 0,0 mm 0,0 km/h (0 Bft) O 81 ° 0 min 0,000 mm 0,0 UV-I 0 W/m² 15,3 °C 16,6 °C 0,0 km/h (0 Bft)
29.07.2019 21:03 16,6 °C 92 % 1009,8 hPa 0,0 mm 0,0 km/h (0 Bft) O 81 ° 0 min 0,000 mm 0,0 UV-I 0 W/m² 15,3 °C 16,6 °C 0,0 km/h (0 Bft)
29.07.2019 21:04 16,6 °C 92 % 1009,7 hPa 0,0 mm 0,0 km/h (0 Bft) O 81 ° 0 min 0,000 mm 0,0 UV-I 0 W/m² 15,3 °C 16,6 °C 0,0 km/h (0 Bft)
29.07.2019 21:05 16,6 °C 92 % 1009,8 hPa 0,0 mm 0,0 km/h (0 Bft) O 81 ° 0 min 0,000 mm 0,0 UV-I 0 W/m² 15,3 °C 16,6 °C 0,0 km/h (0 Bft)
29.07.2019 21:06 16,6 °C 92 % 1009,8 hPa 0,0 mm 0,0 km/h (0 Bft) O 81 ° 0 min 0,000 mm 0,0 UV-I 0 W/m² 15,3 °C 16,6 °C 0,0 km/h (0 Bft)
29.07.2019 21:07 16,6 °C 92 % 1009,8 hPa 0,0 mm 0,0 km/h (0 Bft) O 81 ° 0 min 0,000 mm 0,0 UV-I 0 W/m² 15,3 °C 16,6 °C 0,0 km/h (0 Bft)
29.07.2019 21:08 16,6 °C 92 % 1009,8 hPa 0,0 mm 0,0 km/h (0 Bft) O 81 ° 0 min 0,000 mm 0,0 UV-I 0 W/m² 15,3 °C 16,6 °C 0,0 km/h (0 Bft)
29.07.2019 21:09 16,6 °C 92 % 1009,8 hPa 0,0 mm 0,0 km/h (0 Bft) O 81 ° 0 min 0,000 mm 0,0 UV-I 0 W/m² 15,3 °C 16,6 °C 0,0 km/h (0 Bft)
29.07.2019 21:10 16,5 °C 92 % 1009,9 hPa 0,0 mm 0,0 km/h (0 Bft) O 81 ° 0 min 0,000 mm 0,0 UV-I 0 W/m² 15,2 °C 16,5 °C 0,0 km/h (0 Bft)
29.07.2019 21:11 16,6 °C 92 % 1009,8 hPa 0,0 mm 0,0 km/h (0 Bft) O 81 ° 0 min 0,000 mm 0,0 UV-I 0 W/m² 15,3 °C 16,6 °C 0,0 km/h (0 Bft)
29.07.2019 21:12 16,6 °C 92 % 1009,9 hPa 0,0 mm 0,0 km/h (0 Bft) O 81 ° 0 min 0,000 mm 0,0 UV-I 0 W/m² 15,3 °C 16,6 °C 0,0 km/h (0 Bft)
29.07.2019 21:13 16,6 °C 92 % 1010,0 hPa 0,0 mm 0,0 km/h (0 Bft) O 81 ° 0 min 0,000 mm 0,0 UV-I 0 W/m² 15,3 °C 16,6 °C 0,0 km/h (0 Bft)
29.07.2019 21:14 16,5 °C 92 % 1009,9 hPa 0,0 mm 0,0 km/h (0 Bft) O 81 ° 0 min 0,000 mm 0,0 UV-I 0 W/m² 15,2 °C 16,5 °C 0,0 km/h (0 Bft)
29.07.2019 21:15 16,5 °C 92 % 1010,0 hPa 0,0 mm 0,0 km/h (0 Bft) O 81 ° 0 min 0,000 mm 0,0 UV-I 0 W/m² 15,2 °C 16,5 °C 0,0 km/h (0 Bft)
29.07.2019 21:16 16,4 °C 92 % 1010,0 hPa 0,0 mm 0,0 km/h (0 Bft) O 81 ° 0 min 0,000 mm 0,0 UV-I 0 W/m² 15,1 °C 16,4 °C 0,0 km/h (0 Bft)
29.07.2019 21:17 16,5 °C 92 % 1010,0 hPa 0,0 mm 0,0 km/h (0 Bft) O 81 ° 0 min 0,000 mm 0,0 UV-I 0 W/m² 15,2 °C 16,5 °C 0,0 km/h (0 Bft)
29.07.2019 21:18 16,5 °C 92 % 1010,1 hPa 0,0 mm 0,0 km/h (0 Bft) O 81 ° 0 min 0,000 mm 0,0 UV-I 0 W/m² 15,2 °C 16,5 °C 0,0 km/h (0 Bft)
29.07.2019 21:19 16,4 °C 92 % 1010,1 hPa 0,0 mm 0,0 km/h (0 Bft) O 81 ° 0 min 0,000 mm 0,0 UV-I 0 W/m² 15,1 °C 16,4 °C 0,0 km/h (0 Bft)
29.07.2019 21:20 16,4 °C 92 % 1010,1 hPa 0,0 mm 0,0 km/h (0 Bft) O 81 ° 0 min 0,000 mm 0,0 UV-I 0 W/m² 15,1 °C 16,4 °C 0,0 km/h (0 Bft)
29.07.2019 21:21 16,4 °C 92 % 1010,1 hPa 0,0 mm 0,0 km/h (0 Bft) O 81 ° 0 min 0,000 mm 0,0 UV-I 0 W/m² 15,1 °C 16,4 °C 0,0 km/h (0 Bft)
29.07.2019 21:22 16,4 °C 92 % 1010,2 hPa 0,0 mm 0,0 km/h (0 Bft) O 81 ° 0 min 0,000 mm 0,0 UV-I 0 W/m² 15,1 °C 16,4 °C 0,0 km/h (0 Bft)
29.07.2019 21:23 16,4 °C 92 % 1010,2 hPa 0,0 mm 0,0 km/h (0 Bft) O 81 ° 0 min 0,000 mm 0,0 UV-I 0 W/m² 15,1 °C 16,4 °C 0,0 km/h (0 Bft)
29.07.2019 21:24 16,4 °C 92 % 1010,2 hPa 0,0 mm 0,0 km/h (0 Bft) O 81 ° 0 min 0,000 mm 0,0 UV-I 0 W/m² 15,1 °C 16,4 °C 0,0 km/h (0 Bft)
29.07.2019 21:25 16,4 °C 92 % 1010,2 hPa 0,0 mm 0,0 km/h (0 Bft) O 81 ° 0 min 0,000 mm 0,0 UV-I 0 W/m² 15,1 °C 16,4 °C 0,0 km/h (0 Bft)
29.07.2019 21:26 16,4 °C 92 % 1010,3 hPa 0,0 mm 0,0 km/h (0 Bft) O 81 ° 0 min 0,000 mm 0,0 UV-I 0 W/m² 15,1 °C 16,4 °C 0,0 km/h (0 Bft)
29.07.2019 21:27 16,4 °C 93 % 1010,3 hPa 0,0 mm 0,0 km/h (0 Bft) O 81 ° 0 min 0,000 mm 0,0 UV-I 0 W/m² 15,3 °C 16,4 °C 0,0 km/h (0 Bft)
29.07.2019 21:28 16,4 °C 93 % 1010,4 hPa 0,0 mm 0,0 km/h (0 Bft) O 81 ° 0 min 0,000 mm 0,0 UV-I 0 W/m² 15,3 °C 16,4 °C 0,0 km/h (0 Bft)
29.07.2019 21:29 16,4 °C 93 % 1010,4 hPa 0,0 mm 0,0 km/h (0 Bft) O 81 ° 0 min 0,000 mm 0,0 UV-I 0 W/m² 15,3 °C 16,4 °C 0,0 km/h (0 Bft)
29.07.2019 21:30 16,4 °C 93 % 1010,4 hPa 0,0 mm 0,0 km/h (0 Bft) O 81 ° 0 min 0,000 mm 0,0 UV-I 0 W/m² 15,3 °C 16,4 °C 0,0 km/h (0 Bft)
29.07.2019 21:31 16,4 °C 93 % 1010,4 hPa 0,0 mm 0,0 km/h (0 Bft) O 81 ° 0 min 0,000 mm 0,0 UV-I 0 W/m² 15,3 °C 16,4 °C 0,0 km/h (0 Bft)
29.07.2019 21:32 16,4 °C 93 % 1010,4 hPa 0,0 mm 0,0 km/h (0 Bft) O 81 ° 0 min 0,000 mm 0,0 UV-I 0 W/m² 15,3 °C 16,4 °C 0,0 km/h (0 Bft)
29.07.2019 21:33 16,4 °C 93 % 1010,4 hPa 0,0 mm 0,0 km/h (0 Bft) O 81 ° 0 min 0,000 mm 0,0 UV-I 0 W/m² 15,3 °C 16,4 °C 0,0 km/h (0 Bft)
29.07.2019 21:34 16,4 °C 93 % 1010,4 hPa 0,0 mm 0,0 km/h (0 Bft) O 81 ° 0 min 0,000 mm 0,0 UV-I 0 W/m² 15,3 °C 16,4 °C 0,0 km/h (0 Bft)
29.07.2019 21:35 16,4 °C 93 % 1010,4 hPa 0,0 mm 0,0 km/h (0 Bft) O 81 ° 0 min 0,000 mm 0,0 UV-I 0 W/m² 15,3 °C 16,4 °C 0,0 km/h (0 Bft)
29.07.2019 21:36 16,5 °C 93 % 1010,4 hPa 0,0 mm 0,0 km/h (0 Bft) O 81 ° 0 min 0,000 mm 0,0 UV-I 0 W/m² 15,4 °C 16,5 °C 0,0 km/h (0 Bft)
29.07.2019 21:37 16,5 °C 93 % 1010,4 hPa 0,0 mm 0,0 km/h (0 Bft) O 81 ° 0 min 0,000 mm 0,0 UV-I 0 W/m² 15,4 °C 16,5 °C 0,0 km/h (0 Bft)
29.07.2019 21:38 16,5 °C 93 % 1010,4 hPa 0,0 mm 0,0 km/h (0 Bft) O 81 ° 0 min 0,000 mm 0,0 UV-I 0 W/m² 15,4 °C 16,5 °C 0,0 km/h (0 Bft)
29.07.2019 21:39 16,5 °C 93 % 1010,4 hPa 0,0 mm 0,0 km/h (0 Bft) O 81 ° 0 min 0,000 mm 0,0 UV-I 0 W/m² 15,4 °C 16,5 °C 0,0 km/h (0 Bft)
29.07.2019 21:40 16,5 °C 93 % 1010,4 hPa 0,0 mm 0,0 km/h (0 Bft) O 81 ° 0 min 0,000 mm 0,0 UV-I 0 W/m² 15,4 °C 16,5 °C 0,0 km/h (0 Bft)
29.07.2019 21:41 16,4 °C 93 % 1010,4 hPa 0,0 mm 0,0 km/h (0 Bft) O 81 ° 0 min 0,000 mm 0,0 UV-I 0 W/m² 15,3 °C 16,4 °C 0,0 km/h (0 Bft)
29.07.2019 21:42 16,5 °C 93 % 1010,4 hPa 0,0 mm 0,0 km/h (0 Bft) O 81 ° 0 min 0,000 mm 0,0 UV-I 0 W/m² 15,4 °C 16,5 °C 0,0 km/h (0 Bft)
29.07.2019 21:43 16,4 °C 93 % 1010,4 hPa 0,0 mm 0,0 km/h (0 Bft) O 81 ° 0 min 0,000 mm 0,0 UV-I 0 W/m² 15,3 °C 16,4 °C 0,0 km/h (0 Bft)
29.07.2019 21:44 16,4 °C 93 % 1010,4 hPa 0,0 mm 0,0 km/h (0 Bft) O 81 ° 0 min 0,000 mm 0,0 UV-I 0 W/m² 15,3 °C 16,4 °C 0,0 km/h (0 Bft)
29.07.2019 21:45 16,4 °C 93 % 1010,4 hPa 0,0 mm 0,0 km/h (0 Bft) O 81 ° 0 min 0,000 mm 0,0 UV-I 0 W/m² 15,3 °C 16,4 °C 0,0 km/h (0 Bft)
29.07.2019 21:46 16,4 °C 93 % 1010,4 hPa 0,0 mm 0,0 km/h (0 Bft) O 81 ° 0 min 0,000 mm 0,0 UV-I 0 W/m² 15,3 °C 16,4 °C 0,0 km/h (0 Bft)
29.07.2019 21:47 16,4 °C 93 % 1010,4 hPa 0,0 mm 0,0 km/h (0 Bft) O 81 ° 0 min 0,000 mm 0,0 UV-I 0 W/m² 15,3 °C 16,4 °C 0,0 km/h (0 Bft)
29.07.2019 21:48 16,4 °C 93 % 1010,4 hPa 0,0 mm 0,0 km/h (0 Bft) O 81 ° 0 min 0,000 mm 0,0 UV-I 0 W/m² 15,3 °C 16,4 °C 0,0 km/h (0 Bft)
29.07.2019 21:49 16,4 °C 93 % 1010,5 hPa 0,0 mm 0,0 km/h (0 Bft) O 81 ° 0 min 0,000 mm 0,0 UV-I 0 W/m² 15,3 °C 16,4 °C 0,0 km/h (0 Bft)
29.07.2019 21:50 16,4 °C 93 % 1010,5 hPa 0,0 mm 0,0 km/h (0 Bft) O 81 ° 0 min 0,000 mm 0,0 UV-I 0 W/m² 15,3 °C 16,4 °C 0,0 km/h (0 Bft)
29.07.2019 21:51 16,4 °C 93 % 1010,5 hPa 0,0 mm 0,0 km/h (0 Bft) O 81 ° 0 min 0,000 mm 0,0 UV-I 0 W/m² 15,3 °C 16,4 °C 0,0 km/h (0 Bft)
29.07.2019 21:52 16,4 °C 93 % 1010,5 hPa 0,0 mm 0,0 km/h (0 Bft) O 81 ° 0 min 0,000 mm 0,0 UV-I 0 W/m² 15,3 °C 16,4 °C 0,0 km/h (0 Bft)
29.07.2019 21:53 16,4 °C 93 % 1010,5 hPa 0,0 mm 0,0 km/h (0 Bft) O 81 ° 0 min 0,000 mm 0,0 UV-I 0 W/m² 15,3 °C 16,4 °C 0,0 km/h (0 Bft)
29.07.2019 21:54 16,4 °C 93 % 1010,5 hPa 0,0 mm 0,0 km/h (0 Bft) O 81 ° 0 min 0,000 mm 0,0 UV-I 0 W/m² 15,3 °C 16,4 °C 0,0 km/h (0 Bft)
29.07.2019 21:55 16,4 °C 93 % 1010,5 hPa 0,0 mm 0,0 km/h (0 Bft) O 81 ° 0 min 0,000 mm 0,0 UV-I 0 W/m² 15,3 °C 16,4 °C 0,0 km/h (0 Bft)
29.07.2019 21:56 16,4 °C 93 % 1010,5 hPa 0,0 mm 0,0 km/h (0 Bft) O 81 ° 0 min 0,000 mm 0,0 UV-I 0 W/m² 15,3 °C 16,4 °C 0,0 km/h (0 Bft)
29.07.2019 21:57 16,4 °C 93 % 1010,5 hPa 0,0 mm 0,0 km/h (0 Bft) O 81 ° 0 min 0,000 mm 0,0 UV-I 0 W/m² 15,3 °C 16,4 °C 0,0 km/h (0 Bft)
29.07.2019 21:58 16,4 °C 93 % 1010,5 hPa 0,0 mm 0,0 km/h (0 Bft) O 81 ° 0 min 0,000 mm 0,0 UV-I 0 W/m² 15,3 °C 16,4 °C 0,0 km/h (0 Bft)
29.07.2019 21:59 16,4 °C 93 % 1010,5 hPa 0,0 mm 0,0 km/h (0 Bft) O 81 ° 0 min 0,000 mm 0,0 UV-I 0 W/m² 15,3 °C 16,4 °C 0,0 km/h (0 Bft)
29.07.2019 22:00 16,4 °C 93 % 1010,5 hPa 0,0 mm 0,0 km/h (0 Bft) O 81 ° 0 min 0,000 mm 0,0 UV-I 0 W/m² 15,3 °C 16,4 °C 0,0 km/h (0 Bft)
29.07.2019 22:01 16,4 °C 93 % 1010,6 hPa 0,0 mm 0,0 km/h (0 Bft) O 81 ° 0 min 0,000 mm 0,0 UV-I 0 W/m² 15,3 °C 16,4 °C 0,0 km/h (0 Bft)
29.07.2019 22:02 16,3 °C 93 % 1010,6 hPa 0,0 mm 0,0 km/h (0 Bft) O 81 ° 0 min 0,000 mm 0,0 UV-I 0 W/m² 15,2 °C 16,3 °C 0,0 km/h (0 Bft)
29.07.2019 22:03 16,3 °C 93 % 1010,6 hPa 0,0 mm 0,0 km/h (0 Bft) O 81 ° 0 min 0,000 mm 0,0 UV-I 0 W/m² 15,2 °C 16,3 °C 0,0 km/h (0 Bft)
29.07.2019 22:04 16,3 °C 93 % 1010,6 hPa 0,0 mm 0,0 km/h (0 Bft) O 81 ° 0 min 0,000 mm 0,0 UV-I 0 W/m² 15,2 °C 16,3 °C 0,0 km/h (0 Bft)
29.07.2019 22:05 16,3 °C 93 % 1010,6 hPa 0,0 mm 0,0 km/h (0 Bft) O 81 ° 0 min 0,000 mm 0,0 UV-I 0 W/m² 15,2 °C 16,3 °C 0,0 km/h (0 Bft)
29.07.2019 22:06 16,3 °C 93 % 1010,6 hPa 0,0 mm 0,0 km/h (0 Bft) O 81 ° 0 min 0,000 mm 0,0 UV-I 0 W/m² 15,2 °C 16,3 °C 0,0 km/h (0 Bft)
29.07.2019 22:07 16,4 °C 93 % 1010,6 hPa 0,0 mm 0,0 km/h (0 Bft) O 81 ° 0 min 0,000 mm 0,0 UV-I 0 W/m² 15,3 °C 16,4 °C 0,0 km/h (0 Bft)
29.07.2019 22:08 16,3 °C 93 % 1010,6 hPa 0,0 mm 0,0 km/h (0 Bft) O 81 ° 0 min 0,000 mm 0,0 UV-I 0 W/m² 15,2 °C 16,3 °C 0,0 km/h (0 Bft)
29.07.2019 22:09 16,3 °C 93 % 1010,6 hPa 0,0 mm 0,0 km/h (0 Bft) O 81 ° 0 min 0,000 mm 0,0 UV-I 0 W/m² 15,2 °C 16,3 °C 0,0 km/h (0 Bft)
29.07.2019 22:10 16,3 °C 93 % 1010,6 hPa 0,0 mm 0,0 km/h (0 Bft) O 81 ° 0 min 0,000 mm 0,0 UV-I 0 W/m² 15,2 °C 16,3 °C 0,0 km/h (0 Bft)
29.07.2019 22:11 16,3 °C 93 % 1010,7 hPa 0,0 mm 0,0 km/h (0 Bft) O 81 ° 0 min 0,000 mm 0,0 UV-I 0 W/m² 15,2 °C 16,3 °C 0,0 km/h (0 Bft)
29.07.2019 22:12 16,3 °C 93 % 1010,7 hPa 0,0 mm 0,0 km/h (0 Bft) O 81 ° 0 min 0,000 mm 0,0 UV-I 0 W/m² 15,2 °C 16,3 °C 0,0 km/h (0 Bft)
29.07.2019 22:13 16,3 °C 93 % 1010,7 hPa 0,0 mm 0,0 km/h (0 Bft) O 81 ° 0 min 0,000 mm 0,0 UV-I 0 W/m² 15,2 °C 16,3 °C 0,0 km/h (0 Bft)
29.07.2019 22:14 16,3 °C 93 % 1010,7 hPa 0,0 mm 0,0 km/h (0 Bft) O 81 ° 0 min 0,000 mm 0,0 UV-I 0 W/m² 15,2 °C 16,3 °C 0,0 km/h (0 Bft)
29.07.2019 22:15 16,4 °C 93 % 1010,8 hPa 0,0 mm 0,0 km/h (0 Bft) O 81 ° 0 min 0,000 mm 0,0 UV-I 0 W/m² 15,3 °C 16,4 °C 0,0 km/h (0 Bft)
29.07.2019 22:16 16,3 °C 93 % 1010,7 hPa 0,0 mm 0,0 km/h (0 Bft) O 81 ° 0 min 0,000 mm 0,0 UV-I 0 W/m² 15,2 °C 16,3 °C 0,0 km/h (0 Bft)
29.07.2019 22:17 16,3 °C 93 % 1010,7 hPa 0,0 mm 0,0 km/h (0 Bft) O 81 ° 0 min 0,000 mm 0,0 UV-I 0 W/m² 15,2 °C 16,3 °C 0,0 km/h (0 Bft)
29.07.2019 22:18 16,4 °C 93 % 1010,7 hPa 0,0 mm 0,0 km/h (0 Bft) O 80 ° 0 min 0,000 mm 0,0 UV-I 0 W/m² 15,3 °C 16,4 °C 0,0 km/h (0 Bft)
29.07.2019 22:19 16,4 °C 93 % 1010,7 hPa 0,0 mm 0,0 km/h (0 Bft) O 80 ° 0 min 0,000 mm 0,0 UV-I 0 W/m² 15,3 °C 16,4 °C 0,0 km/h (0 Bft)
29.07.2019 22:20 16,4 °C 93 % 1010,6 hPa 0,0 mm 0,0 km/h (0 Bft) O 80 ° 0 min 0,000 mm 0,0 UV-I 0 W/m² 15,3 °C 16,4 °C 0,0 km/h (0 Bft)
29.07.2019 22:21 16,3 °C 93 % 1010,6 hPa 0,0 mm 0,0 km/h (0 Bft) O 80 ° 0 min 0,000 mm 0,0 UV-I 0 W/m² 15,2 °C 16,3 °C 0,0 km/h (0 Bft)
29.07.2019 22:22 16,3 °C 93 % 1010,7 hPa 0,0 mm 0,0 km/h (0 Bft) O 80 ° 0 min 0,000 mm 0,0 UV-I 0 W/m² 15,2 °C 16,3 °C 0,0 km/h (0 Bft)
29.07.2019 22:23 16,3 °C 93 % 1010,7 hPa 0,0 mm 0,0 km/h (0 Bft) O 80 ° 0 min 0,000 mm 0,0 UV-I 0 W/m² 15,2 °C 16,3 °C 0,0 km/h (0 Bft)
29.07.2019 22:24 16,3 °C 93 % 1010,7 hPa 0,0 mm 0,0 km/h (0 Bft) O 80 ° 0 min 0,000 mm 0,0 UV-I 0 W/m² 15,2 °C 16,3 °C 0,0 km/h (0 Bft)
29.07.2019 22:25 16,3 °C 93 % 1010,8 hPa 0,0 mm 0,0 km/h (0 Bft) O 80 ° 0 min 0,000 mm 0,0 UV-I 0 W/m² 15,2 °C 16,3 °C 0,0 km/h (0 Bft)
29.07.2019 22:26 16,3 °C 93 % 1010,8 hPa 0,0 mm 0,0 km/h (0 Bft) O 80 ° 0 min 0,000 mm 0,0 UV-I 0 W/m² 15,2 °C 16,3 °C 0,0 km/h (0 Bft)
29.07.2019 22:27 16,2 °C 93 % 1010,7 hPa 0,0 mm 0,0 km/h (0 Bft) O 80 ° 0 min 0,000 mm 0,0 UV-I 0 W/m² 15,1 °C 16,2 °C 0,0 km/h (0 Bft)
29.07.2019 22:28 16,2 °C 93 % 1010,8 hPa 0,0 mm 0,0 km/h (0 Bft) O 80 ° 0 min 0,000 mm 0,0 UV-I 0 W/m² 15,1 °C 16,2 °C 0,0 km/h (0 Bft)
29.07.2019 22:29 16,2 °C 93 % 1010,8 hPa 0,0 mm 0,0 km/h (0 Bft) O 80 ° 0 min 0,000 mm 0,0 UV-I 0 W/m² 15,1 °C 16,2 °C 0,0 km/h (0 Bft)
29.07.2019 22:30 16,2 °C 93 % 1010,8 hPa 0,0 mm 0,0 km/h (0 Bft) O 80 ° 0 min 0,000 mm 0,0 UV-I 0 W/m² 15,1 °C 16,2 °C 0,0 km/h (0 Bft)
29.07.2019 22:31 16,2 °C 93 % 1010,8 hPa 0,0 mm 0,0 km/h (0 Bft) O 80 ° 0 min 0,000 mm 0,0 UV-I 0 W/m² 15,1 °C 16,2 °C 0,0 km/h (0 Bft)
29.07.2019 22:32 16,2 °C 93 % 1010,8 hPa 0,0 mm 1,2 km/h (1 Bft) O 80 ° 0 min 0,000 mm 0,0 UV-I 0 W/m² 15,1 °C 16,2 °C 3,2 km/h (1 Bft)
29.07.2019 22:33 16,2 °C 93 % 1010,8 hPa 0,0 mm 0,6 km/h (0 Bft) O 80 ° 0 min 0,000 mm 0,0 UV-I 0 W/m² 15,1 °C 16,2 °C 1,6 km/h (1 Bft)
29.07.2019 22:34 16,2 °C 93 % 1010,8 hPa 0,0 mm 1,3 km/h (1 Bft) O 80 ° 0 min 0,000 mm 0,0 UV-I 0 W/m² 15,1 °C 16,2 °C 3,2 km/h (1 Bft)
29.07.2019 22:35 16,1 °C 93 % 1010,8 hPa 0,0 mm 0,5 km/h (0 Bft) O 80 ° 0 min 0,000 mm 0,0 UV-I 0 W/m² 15,0 °C 16,1 °C 1,6 km/h (1 Bft)
29.07.2019 22:36 16,1 °C 93 % 1010,9 hPa 0,0 mm 0,0 km/h (0 Bft) O 80 ° 0 min 0,000 mm 0,0 UV-I 0 W/m² 15,0 °C 16,1 °C 0,0 km/h (0 Bft)
29.07.2019 22:37 16,1 °C 93 % 1010,8 hPa 0,0 mm 0,0 km/h (0 Bft) O 80 ° 0 min 0,000 mm 0,0 UV-I 0 W/m² 15,0 °C 16,1 °C 0,0 km/h (0 Bft)
29.07.2019 22:38 16,1 °C 93 % 1010,8 hPa 0,0 mm 0,0 km/h (0 Bft) O 80 ° 0 min 0,000 mm 0,0 UV-I 0 W/m² 15,0 °C 16,1 °C 0,0 km/h (0 Bft)
29.07.2019 22:39 16,1 °C 93 % 1010,8 hPa 0,0 mm 0,0 km/h (0 Bft) O 80 ° 0 min 0,000 mm 0,0 UV-I 0 W/m² 15,0 °C 16,1 °C 0,0 km/h (0 Bft)
29.07.2019 22:40 16,1 °C 93 % 1010,8 hPa 0,0 mm 0,0 km/h (0 Bft) O 80 ° 0 min 0,000 mm 0,0 UV-I 0 W/m² 15,0 °C 16,1 °C 0,0 km/h (0 Bft)
29.07.2019 22:41 16,1 °C 93 % 1010,8 hPa 0,0 mm 0,0 km/h (0 Bft) O 80 ° 0 min 0,000 mm 0,0 UV-I 0 W/m² 15,0 °C 16,1 °C 0,0 km/h (0 Bft)
29.07.2019 22:42 16,1 °C 93 % 1010,8 hPa 0,0 mm 0,0 km/h (0 Bft) O 80 ° 0 min 0,000 mm 0,0 UV-I 0 W/m² 15,0 °C 16,1 °C 0,0 km/h (0 Bft)
29.07.2019 22:43 16,1 °C 93 % 1010,8 hPa 0,0 mm 0,0 km/h (0 Bft) O 80 ° 0 min 0,000 mm 0,0 UV-I 0 W/m² 15,0 °C 16,1 °C 0,0 km/h (0 Bft)
29.07.2019 22:44 16,1 °C 93 % 1010,8 hPa 0,0 mm 0,0 km/h (0 Bft) O 80 ° 0 min 0,000 mm 0,0 UV-I 0 W/m² 15,0 °C 16,1 °C 0,0 km/h (0 Bft)
29.07.2019 22:45 16,1 °C 93 % 1010,9 hPa 0,0 mm 0,0 km/h (0 Bft) O 80 ° 0 min 0,000 mm 0,0 UV-I 0 W/m² 15,0 °C 16,1 °C 0,0 km/h (0 Bft)
29.07.2019 22:46 16,1 °C 93 % 1010,8 hPa 0,0 mm 0,0 km/h (0 Bft) O 80 ° 0 min 0,000 mm 0,0 UV-I 0 W/m² 15,0 °C 16,1 °C 0,0 km/h (0 Bft)
29.07.2019 22:47 16,1 °C 94 % 1010,9 hPa 0,0 mm 0,0 km/h (0 Bft) O 80 ° 0 min 0,000 mm 0,0 UV-I 0 W/m² 15,1 °C 16,1 °C 0,0 km/h (0 Bft)
29.07.2019 22:48 16,1 °C 94 % 1010,9 hPa 0,0 mm 0,0 km/h (0 Bft) O 80 ° 0 min 0,000 mm 0,0 UV-I 0 W/m² 15,1 °C 16,1 °C 0,0 km/h (0 Bft)
29.07.2019 22:49 16,1 °C 94 % 1010,9 hPa 0,0 mm 0,0 km/h (0 Bft) O 80 ° 0 min 0,000 mm 0,0 UV-I 0 W/m² 15,1 °C 16,1 °C 0,0 km/h (0 Bft)
29.07.2019 22:50 16,1 °C 94 % 1010,9 hPa 0,0 mm 0,0 km/h (0 Bft) O 80 ° 0 min 0,000 mm 0,0 UV-I 0 W/m² 15,1 °C 16,1 °C 0,0 km/h (0 Bft)
29.07.2019 22:51 16,1 °C 94 % 1010,9 hPa 0,0 mm 0,0 km/h (0 Bft) O 80 ° 0 min 0,000 mm 0,0 UV-I 0 W/m² 15,1 °C 16,1 °C 0,0 km/h (0 Bft)
29.07.2019 22:52 16,1 °C 94 % 1010,9 hPa 0,0 mm 0,0 km/h (0 Bft) O 80 ° 0 min 0,000 mm 0,0 UV-I 0 W/m² 15,1 °C 16,1 °C 0,0 km/h (0 Bft)
29.07.2019 22:53 16,1 °C 94 % 1010,8 hPa 0,0 mm 0,0 km/h (0 Bft) O 80 ° 0 min 0,000 mm 0,0 UV-I 0 W/m² 15,1 °C 16,1 °C 0,0 km/h (0 Bft)
29.07.2019 22:54 16,1 °C 94 % 1010,9 hPa 0,0 mm 0,0 km/h (0 Bft) O 80 ° 0 min 0,000 mm 0,0 UV-I 0 W/m² 15,1 °C 16,1 °C 0,0 km/h (0 Bft)
29.07.2019 22:55 16,1 °C 94 % 1010,8 hPa 0,0 mm 0,0 km/h (0 Bft) O 80 ° 0 min 0,000 mm 0,0 UV-I 0 W/m² 15,1 °C 16,1 °C 0,0 km/h (0 Bft)
29.07.2019 22:56 16,1 °C 94 % 1010,9 hPa 0,0 mm 0,0 km/h (0 Bft) O 80 ° 0 min 0,000 mm 0,0 UV-I 0 W/m² 15,1 °C 16,1 °C 0,0 km/h (0 Bft)
29.07.2019 22:57 16,1 °C 94 % 1010,8 hPa 0,0 mm 0,0 km/h (0 Bft) O 80 ° 0 min 0,000 mm 0,0 UV-I 0 W/m² 15,1 °C 16,1 °C 0,0 km/h (0 Bft)
29.07.2019 22:58 16,0 °C 94 % 1010,8 hPa 0,0 mm 0,0 km/h (0 Bft) O 80 ° 0 min 0,000 mm 0,0 UV-I 0 W/m² 15,0 °C 16,0 °C 0,0 km/h (0 Bft)
29.07.2019 22:59 16,0 °C 94 % 1010,8 hPa 0,0 mm 0,0 km/h (0 Bft) O 80 ° 0 min 0,000 mm 0,0 UV-I 0 W/m² 15,0 °C 16,0 °C 0,0 km/h (0 Bft)
29.07.2019 23:00 15,9 °C 94 % 1010,9 hPa 0,0 mm 0,0 km/h (0 Bft) O 80 ° 0 min 0,000 mm 0,0 UV-I 0 W/m² 14,9 °C 15,9 °C 0,0 km/h (0 Bft)
29.07.2019 23:01 15,9 °C 94 % 1010,9 hPa 0,0 mm 0,0 km/h (0 Bft) O 80 ° 0 min 0,000 mm 0,0 UV-I 0 W/m² 14,9 °C 15,9 °C 0,0 km/h (0 Bft)
29.07.2019 23:02 15,9 °C 94 % 1010,8 hPa 0,0 mm 0,0 km/h (0 Bft) O 80 ° 0 min 0,000 mm 0,0 UV-I 0 W/m² 14,9 °C 15,9 °C 0,0 km/h (0 Bft)
29.07.2019 23:03 15,9 °C 94 % 1010,8 hPa 0,0 mm 0,0 km/h (0 Bft) O 80 ° 0 min 0,000 mm 0,0 UV-I 0 W/m² 14,9 °C 15,9 °C 0,0 km/h (0 Bft)
29.07.2019 23:04 15,9 °C 94 % 1010,8 hPa 0,0 mm 0,0 km/h (0 Bft) O 80 ° 0 min 0,000 mm 0,0 UV-I 0 W/m² 14,9 °C 15,9 °C 0,0 km/h (0 Bft)
29.07.2019 23:05 15,9 °C 94 % 1010,8 hPa 0,0 mm 0,0 km/h (0 Bft) O 80 ° 0 min 0,000 mm 0,0 UV-I 0 W/m² 14,9 °C 15,9 °C 0,0 km/h (0 Bft)
29.07.2019 23:06 15,9 °C 94 % 1010,8 hPa 0,0 mm 0,0 km/h (0 Bft) O 80 ° 0 min 0,000 mm 0,0 UV-I 0 W/m² 14,9 °C 15,9 °C 0,0 km/h (0 Bft)
29.07.2019 23:07 15,9 °C 94 % 1010,8 hPa 0,0 mm 0,0 km/h (0 Bft) O 80 ° 0 min 0,000 mm 0,0 UV-I 0 W/m² 14,9 °C 15,9 °C 0,0 km/h (0 Bft)
29.07.2019 23:08 15,8 °C 93 % 1010,8 hPa 0,0 mm 0,0 km/h (0 Bft) O 80 ° 0 min 0,000 mm 0,0 UV-I 0 W/m² 14,7 °C 15,8 °C 0,0 km/h (0 Bft)
29.07.2019 23:09 15,8 °C 94 % 1010,8 hPa 0,0 mm 0,0 km/h (0 Bft) O 80 ° 0 min 0,000 mm 0,0 UV-I 0 W/m² 14,8 °C 15,8 °C 0,0 km/h (0 Bft)
29.07.2019 23:10 15,8 °C 94 % 1010,9 hPa 0,0 mm 0,0 km/h (0 Bft) O 80 ° 0 min 0,000 mm 0,0 UV-I 0 W/m² 14,8 °C 15,8 °C 0,0 km/h (0 Bft)
29.07.2019 23:11 15,8 °C 94 % 1010,9 hPa 0,0 mm 0,0 km/h (0 Bft) O 80 ° 0 min 0,000 mm 0,0 UV-I 0 W/m² 14,8 °C 15,8 °C 0,0 km/h (0 Bft)
29.07.2019 23:12 15,8 °C 94 % 1010,8 hPa 0,0 mm 0,0 km/h (0 Bft) O 80 ° 0 min 0,000 mm 0,0 UV-I 0 W/m² 14,8 °C 15,8 °C 0,0 km/h (0 Bft)
29.07.2019 23:13 15,8 °C 94 % 1010,9 hPa 0,0 mm 0,0 km/h (0 Bft) O 80 ° 0 min 0,000 mm 0,0 UV-I 0 W/m² 14,8 °C 15,8 °C 0,0 km/h (0 Bft)
29.07.2019 23:14 15,8 °C 94 % 1010,8 hPa 0,0 mm 0,0 km/h (0 Bft) O 80 ° 0 min 0,000 mm 0,0 UV-I 0 W/m² 14,8 °C 15,8 °C 0,0 km/h (0 Bft)
29.07.2019 23:15 15,8 °C 94 % 1010,9 hPa 0,0 mm 0,0 km/h (0 Bft) O 80 ° 0 min 0,000 mm 0,0 UV-I 0 W/m² 14,8 °C 15,8 °C 0,0 km/h (0 Bft)
29.07.2019 23:16 15,7 °C 94 % 1010,8 hPa 0,0 mm 0,0 km/h (0 Bft) O 80 ° 0 min 0,000 mm 0,0 UV-I 0 W/m² 14,7 °C 15,7 °C 0,0 km/h (0 Bft)
29.07.2019 23:17 15,8 °C 94 % 1010,8 hPa 0,0 mm 0,0 km/h (0 Bft) O 80 ° 0 min 0,000 mm 0,0 UV-I 0 W/m² 14,8 °C 15,8 °C 0,0 km/h (0 Bft)
29.07.2019 23:18 15,8 °C 94 % 1010,8 hPa 0,0 mm 0,0 km/h (0 Bft) O 80 ° 0 min 0,000 mm 0,0 UV-I 0 W/m² 14,8 °C 15,8 °C 0,0 km/h (0 Bft)
29.07.2019 23:19 15,7 °C 94 % 1010,8 hPa 0,0 mm 0,0 km/h (0 Bft) O 80 ° 0 min 0,000 mm 0,0 UV-I 0 W/m² 14,7 °C 15,7 °C 0,0 km/h (0 Bft)
29.07.2019 23:20 15,7 °C 94 % 1010,9 hPa 0,0 mm 0,0 km/h (0 Bft) O 80 ° 0 min 0,000 mm 0,0 UV-I 0 W/m² 14,7 °C 15,7 °C 0,0 km/h (0 Bft)
29.07.2019 23:21 15,7 °C 94 % 1010,8 hPa 0,0 mm 0,0 km/h (0 Bft) O 80 ° 0 min 0,000 mm 0,0 UV-I 0 W/m² 14,7 °C 15,7 °C 0,0 km/h (0 Bft)
29.07.2019 23:22 15,7 °C 94 % 1010,9 hPa 0,0 mm 0,0 km/h (0 Bft) O 80 ° 0 min 0,000 mm 0,0 UV-I 0 W/m² 14,7 °C 15,7 °C 0,0 km/h (0 Bft)
29.07.2019 23:23 15,7 °C 94 % 1010,9 hPa 0,0 mm 0,0 km/h (0 Bft) O 80 ° 0 min 0,000 mm 0,0 UV-I 0 W/m² 14,7 °C 15,7 °C 0,0 km/h (0 Bft)
29.07.2019 23:24 15,7 °C 94 % 1010,8 hPa 0,0 mm 0,0 km/h (0 Bft) O 80 ° 0 min 0,000 mm 0,0 UV-I 0 W/m² 14,7 °C 15,7 °C 0,0 km/h (0 Bft)
29.07.2019 23:25 15,7 °C 94 % 1010,8 hPa 0,0 mm 0,0 km/h (0 Bft) O 80 ° 0 min 0,000 mm 0,0 UV-I 0 W/m² 14,7 °C 15,7 °C 0,0 km/h (0 Bft)
29.07.2019 23:26 15,7 °C 94 % 1010,8 hPa 0,0 mm 0,0 km/h (0 Bft) O 80 ° 0 min 0,000 mm 0,0 UV-I 0 W/m² 14,7 °C 15,7 °C 0,0 km/h (0 Bft)
29.07.2019 23:27 15,7 °C 94 % 1010,8 hPa 0,0 mm 0,0 km/h (0 Bft) O 80 ° 0 min 0,000 mm 0,0 UV-I 0 W/m² 14,7 °C 15,7 °C 0,0 km/h (0 Bft)
29.07.2019 23:28 15,7 °C 94 % 1010,8 hPa 0,0 mm 0,0 km/h (0 Bft) O 80 ° 0 min 0,000 mm 0,0 UV-I 0 W/m² 14,7 °C 15,7 °C 0,0 km/h (0 Bft)
29.07.2019 23:29 15,7 °C 94 % 1010,8 hPa 0,0 mm 0,0 km/h (0 Bft) O 80 ° 0 min 0,000 mm 0,0 UV-I 0 W/m² 14,7 °C 15,7 °C 0,0 km/h (0 Bft)
29.07.2019 23:30 15,6 °C 94 % 1010,8 hPa 0,0 mm 0,0 km/h (0 Bft) O 80 ° 0 min 0,000 mm 0,0 UV-I 0 W/m² 14,6 °C 15,6 °C 0,0 km/h (0 Bft)
29.07.2019 23:31 15,6 °C 94 % 1010,7 hPa 0,0 mm 0,0 km/h (0 Bft) O 80 ° 0 min 0,000 mm 0,0 UV-I 0 W/m² 14,6 °C 15,6 °C 0,0 km/h (0 Bft)
29.07.2019 23:32 15,6 °C 94 % 1010,7 hPa 0,0 mm 0,0 km/h (0 Bft) O 80 ° 0 min 0,000 mm 0,0 UV-I 0 W/m² 14,6 °C 15,6 °C 0,0 km/h (0 Bft)
29.07.2019 23:33 15,6 °C 94 % 1010,7 hPa 0,0 mm 0,0 km/h (0 Bft) O 80 ° 0 min 0,000 mm 0,0 UV-I 0 W/m² 14,6 °C 15,6 °C 0,0 km/h (0 Bft)
29.07.2019 23:34 15,6 °C 94 % 1010,7 hPa 0,0 mm 0,0 km/h (0 Bft) O 80 ° 0 min 0,000 mm 0,0 UV-I 0 W/m² 14,6 °C 15,6 °C 0,0 km/h (0 Bft)
29.07.2019 23:35 15,6 °C 94 % 1010,7 hPa 0,0 mm 0,0 km/h (0 Bft) O 80 ° 0 min 0,000 mm 0,0 UV-I 0 W/m² 14,6 °C 15,6 °C 0,0 km/h (0 Bft)
29.07.2019 23:36 15,5 °C 94 % 1010,7 hPa 0,0 mm 0,0 km/h (0 Bft) O 80 ° 0 min 0,000 mm 0,0 UV-I 0 W/m² 14,5 °C 15,5 °C 0,0 km/h (0 Bft)
29.07.2019 23:37 15,5 °C 94 % 1010,7 hPa 0,0 mm 0,0 km/h (0 Bft) O 80 ° 0 min 0,000 mm 0,0 UV-I 0 W/m² 14,5 °C 15,5 °C 0,0 km/h (0 Bft)
29.07.2019 23:38 15,5 °C 94 % 1010,7 hPa 0,0 mm 0,0 km/h (0 Bft) O 80 ° 0 min 0,000 mm 0,0 UV-I 0 W/m² 14,5 °C 15,5 °C 0,0 km/h (0 Bft)
29.07.2019 23:39 15,5 °C 94 % 1010,7 hPa 0,0 mm 0,0 km/h (0 Bft) O 80 ° 0 min 0,000 mm 0,0 UV-I 0 W/m² 14,5 °C 15,5 °C 0,0 km/h (0 Bft)
29.07.2019 23:40 15,4 °C 94 % 1010,7 hPa 0,0 mm 0,0 km/h (0 Bft) O 80 ° 0 min 0,000 mm 0,0 UV-I 0 W/m² 14,4 °C 15,4 °C 0,0 km/h (0 Bft)
29.07.2019 23:41 15,5 °C 94 % 1010,7 hPa 0,0 mm 0,0 km/h (0 Bft) O 80 ° 0 min 0,000 mm 0,0 UV-I 0 W/m² 14,5 °C 15,5 °C 0,0 km/h (0 Bft)
29.07.2019 23:42 15,4 °C 94 % 1010,7 hPa 0,0 mm 0,0 km/h (0 Bft) O 80 ° 0 min 0,000 mm 0,0 UV-I 0 W/m² 14,4 °C 15,4 °C 0,0 km/h (0 Bft)
29.07.2019 23:43 15,4 °C 94 % 1010,7 hPa 0,0 mm 0,0 km/h (0 Bft) O 80 ° 0 min 0,000 mm 0,0 UV-I 0 W/m² 14,4 °C 15,4 °C 0,0 km/h (0 Bft)
29.07.2019 23:44 15,4 °C 94 % 1010,7 hPa 0,0 mm 0,0 km/h (0 Bft) O 80 ° 0 min 0,000 mm 0,0 UV-I 0 W/m² 14,4 °C 15,4 °C 0,0 km/h (0 Bft)
29.07.2019 23:45 15,4 °C 94 % 1010,7 hPa 0,0 mm 0,0 km/h (0 Bft) O 80 ° 0 min 0,000 mm 0,0 UV-I 0 W/m² 14,4 °C 15,4 °C 0,0 km/h (0 Bft)
29.07.2019 23:46 15,3 °C 94 % 1010,7 hPa 0,0 mm 0,0 km/h (0 Bft) O 80 ° 0 min 0,000 mm 0,0 UV-I 0 W/m² 14,3 °C 15,3 °C 0,0 km/h (0 Bft)
29.07.2019 23:47 15,3 °C 94 % 1010,7 hPa 0,0 mm 0,0 km/h (0 Bft) O 80 ° 0 min 0,000 mm 0,0 UV-I 0 W/m² 14,3 °C 15,3 °C 0,0 km/h (0 Bft)
29.07.2019 23:48 15,3 °C 94 % 1010,8 hPa 0,0 mm 0,0 km/h (0 Bft) O 80 ° 0 min 0,000 mm 0,0 UV-I 0 W/m² 14,3 °C 15,3 °C 0,0 km/h (0 Bft)
29.07.2019 23:49 15,3 °C 94 % 1010,7 hPa 0,0 mm 0,0 km/h (0 Bft) O 80 ° 0 min 0,000 mm 0,0 UV-I 0 W/m² 14,3 °C 15,3 °C 0,0 km/h (0 Bft)
29.07.2019 23:50 15,3 °C 94 % 1010,8 hPa 0,0 mm 0,0 km/h (0 Bft) O 80 ° 0 min 0,000 mm 0,0 UV-I 0 W/m² 14,3 °C 15,3 °C 0,0 km/h (0 Bft)
29.07.2019 23:51 15,2 °C 94 % 1010,8 hPa 0,0 mm 0,0 km/h (0 Bft) O 80 ° 0 min 0,000 mm 0,0 UV-I 0 W/m² 14,2 °C 15,2 °C 0,0 km/h (0 Bft)
29.07.2019 23:52 15,2 °C 94 % 1010,8 hPa 0,0 mm 0,0 km/h (0 Bft) O 80 ° 0 min 0,000 mm 0,0 UV-I 0 W/m² 14,2 °C 15,2 °C 0,0 km/h (0 Bft)
29.07.2019 23:53 15,2 °C 94 % 1010,8 hPa 0,0 mm 0,0 km/h (0 Bft) O 80 ° 0 min 0,000 mm 0,0 UV-I 0 W/m² 14,2 °C 15,2 °C 0,0 km/h (0 Bft)
29.07.2019 23:54 15,1 °C 94 % 1010,7 hPa 0,0 mm 0,0 km/h (0 Bft) O 80 ° 0 min 0,000 mm 0,0 UV-I 0 W/m² 14,1 °C 15,1 °C 0,0 km/h (0 Bft)
29.07.2019 23:55 15,1 °C 94 % 1010,8 hPa 0,0 mm 0,0 km/h (0 Bft) O 80 ° 0 min 0,000 mm 0,0 UV-I 0 W/m² 14,1 °C 15,1 °C 0,0 km/h (0 Bft)
29.07.2019 23:56 15,1 °C 94 % 1010,7 hPa 0,0 mm 0,0 km/h (0 Bft) O 80 ° 0 min 0,000 mm 0,0 UV-I 0 W/m² 14,1 °C 15,1 °C 0,0 km/h (0 Bft)
29.07.2019 23:57 15,1 °C 94 % 1010,7 hPa 0,0 mm 0,0 km/h (0 Bft) O 80 ° 0 min 0,000 mm 0,0 UV-I 0 W/m² 14,1 °C 15,1 °C 0,0 km/h (0 Bft)
29.07.2019 23:58 15,2 °C 94 % 1010,7 hPa 0,0 mm 0,0 km/h (0 Bft) O 80 ° 0 min 0,000 mm 0,0 UV-I 0 W/m² 14,2 °C 15,2 °C 0,0 km/h (0 Bft)
29.07.2019 23:59 15,1 °C 94 % 1010,7 hPa 0,0 mm 0,0 km/h (0 Bft) O 80 ° 0 min 0,000 mm 0,0 UV-I 0 W/m² 14,1 °C 15,1 °C 0,0 km/h (0 Bft)
_ Min-Zeit 07:21 16:01 00:00 - 23:59 - - - - - - 07:21 07:21 23:59
Minimum _ 13,4 °C 80 % 1005,8 hPa - 0,0 km/h (0 Bft) - - - - - - 12,5 °C 13,4 °C 0,0 km/h (0 Bft)
_ Max-Zeit 15:57 23:59 23:23 09:20 01:01 - - 16:14 16:01 14:42 14:45 16:47 15:57 00:22
Maximum _ 19,5 °C 94 % 1010,9 hPa 0,2 mm 21,3 km/h
W-SW (4 Bft)
- - 1 min 0,356 mm 7,4 UV-I 1067 W/m² 16,5 °C 19,5 °C 40,2 km/h
W (6 Bft)
Durchschnitt _ 15,7 °C 91 % 1008,7 hPa #9,0 mm 5,4 km/h (1 Bft) W - #1:05 h #1,524 mm 2,2 UV-I 112 W/m² 14,1 °C 15,7 °C 9,1 km/h (2 Bft)